Wetterdaten: Donnerstag, 25.08.2016
Datum Zeit Temp. A. Feuchte A. Luftdruck Regen Wind Richtung Richtung Sonnenschein ET UV Solar Taupunkt Windchill Windben Empfang
25.08.2016 00:00 17,1 C 85 % 1021,5 hPa 0,0 l/m 6,9 km/h (2 Bft) O-NO 65 0 min 0,000 mm 0,0 UV-I 0 W/m 14,6 C 16,9 C 9,7 km/h (2 Bft) 96,00 %
25.08.2016 00:02 17,1 C 85 % 1021,6 hPa 0,0 l/m 5,1 km/h (1 Bft) O-NO 67 0 min 0,000 mm 0,0 UV-I 0 W/m 14,6 C 17,1 C 6,4 km/h (2 Bft) 100,00 %
25.08.2016 00:04 17,0 C 85 % 1021,5 hPa 0,0 l/m 6,6 km/h (2 Bft) NO 46 0 min 0,000 mm 0,0 UV-I 0 W/m 14,5 C 16,9 C 11,3 km/h (2 Bft) 97,87 %
25.08.2016 00:06 16,9 C 85 % 1021,5 hPa 0,0 l/m 6,8 km/h (2 Bft) O-NO 57 0 min 0,000 mm 0,0 UV-I 0 W/m 14,4 C 16,7 C 9,7 km/h (2 Bft) 97,87 %
25.08.2016 00:08 16,9 C 85 % 1021,5 hPa 0,0 l/m 6,5 km/h (2 Bft) O-NO 65 0 min 0,000 mm 0,0 UV-I 0 W/m 14,4 C 16,9 C 9,7 km/h (2 Bft) 98,00 %
25.08.2016 00:10 16,9 C 85 % 1021,5 hPa 0,0 l/m 6,8 km/h (2 Bft) NO 49 0 min 0,000 mm 0,0 UV-I 0 W/m 14,4 C 16,7 C 11,3 km/h (2 Bft) 95,74 %
25.08.2016 00:12 16,9 C 85 % 1021,5 hPa 0,0 l/m 6,9 km/h (2 Bft) O-NO 63 0 min 0,000 mm 0,0 UV-I 0 W/m 14,4 C 16,7 C 11,3 km/h (2 Bft) 95,74 %
25.08.2016 00:14 16,8 C 86 % 1021,5 hPa 0,0 l/m 5,9 km/h (2 Bft) O-NO 67 0 min 0,000 mm 0,0 UV-I 0 W/m 14,4 C 16,8 C 9,7 km/h (2 Bft) 97,37 %
25.08.2016 00:16 16,8 C 86 % 1021,5 hPa 0,0 l/m 6,1 km/h (2 Bft) NO 55 0 min 0,000 mm 0,0 UV-I 0 W/m 14,4 C 16,8 C 9,7 km/h (2 Bft) 93,62 %
25.08.2016 00:18 16,8 C 86 % 1021,6 hPa 0,0 l/m 5,2 km/h (1 Bft) O-NO 76 0 min 0,000 mm 0,0 UV-I 0 W/m 14,4 C 16,8 C 8,0 km/h (2 Bft) 95,74 %
25.08.2016 00:20 16,8 C 86 % 1021,5 hPa 0,0 l/m 6,0 km/h (2 Bft) O-NO 70 0 min 0,000 mm 0,0 UV-I 0 W/m 14,4 C 16,8 C 8,0 km/h (2 Bft) 97,87 %
25.08.2016 00:22 16,8 C 86 % 1021,6 hPa 0,0 l/m 7,3 km/h (2 Bft) NO 50 0 min 0,000 mm 0,0 UV-I 0 W/m 14,4 C 16,3 C 11,3 km/h (2 Bft) 97,92 %
25.08.2016 00:24 16,8 C 86 % 1021,6 hPa 0,0 l/m 6,2 km/h (2 Bft) O-NO 59 0 min 0,000 mm 0,0 UV-I 0 W/m 14,4 C 16,8 C 9,7 km/h (2 Bft) 95,74 %
25.08.2016 00:26 16,8 C 85 % 1021,5 hPa 0,0 l/m 6,0 km/h (2 Bft) O-NO 67 0 min 0,000 mm 0,0 UV-I 0 W/m 14,3 C 16,8 C 9,7 km/h (2 Bft) 97,87 %
25.08.2016 00:28 16,8 C 85 % 1021,6 hPa 0,0 l/m 5,4 km/h (1 Bft) O-NO 68 0 min 0,000 mm 0,0 UV-I 0 W/m 14,3 C 16,8 C 8,0 km/h (2 Bft) 97,87 %
25.08.2016 00:30 16,8 C 85 % 1021,6 hPa 0,0 l/m 6,4 km/h (2 Bft) O-NO 67 0 min 0,000 mm 0,0 UV-I 0 W/m 14,3 C 16,8 C 8,0 km/h (2 Bft) 97,87 %
25.08.2016 00:32 16,8 C 85 % 1021,6 hPa 0,0 l/m 6,8 km/h (2 Bft) O-NO 67 0 min 0,000 mm 0,0 UV-I 0 W/m 14,3 C 16,6 C 11,3 km/h (2 Bft) 97,87 %
25.08.2016 00:34 16,8 C 85 % 1021,5 hPa 0,0 l/m 5,7 km/h (1 Bft) NO 53 0 min 0,000 mm 0,0 UV-I 0 W/m 14,3 C 16,8 C 9,7 km/h (2 Bft) 95,74 %
25.08.2016 00:36 16,8 C 85 % 1021,6 hPa 0,0 l/m 6,5 km/h (2 Bft) O-NO 61 0 min 0,000 mm 0,0 UV-I 0 W/m 14,3 C 16,8 C 11,3 km/h (2 Bft) 97,87 %
25.08.2016 00:38 16,8 C 85 % 1021,6 hPa 0,0 l/m 5,7 km/h (1 Bft) O-NO 59 0 min 0,000 mm 0,0 UV-I 0 W/m 14,3 C 16,8 C 9,7 km/h (2 Bft) 100,00 %
25.08.2016 00:40 16,8 C 85 % 1021,5 hPa 0,0 l/m 6,3 km/h (2 Bft) O-NO 59 0 min 0,000 mm 0,0 UV-I 0 W/m 14,3 C 16,8 C 8,0 km/h (2 Bft) 97,87 %
25.08.2016 00:42 16,8 C 85 % 1021,5 hPa 0,0 l/m 6,0 km/h (2 Bft) NO 50 0 min 0,000 mm 0,0 UV-I 0 W/m 14,3 C 16,8 C 8,0 km/h (2 Bft) 97,87 %
25.08.2016 00:44 16,7 C 85 % 1021,5 hPa 0,0 l/m 5,7 km/h (1 Bft) O-NO 69 0 min 0,000 mm 0,0 UV-I 0 W/m 14,2 C 16,7 C 6,4 km/h (2 Bft) 100,00 %
25.08.2016 00:46 16,7 C 85 % 1021,5 hPa 0,0 l/m 6,3 km/h (2 Bft) NO 53 0 min 0,000 mm 0,0 UV-I 0 W/m 14,2 C 16,7 C 12,9 km/h (3 Bft) 100,00 %
25.08.2016 00:48 16,7 C 86 % 1021,5 hPa 0,0 l/m 6,7 km/h (2 Bft) NO 50 0 min 0,000 mm 0,0 UV-I 0 W/m 14,3 C 16,6 C 9,7 km/h (2 Bft) 97,87 %
25.08.2016 00:50 16,7 C 86 % 1021,5 hPa 0,0 l/m 7,7 km/h (2 Bft) O-NO 66 0 min 0,000 mm 0,0 UV-I 0 W/m 14,3 C 16,0 C 12,9 km/h (3 Bft) 100,00 %
25.08.2016 00:52 16,7 C 86 % 1021,5 hPa 0,0 l/m 8,5 km/h (2 Bft) O-NO 59 0 min 0,000 mm 0,0 UV-I 0 W/m 14,3 C 15,6 C 12,9 km/h (3 Bft) 100,00 %
25.08.2016 00:54 16,7 C 86 % 1021,5 hPa 0,0 l/m 9,6 km/h (2 Bft) NO 44 0 min 0,000 mm 0,0 UV-I 0 W/m 14,3 C 15,2 C 16,1 km/h (3 Bft) 97,87 %
25.08.2016 00:56 16,7 C 86 % 1021,5 hPa 0,0 l/m 9,1 km/h (2 Bft) NO 52 0 min 0,000 mm 0,0 UV-I 0 W/m 14,3 C 15,4 C 14,5 km/h (3 Bft) 97,14 %
25.08.2016 00:58 16,7 C 86 % 1021,5 hPa 0,0 l/m 9,7 km/h (2 Bft) O-NO 59 0 min 0,000 mm 0,0 UV-I 0 W/m 14,3 C 15,1 C 19,3 km/h (3 Bft) 97,87 %
25.08.2016 01:00 16,7 C 86 % 1021,5 hPa 0,0 l/m 7,6 km/h (2 Bft) NO 54 0 min 0,025 mm 0,0 UV-I 0 W/m 14,3 C 16,1 C 12,9 km/h (3 Bft) 97,96 %
25.08.2016 01:02 16,8 C 86 % 1021,5 hPa 0,0 l/m 8,0 km/h (2 Bft) NO 49 0 min 0,000 mm 0,0 UV-I 0 W/m 14,4 C 16,0 C 11,3 km/h (2 Bft) 97,87 %
25.08.2016 01:04 16,8 C 86 % 1021,5 hPa 0,0 l/m 9,0 km/h (2 Bft) O-NO 61 0 min 0,000 mm 0,0 UV-I 0 W/m 14,4 C 15,5 C 14,5 km/h (3 Bft) 100,00 %
25.08.2016 01:06 16,8 C 86 % 1021,5 hPa 0,0 l/m 10,0 km/h (2 Bft) NO 51 0 min 0,000 mm 0,0 UV-I 0 W/m 14,4 C 15,1 C 14,5 km/h (3 Bft) 97,87 %
25.08.2016 01:08 16,8 C 86 % 1021,5 hPa 0,0 l/m 9,5 km/h (2 Bft) O-NO 61 0 min 0,000 mm 0,0 UV-I 0 W/m 14,4 C 15,3 C 16,1 km/h (3 Bft) 100,00 %
25.08.2016 01:10 16,8 C 86 % 1021,5 hPa 0,0 l/m 9,4 km/h (2 Bft) NO 51 0 min 0,000 mm 0,0 UV-I 0 W/m 14,4 C 15,4 C 14,5 km/h (3 Bft) 100,00 %
25.08.2016 01:12 16,8 C 86 % 1021,4 hPa 0,0 l/m 9,1 km/h (2 Bft) NO 52 0 min 0,000 mm 0,0 UV-I 0 W/m 14,4 C 15,5 C 14,5 km/h (3 Bft) 100,00 %
25.08.2016 01:14 16,8 C 86 % 1021,4 hPa 0,0 l/m 8,3 km/h (2 Bft) O-NO 63 0 min 0,000 mm 0,0 UV-I 0 W/m 14,4 C 15,8 C 12,9 km/h (3 Bft) 100,00 %
25.08.2016 01:16 16,8 C 86 % 1021,4 hPa 0,0 l/m 9,0 km/h (2 Bft) O-NO 59 0 min 0,000 mm 0,0 UV-I 0 W/m 14,4 C 15,5 C 12,9 km/h (3 Bft) 100,00 %
25.08.2016 01:18 16,7 C 86 % 1021,4 hPa 0,0 l/m 8,8 km/h (2 Bft) O-NO 57 0 min 0,000 mm 0,0 UV-I 0 W/m 14,3 C 15,5 C 12,9 km/h (3 Bft) 100,00 %
25.08.2016 01:20 16,7 C 86 % 1021,4 hPa 0,0 l/m 10,3 km/h (2 Bft) O-NO 59 0 min 0,000 mm 0,0 UV-I 0 W/m 14,3 C 14,9 C 14,5 km/h (3 Bft) 100,00 %
25.08.2016 01:22 16,7 C 86 % 1021,4 hPa 0,0 l/m 9,5 km/h (2 Bft) NO 55 0 min 0,000 mm 0,0 UV-I 0 W/m 14,3 C 15,2 C 16,1 km/h (3 Bft) 100,00 %
25.08.2016 01:24 16,7 C 86 % 1021,4 hPa 0,0 l/m 9,0 km/h (2 Bft) O-NO 58 0 min 0,000 mm 0,0 UV-I 0 W/m 14,3 C 15,4 C 12,9 km/h (3 Bft) 97,87 %
25.08.2016 01:26 16,6 C 86 % 1021,3 hPa 0,0 l/m 8,6 km/h (2 Bft) NO 56 0 min 0,000 mm 0,0 UV-I 0 W/m 14,2 C 15,5 C 12,9 km/h (3 Bft) 100,00 %
25.08.2016 01:28 16,6 C 87 % 1021,3 hPa 0,0 l/m 9,7 km/h (2 Bft) O-NO 65 0 min 0,000 mm 0,0 UV-I 0 W/m 14,4 C 15,0 C 14,5 km/h (3 Bft) 97,87 %
25.08.2016 01:30 16,6 C 87 % 1021,3 hPa 0,0 l/m 10,4 km/h (2 Bft) O-NO 63 0 min 0,000 mm 0,0 UV-I 0 W/m 14,4 C 14,7 C 16,1 km/h (3 Bft) 100,00 %
25.08.2016 01:32 16,6 C 87 % 1021,3 hPa 0,0 l/m 10,3 km/h (2 Bft) O 84 0 min 0,000 mm 0,0 UV-I 0 W/m 14,4 C 14,8 C 16,1 km/h (3 Bft) 100,00 %
25.08.2016 01:34 16,6 C 87 % 1021,3 hPa 0,0 l/m 9,5 km/h (2 Bft) NO 44 0 min 0,000 mm 0,0 UV-I 0 W/m 14,4 C 15,1 C 14,5 km/h (3 Bft) 96,00 %
25.08.2016 01:36 16,6 C 87 % 1021,3 hPa 0,0 l/m 8,9 km/h (2 Bft) O-NO 67 0 min 0,000 mm 0,0 UV-I 0 W/m 14,4 C 15,4 C 12,9 km/h (3 Bft) 100,00 %
25.08.2016 01:38 16,6 C 87 % 1021,3 hPa 0,0 l/m 8,8 km/h (2 Bft) NO 56 0 min 0,000 mm 0,0 UV-I 0 W/m 14,4 C 15,4 C 14,5 km/h (3 Bft) 100,00 %
25.08.2016 01:40 16,6 C 87 % 1021,3 hPa 0,0 l/m 9,6 km/h (2 Bft) NO 53 0 min 0,000 mm 0,0 UV-I 0 W/m 14,4 C 15,1 C 14,5 km/h (3 Bft) 100,00 %
25.08.2016 01:42 16,6 C 87 % 1021,3 hPa 0,0 l/m 9,3 km/h (2 Bft) N-NO 33 0 min 0,000 mm 0,0 UV-I 0 W/m 14,4 C 15,2 C 16,1 km/h (3 Bft) 97,96 %
25.08.2016 01:44 16,6 C 87 % 1021,2 hPa 0,0 l/m 11,6 km/h (2 Bft) O-NO 61 0 min 0,000 mm 0,0 UV-I 0 W/m 14,4 C 14,3 C 14,5 km/h (3 Bft) 97,92 %
25.08.2016 01:46 16,6 C 87 % 1021,3 hPa 0,0 l/m 9,4 km/h (2 Bft) O-NO 59 0 min 0,000 mm 0,0 UV-I 0 W/m 14,4 C 15,1 C 16,1 km/h (3 Bft) 97,96 %
25.08.2016 01:48 16,6 C 87 % 1021,3 hPa 0,0 l/m 10,4 km/h (2 Bft) O-NO 69 0 min 0,000 mm 0,0 UV-I 0 W/m 14,4 C 14,7 C 17,7 km/h (3 Bft) 100,00 %
25.08.2016 01:50 16,6 C 87 % 1021,2 hPa 0,0 l/m 9,8 km/h (2 Bft) O-NO 70 0 min 0,000 mm 0,0 UV-I 0 W/m 14,4 C 15,0 C 17,7 km/h (3 Bft) 100,00 %
25.08.2016 01:52 16,6 C 86 % 1021,2 hPa 0,0 l/m 9,6 km/h (2 Bft) O-NO 57 0 min 0,000 mm 0,0 UV-I 0 W/m 14,2 C 15,1 C 16,1 km/h (3 Bft) 100,00 %
25.08.2016 01:54 16,6 C 86 % 1021,2 hPa 0,0 l/m 9,1 km/h (2 Bft) NO 48 0 min 0,000 mm 0,0 UV-I 0 W/m 14,2 C 15,3 C 14,5 km/h (3 Bft) 100,00 %
25.08.2016 01:56 16,6 C 87 % 1021,2 hPa 0,0 l/m 10,7 km/h (2 Bft) NO 55 0 min 0,000 mm 0,0 UV-I 0 W/m 14,4 C 14,6 C 14,5 km/h (3 Bft) 100,00 %
25.08.2016 01:58 16,6 C 87 % 1021,2 hPa 0,0 l/m 10,9 km/h (2 Bft) O-NO 57 0 min 0,000 mm 0,0 UV-I 0 W/m 14,4 C 14,5 C 16,1 km/h (3 Bft) 100,00 %
25.08.2016 02:00 16,6 C 87 % 1021,2 hPa 0,0 l/m 10,3 km/h (2 Bft) NO 54 0 min 0,000 mm 0,0 UV-I 0 W/m 14,4 C 14,8 C 14,5 km/h (3 Bft) 100,00 %
25.08.2016 02:02 16,6 C 86 % 1021,2 hPa 0,0 l/m 7,2 km/h (2 Bft) NO 51 0 min 0,026 mm 0,0 UV-I 0 W/m 14,2 C 16,2 C 12,9 km/h (3 Bft) 97,87 %
25.08.2016 02:04 16,6 C 87 % 1021,2 hPa 0,0 l/m 7,3 km/h (2 Bft) NO 38 0 min 0,000 mm 0,0 UV-I 0 W/m 14,4 C 16,1 C 12,9 km/h (3 Bft) 95,74 %
25.08.2016 02:06 16,5 C 87 % 1021,2 hPa 0,0 l/m 6,3 km/h (2 Bft) N-NO 21 0 min 0,000 mm 0,0 UV-I 0 W/m 14,3 C 16,5 C 8,0 km/h (2 Bft) 98,00 %
25.08.2016 02:08 16,4 C 87 % 1021,2 hPa 0,0 l/m 6,0 km/h (2 Bft) O-NO 65 0 min 0,000 mm 0,0 UV-I 0 W/m 14,2 C 16,4 C 12,9 km/h (3 Bft) 97,87 %
25.08.2016 02:10 16,3 C 87 % 1021,2 hPa 0,0 l/m 6,3 km/h (2 Bft) NO 38 0 min 0,000 mm 0,0 UV-I 0 W/m 14,1 C 16,3 C 9,7 km/h (2 Bft) 93,62 %
25.08.2016 02:12 16,3 C 88 % 1021,2 hPa 0,0 l/m 5,5 km/h (1 Bft) O-NO 57 0 min 0,000 mm 0,0 UV-I 0 W/m 14,3 C 16,3 C 8,0 km/h (2 Bft) 97,87 %
25.08.2016 02:14 16,2 C 87 % 1021,2 hPa 0,0 l/m 5,6 km/h (1 Bft) NO 53 0 min 0,000 mm 0,0 UV-I 0 W/m 14,0 C 16,2 C 8,0 km/h (2 Bft) 95,74 %
25.08.2016 02:16 16,2 C 88 % 1021,2 hPa 0,0 l/m 7,2 km/h (2 Bft) O-NO 65 0 min 0,000 mm 0,0 UV-I 0 W/m 14,2 C 15,8 C 12,9 km/h (3 Bft) 97,87 %
25.08.2016 02:18 16,2 C 88 % 1021,2 hPa 0,0 l/m 6,3 km/h (2 Bft) O-NO 61 0 min 0,000 mm 0,0 UV-I 0 W/m 14,2 C 16,2 C 11,3 km/h (2 Bft) 97,22 %
25.08.2016 02:20 16,2 C 88 % 1021,2 hPa 0,0 l/m 7,6 km/h (2 Bft) NO 36 0 min 0,000 mm 0,0 UV-I 0 W/m 14,2 C 15,6 C 14,5 km/h (3 Bft) 98,00 %
25.08.2016 02:22 16,2 C 88 % 1021,1 hPa 0,0 l/m 7,0 km/h (2 Bft) NO 46 0 min 0,000 mm 0,0 UV-I 0 W/m 14,2 C 15,9 C 9,7 km/h (2 Bft) 97,87 %
25.08.2016 02:24 16,2 C 88 % 1021,1 hPa 0,0 l/m 6,6 km/h (2 Bft) O-NO 64 0 min 0,000 mm 0,0 UV-I 0 W/m 14,2 C 16,1 C 12,9 km/h (3 Bft) 95,74 %
25.08.2016 02:26 16,2 C 88 % 1021,1 hPa 0,0 l/m 7,8 km/h (2 Bft) NO 55 0 min 0,000 mm 0,0 UV-I 0 W/m 14,2 C 15,5 C 14,5 km/h (3 Bft) 98,00 %
25.08.2016 02:28 16,2 C 88 % 1021,1 hPa 0,0 l/m 9,7 km/h (2 Bft) O-NO 71 0 min 0,000 mm 0,0 UV-I 0 W/m 14,2 C 14,6 C 14,5 km/h (3 Bft) 97,87 %
25.08.2016 02:30 16,2 C 88 % 1021,1 hPa 0,0 l/m 9,9 km/h (2 Bft) NO 39 0 min 0,000 mm 0,0 UV-I 0 W/m 14,2 C 14,5 C 14,5 km/h (3 Bft) 95,74 %
25.08.2016 02:32 16,2 C 87 % 1021,1 hPa 0,0 l/m 12,1 km/h (2 Bft) O-NO 60 0 min 0,000 mm 0,0 UV-I 0 W/m 14,0 C 13,6 C 17,7 km/h (3 Bft) 97,56 %
25.08.2016 02:34 16,2 C 87 % 1021,0 hPa 0,0 l/m 10,1 km/h (2 Bft) O-NO 71 0 min 0,000 mm 0,0 UV-I 0 W/m 14,0 C 14,4 C 16,1 km/h (3 Bft) 95,74 %
25.08.2016 02:36 16,2 C 87 % 1021,0 hPa 0,0 l/m 10,3 km/h (2 Bft) NO 56 0 min 0,000 mm 0,0 UV-I 0 W/m 14,0 C 14,3 C 16,1 km/h (3 Bft) 95,74 %
25.08.2016 02:38 16,2 C 87 % 1021,0 hPa 0,0 l/m 10,4 km/h (2 Bft) O-NO 61 0 min 0,000 mm 0,0 UV-I 0 W/m 14,0 C 14,3 C 14,5 km/h (3 Bft) 100,00 %
25.08.2016 02:40 16,2 C 87 % 1021,0 hPa 0,0 l/m 13,7 km/h (3 Bft) NO 53 0 min 0,000 mm 0,0 UV-I 0 W/m 14,0 C 13,1 C 17,7 km/h (3 Bft) 95,74 %
25.08.2016 02:42 16,2 C 87 % 1020,9 hPa 0,0 l/m 10,5 km/h (2 Bft) O-NO 72 0 min 0,000 mm 0,0 UV-I 0 W/m 14,0 C 14,2 C 17,7 km/h (3 Bft) 98,00 %
25.08.2016 02:44 16,2 C 87 % 1020,9 hPa 0,0 l/m 8,8 km/h (2 Bft) O-NO 67 0 min 0,000 mm 0,0 UV-I 0 W/m 14,0 C 15,0 C 14,5 km/h (3 Bft) 97,87 %
25.08.2016 02:46 16,2 C 87 % 1020,9 hPa 0,0 l/m 9,6 km/h (2 Bft) O-NO 57 0 min 0,000 mm 0,0 UV-I 0 W/m 14,0 C 14,6 C 19,3 km/h (3 Bft) 97,87 %
25.08.2016 02:48 16,2 C 87 % 1020,8 hPa 0,0 l/m 10,1 km/h (2 Bft) NO 51 0 min 0,000 mm 0,0 UV-I 0 W/m 14,0 C 14,4 C 14,5 km/h (3 Bft) 100,00 %
25.08.2016 02:50 16,2 C 87 % 1020,8 hPa 0,0 l/m 10,7 km/h (2 Bft) O-NO 67 0 min 0,000 mm 0,0 UV-I 0 W/m 14,0 C 14,2 C 17,7 km/h (3 Bft) 97,87 %
25.08.2016 02:52 16,2 C 87 % 1020,8 hPa 0,0 l/m 9,5 km/h (2 Bft) O-NO 60 0 min 0,000 mm 0,0 UV-I 0 W/m 14,0 C 14,7 C 14,5 km/h (3 Bft) 100,00 %
25.08.2016 02:54 16,2 C 87 % 1020,8 hPa 0,0 l/m 8,7 km/h (2 Bft) O-NO 67 0 min 0,000 mm 0,0 UV-I 0 W/m 14,0 C 15,0 C 12,9 km/h (3 Bft) 100,00 %
25.08.2016 02:56 16,2 C 87 % 1020,8 hPa 0,0 l/m 7,4 km/h (2 Bft) O-NO 65 0 min 0,000 mm 0,0 UV-I 0 W/m 14,0 C 15,7 C 12,9 km/h (3 Bft) 97,87 %
25.08.2016 02:58 16,1 C 87 % 1020,8 hPa 0,0 l/m 7,8 km/h (2 Bft) O-NO 65 0 min 0,000 mm 0,0 UV-I 0 W/m 13,9 C 15,4 C 11,3 km/h (2 Bft) 100,00 %
25.08.2016 03:00 16,1 C 88 % 1020,8 hPa 0,0 l/m 7,2 km/h (2 Bft) O-NO 64 0 min 0,025 mm 0,0 UV-I 0 W/m 14,1 C 15,7 C 9,7 km/h (2 Bft) 97,87 %
25.08.2016 03:02 16,0 C 88 % 1020,8 hPa 0,0 l/m 6,5 km/h (2 Bft) O 88 0 min 0,000 mm 0,0 UV-I 0 W/m 14,0 C 16,0 C 11,3 km/h (2 Bft) 100,00 %
25.08.2016 03:04 16,0 C 88 % 1020,8 hPa 0,0 l/m 8,3 km/h (2 Bft) O 98 0 min 0,000 mm 0,0 UV-I 0 W/m 14,0 C 15,0 C 12,9 km/h (3 Bft) 100,00 %
25.08.2016 03:06 15,9 C 88 % 1020,8 hPa 0,0 l/m 7,8 km/h (2 Bft) O-NO 67 0 min 0,000 mm 0,0 UV-I 0 W/m 13,9 C 15,1 C 12,9 km/h (3 Bft) 100,00 %
25.08.2016 03:08 15,9 C 88 % 1020,8 hPa 0,0 l/m 7,0 km/h (2 Bft) O-NO 68 0 min 0,000 mm 0,0 UV-I 0 W/m 13,9 C 15,6 C 11,3 km/h (2 Bft) 94,00 %
25.08.2016 03:10 15,9 C 88 % 1020,8 hPa 0,0 l/m 7,4 km/h (2 Bft) O-NO 62 0 min 0,000 mm 0,0 UV-I 0 W/m 13,9 C 15,4 C 12,9 km/h (3 Bft) 97,87 %
25.08.2016 03:12 15,9 C 88 % 1020,8 hPa 0,0 l/m 6,5 km/h (2 Bft) O-NO 67 0 min 0,000 mm 0,0 UV-I 0 W/m 13,9 C 15,9 C 9,7 km/h (2 Bft) 100,00 %
25.08.2016 03:14 15,9 C 88 % 1020,8 hPa 0,0 l/m 7,2 km/h (2 Bft) O-NO 71 0 min 0,000 mm 0,0 UV-I 0 W/m 13,9 C 15,5 C 12,9 km/h (3 Bft) 100,00 %
25.08.2016 03:16 15,8 C 88 % 1020,8 hPa 0,0 l/m 7,4 km/h (2 Bft) O-NO 71 0 min 0,000 mm 0,0 UV-I 0 W/m 13,8 C 15,3 C 12,9 km/h (3 Bft) 100,00 %
25.08.2016 03:18 15,8 C 88 % 1020,8 hPa 0,0 l/m 7,1 km/h (2 Bft) O-NO 78 0 min 0,000 mm 0,0 UV-I 0 W/m 13,8 C 15,4 C 12,9 km/h (3 Bft) 100,00 %
25.08.2016 03:20 15,8 C 88 % 1020,8 hPa 0,0 l/m 7,5 km/h (2 Bft) O-NO 61 0 min 0,000 mm 0,0 UV-I 0 W/m 13,8 C 15,2 C 12,9 km/h (3 Bft) 100,00 %
25.08.2016 03:22 15,8 C 89 % 1020,7 hPa 0,0 l/m 6,8 km/h (2 Bft) O-NO 59 0 min 0,000 mm 0,0 UV-I 0 W/m 14,0 C 15,6 C 11,3 km/h (2 Bft) 100,00 %
25.08.2016 03:24 15,8 C 89 % 1020,8 hPa 0,0 l/m 6,4 km/h (2 Bft) O-NO 59 0 min 0,000 mm 0,0 UV-I 0 W/m 14,0 C 15,8 C 8,0 km/h (2 Bft) 100,00 %
25.08.2016 03:26 15,8 C 89 % 1020,7 hPa 0,0 l/m 5,5 km/h (1 Bft) NO 54 0 min 0,000 mm 0,0 UV-I 0 W/m 14,0 C 15,8 C 8,0 km/h (2 Bft) 100,00 %
25.08.2016 03:28 15,7 C 89 % 1020,7 hPa 0,0 l/m 6,1 km/h (2 Bft) NO 48 0 min 0,000 mm 0,0 UV-I 0 W/m 13,9 C 15,7 C 9,7 km/h (2 Bft) 100,00 %
25.08.2016 03:30 15,7 C 89 % 1020,7 hPa 0,0 l/m 7,2 km/h (2 Bft) O-NO 69 0 min 0,000 mm 0,0 UV-I 0 W/m 13,9 C 15,3 C 12,9 km/h (3 Bft) 100,00 %
25.08.2016 03:32 15,7 C 89 % 1020,7 hPa 0,0 l/m 6,1 km/h (2 Bft) NO 51 0 min 0,000 mm 0,0 UV-I 0 W/m 13,9 C 15,7 C 11,3 km/h (2 Bft) 100,00 %
25.08.2016 03:34 15,7 C 89 % 1020,7 hPa 0,0 l/m 7,0 km/h (2 Bft) O-NO 74 0 min 0,000 mm 0,0 UV-I 0 W/m 13,9 C 15,4 C 9,7 km/h (2 Bft) 100,00 %
25.08.2016 03:36 15,7 C 89 % 1020,7 hPa 0,0 l/m 8,3 km/h (2 Bft) NO 51 0 min 0,000 mm 0,0 UV-I 0 W/m 13,9 C 14,7 C 11,3 km/h (2 Bft) 100,00 %
25.08.2016 03:38 15,7 C 89 % 1020,7 hPa 0,0 l/m 5,9 km/h (2 Bft) NO 54 0 min 0,000 mm 0,0 UV-I 0 W/m 13,9 C 15,7 C 8,0 km/h (2 Bft) 100,00 %
25.08.2016 03:40 15,7 C 89 % 1020,7 hPa 0,0 l/m 4,9 km/h (1 Bft) O-NO 66 0 min 0,000 mm 0,0 UV-I 0 W/m 13,9 C 15,7 C 6,4 km/h (2 Bft) 100,00 %
25.08.2016 03:42 15,6 C 89 % 1020,7 hPa 0,0 l/m 6,3 km/h (2 Bft) O-NO 67 0 min 0,000 mm 0,0 UV-I 0 W/m 13,8 C 15,6 C 9,7 km/h (2 Bft) 100,00 %
25.08.2016 03:44 15,6 C 89 % 1020,7 hPa 0,0 l/m 5,5 km/h (1 Bft) NO 51 0 min 0,000 mm 0,0 UV-I 0 W/m 13,8 C 15,6 C 8,0 km/h (2 Bft) 97,92 %
25.08.2016 03:46 15,5 C 89 % 1020,6 hPa 0,0 l/m 7,0 km/h (2 Bft) O-NO 61 0 min 0,000 mm 0,0 UV-I 0 W/m 13,7 C 15,2 C 12,9 km/h (3 Bft) 100,00 %
25.08.2016 03:48 15,4 C 89 % 1020,6 hPa 0,0 l/m 7,7 km/h (2 Bft) O-NO 63 0 min 0,000 mm 0,0 UV-I 0 W/m 13,6 C 14,7 C 11,3 km/h (2 Bft) 100,00 %
25.08.2016 03:50 15,4 C 89 % 1020,6 hPa 0,0 l/m 8,9 km/h (2 Bft) NO 52 0 min 0,000 mm 0,0 UV-I 0 W/m 13,6 C 14,1 C 14,5 km/h (3 Bft) 100,00 %
25.08.2016 03:52 15,4 C 90 % 1020,6 hPa 0,0 l/m 9,4 km/h (2 Bft) O-NO 61 0 min 0,000 mm 0,0 UV-I 0 W/m 13,8 C 13,8 C 14,5 km/h (3 Bft) 97,22 %
25.08.2016 03:54 15,4 C 90 % 1020,6 hPa 0,0 l/m 10,2 km/h (2 Bft) O-NO 65 0 min 0,000 mm 0,0 UV-I 0 W/m 13,8 C 13,5 C 14,5 km/h (3 Bft) 97,87 %
25.08.2016 03:56 15,4 C 90 % 1020,6 hPa 0,0 l/m 8,9 km/h (2 Bft) O-NO 60 0 min 0,000 mm 0,0 UV-I 0 W/m 13,8 C 14,1 C 14,5 km/h (3 Bft) 100,00 %
25.08.2016 03:58 15,4 C 90 % 1020,6 hPa 0,0 l/m 7,4 km/h (2 Bft) NO 39 0 min 0,000 mm 0,0 UV-I 0 W/m 13,8 C 14,8 C 14,5 km/h (3 Bft) 100,00 %
25.08.2016 04:00 15,3 C 89 % 1020,6 hPa 0,0 l/m 6,7 km/h (2 Bft) N-NO 27 0 min 0,026 mm 0,0 UV-I 0 W/m 13,5 C 15,1 C 9,7 km/h (2 Bft) 100,00 %
25.08.2016 04:02 15,2 C 90 % 1020,6 hPa 0,0 l/m 6,9 km/h (2 Bft) NO 44 0 min 0,000 mm 0,0 UV-I 0 W/m 13,6 C 14,9 C 9,7 km/h (2 Bft) 96,88 %
25.08.2016 04:04 15,2 C 90 % 1020,5 hPa 0,0 l/m 6,1 km/h (2 Bft) NO 51 0 min 0,000 mm 0,0 UV-I 0 W/m 13,6 C 15,2 C 9,7 km/h (2 Bft) 96,00 %
25.08.2016 04:06 15,2 C 90 % 1020,6 hPa 0,0 l/m 8,3 km/h (2 Bft) NO 43 0 min 0,000 mm 0,0 UV-I 0 W/m 13,6 C 14,2 C 14,5 km/h (3 Bft) 97,37 %
25.08.2016 04:08 15,2 C 91 % 1020,5 hPa 0,0 l/m 9,7 km/h (2 Bft) O-NO 61 0 min 0,000 mm 0,0 UV-I 0 W/m 13,7 C 13,5 C 14,5 km/h (3 Bft) 94,00 %
25.08.2016 04:10 15,2 C 91 % 1020,5 hPa 0,0 l/m 7,3 km/h (2 Bft) NO 54 0 min 0,000 mm 0,0 UV-I 0 W/m 13,7 C 14,7 C 12,9 km/h (3 Bft) 97,87 %
25.08.2016 04:12 15,2 C 91 % 1020,5 hPa 0,0 l/m 6,2 km/h (2 Bft) O-NO 64 0 min 0,000 mm 0,0 UV-I 0 W/m 13,7 C 15,2 C 9,7 km/h (2 Bft) 95,83 %
25.08.2016 04:14 15,2 C 91 % 1020,4 hPa 0,0 l/m 8,0 km/h (2 Bft) NO 56 0 min 0,000 mm 0,0 UV-I 0 W/m 13,7 C 14,3 C 12,9 km/h (3 Bft) 97,87 %
25.08.2016 04:16 15,2 C 91 % 1020,4 hPa 0,0 l/m 7,1 km/h (2 Bft) O-NO 76 0 min 0,000 mm 0,0 UV-I 0 W/m 13,7 C 14,8 C 12,9 km/h (3 Bft) 96,00 %
25.08.2016 04:18 15,1 C 91 % 1020,4 hPa 0,0 l/m 8,1 km/h (2 Bft) O-NO 59 0 min 0,000 mm 0,0 UV-I 0 W/m 13,6 C 14,2 C 12,9 km/h (3 Bft) 97,87 %
25.08.2016 04:20 15,1 C 91 % 1020,4 hPa 0,0 l/m 7,8 km/h (2 Bft) O-NO 69 0 min 0,000 mm 0,0 UV-I 0 W/m 13,6 C 14,3 C 12,9 km/h (3 Bft) 95,74 %
25.08.2016 04:22 15,1 C 90 % 1020,4 hPa 0,0 l/m 7,1 km/h (2 Bft) O-NO 62 0 min 0,000 mm 0,0 UV-I 0 W/m 13,5 C 14,7 C 12,9 km/h (3 Bft) 97,44 %
25.08.2016 04:24 15,1 C 91 % 1020,4 hPa 0,0 l/m 9,2 km/h (2 Bft) O-NO 57 0 min 0,000 mm 0,0 UV-I 0 W/m 13,6 C 13,6 C 14,5 km/h (3 Bft) 95,74 %
25.08.2016 04:26 15,1 C 91 % 1020,3 hPa 0,0 l/m 9,1 km/h (2 Bft) NO 47 0 min 0,000 mm 0,0 UV-I 0 W/m 13,6 C 13,6 C 14,5 km/h (3 Bft) 97,92 %
25.08.2016 04:28 15,0 C 91 % 1020,3 hPa 0,0 l/m 8,5 km/h (2 Bft) O-NO 66 0 min 0,000 mm 0,0 UV-I 0 W/m 13,5 C 13,8 C 12,9 km/h (3 Bft) 97,87 %
25.08.2016 04:30 15,0 C 91 % 1020,4 hPa 0,0 l/m 8,8 km/h (2 Bft) NO 54 0 min 0,000 mm 0,0 UV-I 0 W/m 13,5 C 13,7 C 12,9 km/h (3 Bft) 95,74 %
25.08.2016 04:32 14,9 C 91 % 1020,4 hPa 0,0 l/m 7,4 km/h (2 Bft) O-NO 62 0 min 0,000 mm 0,0 UV-I 0 W/m 13,4 C 14,3 C 12,9 km/h (3 Bft) 97,87 %
25.08.2016 04:34 14,9 C 91 % 1020,3 hPa 0,0 l/m 6,9 km/h (2 Bft) O-NO 63 0 min 0,000 mm 0,0 UV-I 0 W/m 13,4 C 14,6 C 12,9 km/h (3 Bft) 97,87 %
25.08.2016 04:36 14,9 C 91 % 1020,3 hPa 0,0 l/m 7,6 km/h (2 Bft) O-NO 60 0 min 0,000 mm 0,0 UV-I 0 W/m 13,4 C 14,2 C 12,9 km/h (3 Bft) 96,00 %
25.08.2016 04:38 14,8 C 91 % 1020,3 hPa 0,0 l/m 6,5 km/h (2 Bft) O-NO 71 0 min 0,000 mm 0,0 UV-I 0 W/m 13,3 C 14,8 C 9,7 km/h (2 Bft) 97,87 %
25.08.2016 04:40 14,8 C 91 % 1020,3 hPa 0,0 l/m 7,5 km/h (2 Bft) NO 50 0 min 0,000 mm 0,0 UV-I 0 W/m 13,3 C 14,2 C 9,7 km/h (2 Bft) 100,00 %
25.08.2016 04:42 14,8 C 91 % 1020,3 hPa 0,0 l/m 9,9 km/h (2 Bft) O-NO 70 0 min 0,000 mm 0,0 UV-I 0 W/m 13,3 C 12,9 C 14,5 km/h (3 Bft) 95,74 %
25.08.2016 04:44 14,8 C 92 % 1020,4 hPa 0,0 l/m 11,3 km/h (2 Bft) O-NO 58 0 min 0,000 mm 0,0 UV-I 0 W/m 13,5 C 12,3 C 16,1 km/h (3 Bft) 100,00 %
25.08.2016 04:46 14,8 C 92 % 1020,4 hPa 0,0 l/m 10,0 km/h (2 Bft) O-NO 73 0 min 0,000 mm 0,0 UV-I 0 W/m 13,5 C 12,9 C 16,1 km/h (3 Bft) 100,00 %
25.08.2016 04:48 14,8 C 91 % 1020,4 hPa 0,0 l/m 9,3 km/h (2 Bft) O-NO 57 0 min 0,000 mm 0,0 UV-I 0 W/m 13,3 C 13,2 C 12,9 km/h (3 Bft) 97,87 %
25.08.2016 04:50 14,8 C 91 % 1020,4 hPa 0,0 l/m 10,6 km/h (2 Bft) O-NO 69 0 min 0,000 mm 0,0 UV-I 0 W/m 13,3 C 12,6 C 14,5 km/h (3 Bft) 95,74 %
25.08.2016 04:52 14,8 C 91 % 1020,3 hPa 0,0 l/m 11,2 km/h (2 Bft) O-NO 67 0 min 0,000 mm 0,0 UV-I 0 W/m 13,3 C 12,4 C 17,7 km/h (3 Bft) 100,00 %
25.08.2016 04:54 14,8 C 91 % 1020,4 hPa 0,0 l/m 9,4 km/h (2 Bft) NO 55 0 min 0,000 mm 0,0 UV-I 0 W/m 13,3 C 13,2 C 14,5 km/h (3 Bft) 97,96 %
25.08.2016 04:56 14,8 C 91 % 1020,3 hPa 0,0 l/m 9,6 km/h (2 Bft) O-NO 57 0 min 0,000 mm 0,0 UV-I 0 W/m 13,3 C 13,1 C 14,5 km/h (3 Bft) 98,00 %
25.08.2016 04:58 14,8 C 91 % 1020,3 hPa 0,0 l/m 10,3 km/h (2 Bft) NO 55 0 min 0,000 mm 0,0 UV-I 0 W/m 13,3 C 12,8 C 14,5 km/h (3 Bft) 97,87 %
25.08.2016 05:00 14,8 C 91 % 1020,3 hPa 0,0 l/m 11,7 km/h (2 Bft) O-NO 63 0 min 0,000 mm 0,0 UV-I 0 W/m 13,3 C 12,2 C 16,1 km/h (3 Bft) 100,00 %
25.08.2016 05:02 14,8 C 91 % 1020,4 hPa 0,0 l/m 11,3 km/h (2 Bft) O-NO 65 0 min 0,000 mm 0,0 UV-I 0 W/m 13,3 C 12,3 C 14,5 km/h (3 Bft) 100,00 %
25.08.2016 05:04 14,8 C 91 % 1020,3 hPa 0,0 l/m 11,0 km/h (2 Bft) O-NO 64 0 min 0,000 mm 0,0 UV-I 0 W/m 13,3 C 12,5 C 16,1 km/h (3 Bft) 100,00 %
25.08.2016 05:06 14,7 C 91 % 1020,3 hPa 0,0 l/m 10,6 km/h (2 Bft) O-NO 61 0 min 0,000 mm 0,0 UV-I 0 W/m 13,2 C 12,5 C 16,1 km/h (3 Bft) 97,37 %
25.08.2016 05:08 14,7 C 91 % 1020,3 hPa 0,0 l/m 10,9 km/h (2 Bft) NO 53 0 min 0,000 mm 0,0 UV-I 0 W/m 13,2 C 12,4 C 16,1 km/h (3 Bft) 100,00 %
25.08.2016 05:10 14,7 C 91 % 1020,2 hPa 0,0 l/m 10,7 km/h (2 Bft) NO 56 0 min 0,000 mm 0,0 UV-I 0 W/m 13,2 C 12,5 C 14,5 km/h (3 Bft) 100,00 %
25.08.2016 05:12 14,7 C 91 % 1020,2 hPa 0,0 l/m 10,4 km/h (2 Bft) NO 50 0 min 0,000 mm 0,0 UV-I 0 W/m 13,2 C 12,6 C 14,5 km/h (3 Bft) 95,74 %
25.08.2016 05:14 14,7 C 91 % 1020,2 hPa 0,0 l/m 11,8 km/h (2 Bft) O 86 0 min 0,000 mm 0,0 UV-I 0 W/m 13,2 C 12,0 C 16,1 km/h (3 Bft) 97,87 %
25.08.2016 05:16 14,7 C 91 % 1020,2 hPa 0,0 l/m 14,1 km/h (3 Bft) O-NO 61 0 min 0,000 mm 0,0 UV-I 0 W/m 13,2 C 11,1 C 19,3 km/h (3 Bft) 100,00 %
25.08.2016 05:18 14,7 C 91 % 1020,2 hPa 0,0 l/m 13,6 km/h (3 Bft) O-NO 75 0 min 0,000 mm 0,0 UV-I 0 W/m 13,2 C 11,3 C 19,3 km/h (3 Bft) 97,87 %
25.08.2016 05:20 14,7 C 91 % 1020,2 hPa 0,0 l/m 13,6 km/h (3 Bft) O-NO 57 0 min 0,000 mm 0,0 UV-I 0 W/m 13,2 C 11,3 C 17,7 km/h (3 Bft) 98,11 %
25.08.2016 05:22 14,7 C 91 % 1020,2 hPa 0,0 l/m 10,6 km/h (2 Bft) NO 50 0 min 0,000 mm 0,0 UV-I 0 W/m 13,2 C 12,5 C 17,7 km/h (3 Bft) 100,00 %
25.08.2016 05:24 14,7 C 91 % 1020,3 hPa 0,0 l/m 12,1 km/h (2 Bft) O-NO 60 0 min 0,000 mm 0,0 UV-I 0 W/m 13,2 C 11,9 C 16,1 km/h (3 Bft) 100,00 %
25.08.2016 05:26 14,7 C 92 % 1020,2 hPa 0,0 l/m 10,9 km/h (2 Bft) O-NO 69 0 min 0,000 mm 0,0 UV-I 0 W/m 13,4 C 12,4 C 14,5 km/h (3 Bft) 100,00 %
25.08.2016 05:28 14,7 C 92 % 1020,2 hPa 0,0 l/m 10,5 km/h (2 Bft) O-NO 69 0 min 0,000 mm 0,0 UV-I 0 W/m 13,4 C 12,6 C 16,1 km/h (3 Bft) 100,00 %
25.08.2016 05:30 14,7 C 92 % 1020,2 hPa 0,0 l/m 10,0 km/h (2 Bft) O-NO 67 0 min 0,000 mm 0,0 UV-I 0 W/m 13,4 C 12,8 C 14,5 km/h (3 Bft) 97,87 %
25.08.2016 05:32 14,6 C 92 % 1020,2 hPa 0,0 l/m 9,5 km/h (2 Bft) O-NO 60 0 min 0,000 mm 0,0 UV-I 0 W/m 13,3 C 12,9 C 16,1 km/h (3 Bft) 100,00 %
25.08.2016 05:34 14,6 C 92 % 1020,2 hPa 0,0 l/m 10,2 km/h (2 Bft) O-NO 61 0 min 0,000 mm 0,0 UV-I 0 W/m 13,3 C 12,6 C 17,7 km/h (3 Bft) 100,00 %
25.08.2016 05:36 14,7 C 92 % 1020,2 hPa 0,0 l/m 9,6 km/h (2 Bft) O-NO 67 0 min 0,000 mm 0,0 UV-I 0 W/m 13,4 C 13,0 C 14,5 km/h (3 Bft) 100,00 %
25.08.2016 05:38 14,7 C 92 % 1020,2 hPa 0,0 l/m 9,3 km/h (2 Bft) O-NO 63 0 min 0,000 mm 0,0 UV-I 0 W/m 13,4 C 13,1 C 14,5 km/h (3 Bft) 100,00 %
25.08.2016 05:40 14,7 C 91 % 1020,1 hPa 0,0 l/m 10,4 km/h (2 Bft) NO 53 0 min 0,000 mm 0,0 UV-I 0 W/m 13,2 C 12,6 C 16,1 km/h (3 Bft) 100,00 %
25.08.2016 05:42 14,7 C 91 % 1020,1 hPa 0,0 l/m 11,0 km/h (2 Bft) NO 55 0 min 0,000 mm 0,0 UV-I 0 W/m 13,2 C 12,3 C 16,1 km/h (3 Bft) 97,87 %
25.08.2016 05:44 14,7 C 91 % 1020,1 hPa 0,0 l/m 11,2 km/h (2 Bft) NO 52 0 min 0,000 mm 0,0 UV-I 0 W/m 13,2 C 12,3 C 16,1 km/h (3 Bft) 100,00 %
25.08.2016 05:46 14,7 C 91 % 1020,2 hPa 0,0 l/m 10,9 km/h (2 Bft) NO 53 0 min 0,000 mm 0,0 UV-I 0 W/m 13,2 C 12,4 C 14,5 km/h (3 Bft) 100,00 %
25.08.2016 05:48 14,7 C 91 % 1020,2 hPa 0,0 l/m 10,7 km/h (2 Bft) NO 55 0 min 0,000 mm 0,0 UV-I 0 W/m 13,2 C 12,5 C 16,1 km/h (3 Bft) 97,87 %
25.08.2016 05:50 14,6 C 91 % 1020,1 hPa 0,0 l/m 11,8 km/h (2 Bft) NO 47 0 min 0,000 mm 0,0 UV-I 0 W/m 13,1 C 11,9 C 16,1 km/h (3 Bft) 97,87 %
25.08.2016 05:52 14,6 C 91 % 1020,2 hPa 0,0 l/m 11,7 km/h (2 Bft) NO 35 0 min 0,000 mm 0,0 UV-I 0 W/m 13,1 C 11,9 C 17,7 km/h (3 Bft) 100,00 %
25.08.2016 05:54 14,6 C 91 % 1020,2 hPa 0,0 l/m 11,8 km/h (2 Bft) O-NO 57 0 min 0,000 mm 0,0 UV-I 0 W/m 13,1 C 11,9 C 17,7 km/h (3 Bft) 100,00 %
25.08.2016 05:56 14,6 C 91 % 1020,2 hPa 0,0 l/m 12,9 km/h (3 Bft) O-NO 63 0 min 0,000 mm 0,0 UV-I 0 W/m 13,1 C 11,5 C 17,7 km/h (3 Bft) 100,00 %
25.08.2016 05:58 14,6 C 91 % 1020,2 hPa 0,0 l/m 11,4 km/h (2 Bft) O-NO 70 0 min 0,000 mm 0,0 UV-I 0 W/m 13,1 C 12,1 C 16,1 km/h (3 Bft) 100,00 %
25.08.2016 06:00 14,6 C 91 % 1020,3 hPa 0,0 l/m 10,6 km/h (2 Bft) O-NO 60 0 min 0,025 mm 0,0 UV-I 0 W/m 13,1 C 12,4 C 16,1 km/h (3 Bft) 100,00 %
25.08.2016 06:02 14,6 C 91 % 1020,2 hPa 0,0 l/m 10,7 km/h (2 Bft) NO 42 0 min 0,000 mm 0,0 UV-I 0 W/m 13,1 C 12,4 C 16,1 km/h (3 Bft) 95,74 %
25.08.2016 06:04 14,5 C 91 % 1020,3 hPa 0,0 l/m 11,5 km/h (2 Bft) NO 44 0 min 0,000 mm 0,0 UV-I 0 W/m 13,0 C 11,9 C 16,1 km/h (3 Bft) 98,00 %
25.08.2016 06:06 14,5 C 91 % 1020,2 hPa 0,0 l/m 11,1 km/h (2 Bft) NO 52 0 min 0,000 mm 0,0 UV-I 0 W/m 13,0 C 12,1 C 16,1 km/h (3 Bft) 95,74 %
25.08.2016 06:08 14,4 C 91 % 1020,2 hPa 0,0 l/m 10,1 km/h (2 Bft) O-NO 65 0 min 0,000 mm 0,0 UV-I 0 W/m 12,9 C 12,4 C 14,5 km/h (3 Bft) 97,87 %
25.08.2016 06:10 14,4 C 91 % 1020,2 hPa 0,0 l/m 9,3 km/h (2 Bft) O-NO 78 0 min 0,000 mm 0,0 UV-I 4 W/m 12,9 C 12,8 C 14,5 km/h (3 Bft) 95,74 %
25.08.2016 06:12 14,4 C 92 % 1020,2 hPa 0,0 l/m 10,5 km/h (2 Bft) O-NO 57 0 min 0,000 mm 0,0 UV-I 5 W/m 13,1 C 12,2 C 16,1 km/h (3 Bft) 97,22 %
25.08.2016 06:14 14,3 C 92 % 1020,3 hPa 0,0 l/m 10,3 km/h (2 Bft) O-NO 74 0 min 0,000 mm 0,0 UV-I 5 W/m 13,0 C 12,2 C 16,1 km/h (3 Bft) 98,00 %
25.08.2016 06:16 14,3 C 92 % 1020,2 hPa 0,0 l/m 10,6 km/h (2 Bft) O-NO 69 0 min 0,000 mm 0,0 UV-I 6 W/m 13,0 C 12,1 C 14,5 km/h (3 Bft) 97,87 %
25.08.2016 06:18 14,3 C 92 % 1020,2 hPa 0,0 l/m 7,9 km/h (2 Bft) O-NO 61 0 min 0,000 mm 0,0 UV-I 7 W/m 13,0 C 13,4 C 11,3 km/h (2 Bft) 98,00 %
25.08.2016 06:20 14,3 C 92 % 1020,2 hPa 0,0 l/m 7,2 km/h (2 Bft) O-NO 74 0 min 0,000 mm 0,0 UV-I 7 W/m 13,0 C 13,8 C 11,3 km/h (2 Bft) 96,00 %
25.08.2016 06:22 14,2 C 92 % 1020,2 hPa 0,0 l/m 8,2 km/h (2 Bft) O-NO 59 0 min 0,000 mm 0,0 UV-I 9 W/m 12,9 C 13,2 C 12,9 km/h (3 Bft) 97,87 %
25.08.2016 06:24 14,2 C 92 % 1020,3 hPa 0,0 l/m 9,3 km/h (2 Bft) NO 50 0 min 0,000 mm 0,0 UV-I 10 W/m 12,9 C 12,6 C 14,5 km/h (3 Bft) 97,87 %
25.08.2016 06:26 14,2 C 92 % 1020,2 hPa 0,0 l/m 8,8 km/h (2 Bft) NO 52 0 min 0,000 mm 0,0 UV-I 11 W/m 12,9 C 12,8 C 14,5 km/h (3 Bft) 95,74 %
25.08.2016 06:28 14,2 C 92 % 1020,2 hPa 0,0 l/m 11,3 km/h (2 Bft) O-NO 73 0 min 0,000 mm 0,0 UV-I 11 W/m 12,9 C 11,6 C 14,5 km/h (3 Bft) 95,74 %
25.08.2016 06:30 14,2 C 92 % 1020,3 hPa 0,0 l/m 12,4 km/h (3 Bft) O-NO 59 0 min 0,000 mm 0,0 UV-I 12 W/m 12,9 C 11,2 C 16,1 km/h (3 Bft) 97,87 %
25.08.2016 06:32 14,2 C 92 % 1020,3 hPa 0,0 l/m 10,8 km/h (2 Bft) NO 49 0 min 0,000 mm 0,0 UV-I 13 W/m 12,9 C 11,9 C 14,5 km/h (3 Bft) 97,37 %
25.08.2016 06:34 14,3 C 92 % 1020,3 hPa 0,0 l/m 10,9 km/h (2 Bft) O-NO 59 0 min 0,000 mm 0,0 UV-I 14 W/m 13,0 C 11,9 C 16,1 km/h (3 Bft) 98,00 %
25.08.2016 06:36 14,3 C 92 % 1020,3 hPa 0,0 l/m 9,4 km/h (2 Bft) NO 53 0 min 0,000 mm 0,0 UV-I 14 W/m 13,0 C 12,6 C 14,5 km/h (3 Bft) 97,87 %
25.08.2016 06:38 14,3 C 92 % 1020,3 hPa 0,0 l/m 8,2 km/h (2 Bft) O-NO 57 0 min 0,000 mm 0,0 UV-I 16 W/m 13,0 C 13,3 C 11,3 km/h (2 Bft) 93,62 %
25.08.2016 06:40 14,3 C 92 % 1020,3 hPa 0,0 l/m 10,4 km/h (2 Bft) O-NO 59 0 min 0,000 mm 0,0 UV-I 16 W/m 13,0 C 12,2 C 14,5 km/h (3 Bft) 100,00 %
25.08.2016 06:42 14,3 C 92 % 1020,4 hPa 0,0 l/m 8,6 km/h (2 Bft) O-NO 70 0 min 0,000 mm 0,0 UV-I 18 W/m 13,0 C 13,0 C 12,9 km/h (3 Bft) 97,87 %
25.08.2016 06:44 14,3 C 92 % 1020,3 hPa 0,0 l/m 8,6 km/h (2 Bft) NO 46 0 min 0,000 mm 0,0 UV-I 18 W/m 13,0 C 13,0 C 12,9 km/h (3 Bft) 100,00 %
25.08.2016 06:46 14,3 C 92 % 1020,3 hPa 0,0 l/m 10,1 km/h (2 Bft) O-NO 65 0 min 0,000 mm 0,0 UV-I 19 W/m 13,0 C 12,3 C 14,5 km/h (3 Bft) 100,00 %
25.08.2016 06:48 14,3 C 92 % 1020,3 hPa 0,0 l/m 9,8 km/h (2 Bft) O-NO 61 0 min 0,000 mm 0,0 UV-I 19 W/m 13,0 C 12,4 C 14,5 km/h (3 Bft) 97,87 %
25.08.2016 06:50 14,4 C 92 % 1020,3 hPa 0,0 l/m 10,3 km/h (2 Bft) O-NO 69 0 min 0,000 mm 0,0 UV-I 20 W/m 13,1 C 12,3 C 14,5 km/h (3 Bft) 98,00 %
25.08.2016 06:52 14,4 C 92 % 1020,3 hPa 0,0 l/m 9,8 km/h (2 Bft) O-NO 68 0 min 0,000 mm 0,0 UV-I 21 W/m 13,1 C 12,5 C 14,5 km/h (3 Bft) 97,87 %
25.08.2016 06:54 14,4 C 92 % 1020,3 hPa 0,0 l/m 8,8 km/h (2 Bft) O-NO 65 0 min 0,000 mm 0,0 UV-I 21 W/m 13,1 C 13,0 C 12,9 km/h (3 Bft) 100,00 %
25.08.2016 06:56 14,4 C 92 % 1020,4 hPa 0,0 l/m 9,9 km/h (2 Bft) O-NO 69 0 min 0,000 mm 0,0 UV-I 22 W/m 13,1 C 12,5 C 14,5 km/h (3 Bft) 100,00 %
25.08.2016 06:58 14,5 C 92 % 1020,4 hPa 0,0 l/m 9,3 km/h (2 Bft) NO 41 0 min 0,000 mm 0,0 UV-I 23 W/m 13,2 C 12,9 C 14,5 km/h (3 Bft) 97,92 %
25.08.2016 07:00 14,5 C 92 % 1020,4 hPa 0,0 l/m 9,6 km/h (2 Bft) NO 54 0 min 0,025 mm 0,0 UV-I 23 W/m 13,2 C 12,8 C 16,1 km/h (3 Bft) 97,87 %
25.08.2016 07:02 14,6 C 92 % 1020,4 hPa 0,0 l/m 8,6 km/h (2 Bft) NO 56 0 min 0,000 mm 0,0 UV-I 25 W/m 13,3 C 13,4 C 12,9 km/h (3 Bft) 97,37 %
25.08.2016 07:04 14,6 C 92 % 1020,4 hPa 0,0 l/m 9,0 km/h (2 Bft) NO 56 0 min 0,000 mm 0,0 UV-I 25 W/m 13,3 C 13,2 C 14,5 km/h (3 Bft) 97,87 %
25.08.2016 07:06 14,6 C 92 % 1020,4 hPa 0,0 l/m 9,7 km/h (2 Bft) O-NO 70 0 min 0,000 mm 0,0 UV-I 25 W/m 13,3 C 12,8 C 14,5 km/h (3 Bft) 97,87 %
25.08.2016 07:08 14,6 C 92 % 1020,5 hPa 0,0 l/m 10,1 km/h (2 Bft) NO 41 0 min 0,000 mm 0,0 UV-I 26 W/m 13,3 C 12,6 C 16,1 km/h (3 Bft) 100,00 %
25.08.2016 07:10 14,7 C 91 % 1020,4 hPa 0,0 l/m 8,7 km/h (2 Bft) NO 40 0 min 0,000 mm 0,0 UV-I 28 W/m 13,2 C 13,4 C 12,9 km/h (3 Bft) 100,00 %
25.08.2016 07:12 14,7 C 91 % 1020,4 hPa 0,0 l/m 11,8 km/h (2 Bft) O-NO 71 0 min 0,000 mm 0,0 UV-I 58 W/m 13,2 C 12,0 C 17,7 km/h (3 Bft) 98,00 %
25.08.2016 07:14 14,8 C 91 % 1020,4 hPa 0,0 l/m 10,0 km/h (2 Bft) NO 56 0 min 0,000 mm 0,0 UV-I 86 W/m 13,3 C 12,9 C 14,5 km/h (3 Bft) 100,00 %
25.08.2016 07:16 14,8 C 91 % 1020,4 hPa 0,0 l/m 8,4 km/h (2 Bft) NO 53 2 min 0,000 mm 0,0 UV-I 92 W/m 13,3 C 13,7 C 11,3 km/h (2 Bft) 100,00 %
25.08.2016 07:18 14,9 C 91 % 1020,4 hPa 0,0 l/m 7,7 km/h (2 Bft) O-NO 61 2 min 0,000 mm 0,0 UV-I 96 W/m 13,4 C 14,2 C 11,3 km/h (2 Bft) 97,87 %
25.08.2016 07:20 14,9 C 91 % 1020,4 hPa 0,0 l/m 7,6 km/h (2 Bft) NO 53 2 min 0,000 mm 0,0 UV-I 101 W/m 13,4 C 14,2 C 12,9 km/h (3 Bft) 100,00 %
25.08.2016 07:22 15,0 C 90 % 1020,4 hPa 0,0 l/m 9,5 km/h (2 Bft) NO 47 2 min 0,000 mm 0,0 UV-I 106 W/m 13,4 C 13,3 C 16,1 km/h (3 Bft) 95,74 %
25.08.2016 07:24 15,1 C 90 % 1020,4 hPa 0,0 l/m 7,4 km/h (2 Bft) NO 52 2 min 0,000 mm 0,0 UV-I 112 W/m 13,5 C 14,5 C 11,3 km/h (2 Bft) 95,74 %
25.08.2016 07:26 15,2 C 90 % 1020,4 hPa 0,0 l/m 8,5 km/h (2 Bft) O-NO 62 2 min 0,000 mm 0,0 UV-I 116 W/m 13,6 C 14,1 C 16,1 km/h (3 Bft) 97,87 %
25.08.2016 07:28 15,2 C 90 % 1020,4 hPa 0,0 l/m 6,7 km/h (2 Bft) NO 47 2 min 0,000 mm 0,0 UV-I 122 W/m 13,6 C 15,0 C 12,9 km/h (3 Bft) 100,00 %
25.08.2016 07:30 15,3 C 90 % 1020,4 hPa 0,0 l/m 7,4 km/h (2 Bft) O-NO 68 2 min 0,000 mm 0,0 UV-I 127 W/m 13,7 C 14,7 C 12,9 km/h (3 Bft) 100,00 %
25.08.2016 07:32 15,3 C 89 % 1020,4 hPa 0,0 l/m 5,7 km/h (1 Bft) O-NO 59 2 min 0,000 mm 0,0 UV-I 132 W/m 13,5 C 15,3 C 8,0 km/h (2 Bft) 98,00 %
25.08.2016 07:34 15,4 C 89 % 1020,4 hPa 0,0 l/m 6,2 km/h (2 Bft) O-NO 62 2 min 0,000 mm 0,0 UV-I 135 W/m 13,6 C 15,4 C 8,0 km/h (2 Bft) 100,00 %
25.08.2016 07:36 15,5 C 89 % 1020,4 hPa 0,0 l/m 8,7 km/h (2 Bft) NO 51 2 min 0,000 mm 0,0 UV-I 135 W/m 13,7 C 14,3 C 14,5 km/h (3 Bft) 100,00 %
25.08.2016 07:38 15,6 C 89 % 1020,4 hPa 0,0 l/m 9,7 km/h (2 Bft) O-NO 63 2 min 0,000 mm 0,0 UV-I 137 W/m 13,8 C 13,9 C 14,5 km/h (3 Bft) 100,00 %
25.08.2016 07:40 15,6 C 89 % 1020,3 hPa 0,0 l/m 6,7 km/h (2 Bft) O-NO 76 2 min 0,000 mm 0,0 UV-I 137 W/m 13,8 C 15,4 C 14,5 km/h (3 Bft) 97,87 %
25.08.2016 07:42 15,7 C 88 % 1020,4 hPa 0,0 l/m 8,6 km/h (2 Bft) NO 50 2 min 0,000 mm 0,0 UV-I 138 W/m 13,7 C 14,5 C 14,5 km/h (3 Bft) 100,00 %
25.08.2016 07:44 15,7 C 88 % 1020,3 hPa 0,0 l/m 6,8 km/h (2 Bft) NO 55 2 min 0,000 mm 0,0 UV-I 140 W/m 13,7 C 15,5 C 11,3 km/h (2 Bft) 100,00 %
25.08.2016 07:46 15,8 C 88 % 1020,3 hPa 0,0 l/m 9,2 km/h (2 Bft) NO 51 2 min 0,000 mm 0,0 UV-I 143 W/m 13,8 C 14,4 C 16,1 km/h (3 Bft) 100,00 %
25.08.2016 07:48 15,8 C 88 % 1020,3 hPa 0,0 l/m 10,8 km/h (2 Bft) O-NO 65 2 min 0,000 mm 0,0 UV-I 150 W/m 13,8 C 13,7 C 16,1 km/h (3 Bft) 100,00 %
25.08.2016 07:50 15,8 C 88 % 1020,3 hPa 0,0 l/m 9,4 km/h (2 Bft) NO 44 2 min 0,000 mm 0,0 UV-I 159 W/m 13,8 C 14,3 C 14,5 km/h (3 Bft) 100,00 %
25.08.2016 07:52 15,9 C 88 % 1020,3 hPa 0,0 l/m 9,7 km/h (2 Bft) O-NO 71 2 min 0,000 mm 0,0 UV-I 170 W/m 13,9 C 14,2 C 14,5 km/h (3 Bft) 100,00 %
25.08.2016 07:54 16,0 C 88 % 1020,3 hPa 0,0 l/m 10,5 km/h (2 Bft) O-NO 69 2 min 0,000 mm 0,0 UV-I 183 W/m 14,0 C 14,0 C 16,1 km/h (3 Bft) 100,00 %
25.08.2016 07:56 16,1 C 88 % 1020,4 hPa 0,0 l/m 9,8 km/h (2 Bft) O 81 2 min 0,000 mm 0,4 UV-I 193 W/m 14,1 C 14,4 C 16,1 km/h (3 Bft) 100,00 %
25.08.2016 07:58 16,1 C 87 % 1020,3 hPa 0,0 l/m 11,2 km/h (2 Bft) O-NO 63 2 min 0,000 mm 0,5 UV-I 205 W/m 13,9 C 13,8 C 17,7 km/h (3 Bft) 100,00 %
25.08.2016 08:00 16,2 C 87 % 1020,4 hPa 0,0 l/m 12,0 km/h (2 Bft) O-NO 71 2 min 0,077 mm 0,5 UV-I 214 W/m 14,0 C 13,7 C 16,1 km/h (3 Bft) 97,87 %
25.08.2016 08:02 16,3 C 87 % 1020,3 hPa 0,0 l/m 11,1 km/h (2 Bft) O-NO 63 2 min 0,000 mm 0,5 UV-I 221 W/m 14,1 C 14,1 C 16,1 km/h (3 Bft) 95,83 %
25.08.2016 08:04 16,3 C 87 % 1020,3 hPa 0,0 l/m 13,1 km/h (3 Bft) O-NO 75 2 min 0,000 mm 0,5 UV-I 227 W/m 14,1 C 13,4 C 19,3 km/h (3 Bft) 96,00 %
25.08.2016 08:06 16,3 C 86 % 1020,3 hPa 0,0 l/m 12,5 km/h (3 Bft) O-NO 64 2 min 0,000 mm 0,6 UV-I 232 W/m 14,0 C 13,6 C 17,7 km/h (3 Bft) 97,87 %
25.08.2016 08:08 16,4 C 86 % 1020,3 hPa 0,0 l/m 9,7 km/h (2 Bft) O-NO 57 2 min 0,000 mm 0,6 UV-I 236 W/m 14,1 C 14,8 C 14,5 km/h (3 Bft) 97,87 %
25.08.2016 08:10 16,4 C 86 % 1020,3 hPa 0,0 l/m 9,9 km/h (2 Bft) O-NO 66 2 min 0,000 mm 0,6 UV-I 238 W/m 14,1 C 14,7 C 16,1 km/h (3 Bft) 97,87 %
25.08.2016 08:12 16,5 C 86 % 1020,3 hPa 0,0 l/m 9,1 km/h (2 Bft) O-NO 74 2 min 0,000 mm 0,6 UV-I 240 W/m 14,1 C 15,2 C 14,5 km/h (3 Bft) 97,87 %
25.08.2016 08:14 16,6 C 86 % 1020,3 hPa 0,0 l/m 9,4 km/h (2 Bft) O-NO 67 2 min 0,000 mm 0,7 UV-I 241 W/m 14,2 C 15,1 C 17,7 km/h (3 Bft) 97,87 %
25.08.2016 08:16 16,7 C 85 % 1020,3 hPa 0,0 l/m 12,3 km/h (3 Bft) O-NO 73 2 min 0,000 mm 0,7 UV-I 240 W/m 14,2 C 14,1 C 19,3 km/h (3 Bft) 97,44 %
25.08.2016 08:18 16,8 C 84 % 1020,3 hPa 0,0 l/m 13,8 km/h (3 Bft) O-NO 68 2 min 0,000 mm 0,7 UV-I 237 W/m 14,1 C 13,7 C 17,7 km/h (3 Bft) 97,87 %
25.08.2016 08:20 16,9 C 84 % 1020,3 hPa 0,0 l/m 13,7 km/h (3 Bft) O-NO 78 2 min 0,000 mm 0,7 UV-I 236 W/m 14,2 C 13,9 C 19,3 km/h (3 Bft) 97,87 %
25.08.2016 08:22 16,9 C 83 % 1020,3 hPa 0,0 l/m 12,8 km/h (3 Bft) O-NO 78 2 min 0,000 mm 0,7 UV-I 236 W/m 14,0 C 14,2 C 17,7 km/h (3 Bft) 91,49 %
25.08.2016 08:24 17,0 C 83 % 1020,4 hPa 0,0 l/m 11,7 km/h (2 Bft) O-NO 67 2 min 0,000 mm 0,8 UV-I 236 W/m 14,1 C 14,7 C 19,3 km/h (3 Bft) 95,74 %
25.08.2016 08:26 17,1 C 83 % 1020,3 hPa 0,0 l/m 10,9 km/h (2 Bft) O-NO 58 2 min 0,000 mm 0,8 UV-I 238 W/m 14,2 C 15,1 C 16,1 km/h (3 Bft) 97,87 %
25.08.2016 08:28 17,2 C 83 % 1020,3 hPa 0,0 l/m 11,7 km/h (2 Bft) NO 51 2 min 0,000 mm 0,9 UV-I 243 W/m 14,3 C 14,9 C 16,1 km/h (3 Bft) 95,92 %
25.08.2016 08:30 17,2 C 83 % 1020,3 hPa 0,0 l/m 12,4 km/h (3 Bft) O-NO 64 2 min 0,000 mm 0,9 UV-I 240 W/m 14,3 C 14,7 C 19,3 km/h (3 Bft) 97,87 %
25.08.2016 08:32 17,3 C 82 % 1020,2 hPa 0,0 l/m 14,8 km/h (3 Bft) NO 49 2 min 0,000 mm 0,9 UV-I 233 W/m 14,2 C 14,0 C 20,9 km/h (4 Bft) 100,00 %
25.08.2016 08:34 17,3 C 82 % 1020,2 hPa 0,0 l/m 18,4 km/h (3 Bft) O-NO 65 2 min 0,000 mm 0,9 UV-I 226 W/m 14,2 C 13,1 C 27,4 km/h (4 Bft) 100,00 %
25.08.2016 08:36 17,3 C 81 % 1020,2 hPa 0,0 l/m 20,0 km/h (4 Bft) O-NO 63 2 min 0,000 mm 1,0 UV-I 221 W/m 14,0 C 12,7 C 25,7 km/h (4 Bft) 97,87 %
25.08.2016 08:38 17,3 C 81 % 1020,1 hPa 0,0 l/m 14,8 km/h (3 Bft) O-NO 61 2 min 0,000 mm 1,0 UV-I 221 W/m 14,0 C 14,0 C 30,6 km/h (5 Bft) 100,00 %
25.08.2016 08:40 17,4 C 82 % 1020,2 hPa 0,0 l/m 15,5 km/h (3 Bft) N-NO 18 2 min 0,000 mm 1,0 UV-I 225 W/m 14,3 C 14,0 C 24,1 km/h (4 Bft) 100,00 %
25.08.2016 08:42 17,5 C 81 % 1020,2 hPa 0,0 l/m 16,9 km/h (3 Bft) NO 55 2 min 0,000 mm 1,1 UV-I 233 W/m 14,2 C 13,7 C 24,1 km/h (4 Bft) 100,00 %
25.08.2016 08:44 17,6 C 81 % 1020,3 hPa 0,0 l/m 18,0 km/h (3 Bft) O-NO 63 2 min 0,000 mm 1,1 UV-I 250 W/m 14,3 C 13,6 C 24,1 km/h (4 Bft) 100,00 %
25.08.2016 08:46 17,6 C 81 % 1020,2 hPa 0,0 l/m 13,9 km/h (3 Bft) NO 53 2 min 0,000 mm 1,1 UV-I 270 W/m 14,3 C 14,7 C 17,7 km/h (3 Bft) 100,00 %
25.08.2016 08:48 17,7 C 81 % 1020,3 hPa 0,0 l/m 15,0 km/h (3 Bft) NO 53 2 min 0,000 mm 1,2 UV-I 290 W/m 14,4 C 14,5 C 22,5 km/h (4 Bft) 100,00 %
25.08.2016 08:50 17,8 C 81 % 1020,3 hPa 0,0 l/m 12,1 km/h (2 Bft) O-NO 61 2 min 0,000 mm 1,2 UV-I 308 W/m 14,5 C 15,5 C 16,1 km/h (3 Bft) 100,00 %
25.08.2016 08:52 17,8 C 80 % 1020,3 hPa 0,0 l/m 17,4 km/h (3 Bft) O-NO 76 2 min 0,000 mm 1,2 UV-I 325 W/m 14,3 C 14,0 C 22,5 km/h (4 Bft) 100,00 %
25.08.2016 08:54 17,9 C 80 % 1020,2 hPa 0,0 l/m 13,5 km/h (3 Bft) O-NO 73 2 min 0,000 mm 1,3 UV-I 339 W/m 14,4 C 15,1 C 20,9 km/h (4 Bft) 97,87 %
25.08.2016 08:56 17,9 C 80 % 1020,3 hPa 0,0 l/m 17,3 km/h (3 Bft) NO 55 2 min 0,000 mm 1,3 UV-I 349 W/m 14,4 C 14,1 C 24,1 km/h (4 Bft) 100,00 %
25.08.2016 08:58 17,9 C 80 % 1020,2 hPa 0,0 l/m 17,8 km/h (3 Bft) N-NO 25 2 min 0,000 mm 1,3 UV-I 360 W/m 14,4 C 14,0 C 22,5 km/h (4 Bft) 100,00 %
25.08.2016 09:00 18,0 C 79 % 1020,3 hPa 0,0 l/m 16,6 km/h (3 Bft) NO 52 2 min 0,177 mm 1,4 UV-I 372 W/m 14,3 C 14,4 C 24,1 km/h (4 Bft) 100,00 %
25.08.2016 09:02 18,1 C 79 % 1020,2 hPa 0,0 l/m 14,9 km/h (3 Bft) O-NO 61 2 min 0,000 mm 1,4 UV-I 383 W/m 14,4 C 15,0 C 24,1 km/h (4 Bft) 100,00 %
25.08.2016 09:04 18,2 C 79 % 1020,2 hPa 0,0 l/m 16,5 km/h (3 Bft) O-NO 61 2 min 0,000 mm 1,4 UV-I 393 W/m 14,5 C 14,7 C 24,1 km/h (4 Bft) 97,87 %
25.08.2016 09:06 18,2 C 78 % 1020,3 hPa 0,0 l/m 18,9 km/h (3 Bft) O 85 2 min 0,000 mm 1,5 UV-I 400 W/m 14,3 C 14,1 C 24,1 km/h (4 Bft) 100,00 %
25.08.2016 09:08 18,2 C 77 % 1020,2 hPa 0,0 l/m 18,7 km/h (3 Bft) NO 45 2 min 0,000 mm 1,5 UV-I 406 W/m 14,1 C 14,2 C 29,0 km/h (5 Bft) 97,87 %
25.08.2016 09:10 18,3 C 78 % 1020,2 hPa 0,0 l/m 19,8 km/h (3 Bft) O-NO 66 2 min 0,000 mm 1,6 UV-I 412 W/m 14,4 C 14,1 C 25,7 km/h (4 Bft) 97,87 %
25.08.2016 09:12 18,3 C 78 % 1020,2 hPa 0,0 l/m 18,1 km/h (3 Bft) NO 51 2 min 0,000 mm 1,6 UV-I 420 W/m 14,4 C 14,4 C 25,7 km/h (4 Bft) 95,74 %
25.08.2016 09:14 18,4 C 78 % 1020,2 hPa 0,0 l/m 16,4 km/h (3 Bft) O-NO 57 2 min 0,000 mm 1,6 UV-I 425 W/m 14,5 C 15,0 C 22,5 km/h (4 Bft) 100,00 %
25.08.2016 09:16 18,6 C 79 % 1020,2 hPa 0,0 l/m 16,0 km/h (3 Bft) NO 44 2 min 0,000 mm 1,7 UV-I 430 W/m 14,9 C 15,3 C 24,1 km/h (4 Bft) 100,00 %
25.08.2016 09:18 18,7 C 78 % 1020,2 hPa 0,0 l/m 12,4 km/h (3 Bft) O-NO 75 2 min 0,000 mm 1,7 UV-I 435 W/m 14,8 C 16,4 C 17,7 km/h (3 Bft) 100,00 %
25.08.2016 09:20 18,7 C 77 % 1020,2 hPa 0,0 l/m 15,9 km/h (3 Bft) O-NO 78 2 min 0,000 mm 1,8 UV-I 439 W/m 14,6 C 15,4 C 24,1 km/h (4 Bft) 97,87 %
25.08.2016 09:22 18,8 C 77 % 1020,2 hPa 0,0 l/m 15,0 km/h (3 Bft) O-NO 61 2 min 0,000 mm 1,8 UV-I 445 W/m 14,7 C 15,8 C 20,9 km/h (4 Bft) 100,00 %
25.08.2016 09:24 18,8 C 76 % 1020,2 hPa 0,0 l/m 18,0 km/h (3 Bft) O-NO 57 2 min 0,000 mm 1,9 UV-I 452 W/m 14,5 C 15,1 C 24,1 km/h (4 Bft) 100,00 %
25.08.2016 09:26 18,8 C 76 % 1020,1 hPa 0,0 l/m 15,9 km/h (3 Bft) N-NO 19 2 min 0,000 mm 1,9 UV-I 455 W/m 14,5 C 15,6 C 22,5 km/h (4 Bft) 97,87 %
25.08.2016 09:28 18,9 C 76 % 1020,2 hPa 0,0 l/m 13,6 km/h (3 Bft) NO 55 2 min 0,000 mm 2,0 UV-I 460 W/m 14,6 C 16,3 C 22,5 km/h (4 Bft) 100,00 %
25.08.2016 09:30 19,0 C 75 % 1020,1 hPa 0,0 l/m 19,9 km/h (4 Bft) NO 49 2 min 0,000 mm 2,0 UV-I 466 W/m 14,5 C 14,9 C 29,0 km/h (5 Bft) 100,00 %
25.08.2016 09:32 19,1 C 75 % 1020,2 hPa 0,0 l/m 22,0 km/h (4 Bft) NO 54 2 min 0,000 mm 2,0 UV-I 471 W/m 14,6 C 14,7 C 30,6 km/h (5 Bft) 97,92 %
25.08.2016 09:34 19,0 C 75 % 1020,2 hPa 0,0 l/m 19,1 km/h (3 Bft) NO 51 2 min 0,000 mm 2,1 UV-I 476 W/m 14,5 C 15,1 C 33,8 km/h (5 Bft) 100,00 %
25.08.2016 09:36 19,0 C 75 % 1020,1 hPa 0,0 l/m 19,5 km/h (3 Bft) NO 55 2 min 0,000 mm 2,1 UV-I 481 W/m 14,5 C 15,0 C 27,4 km/h (4 Bft) 100,00 %
25.08.2016 09:38 19,1 C 75 % 1020,1 hPa 0,0 l/m 14,1 km/h (3 Bft) NO 56 2 min 0,000 mm 2,2 UV-I 487 W/m 14,6 C 16,4 C 24,1 km/h (4 Bft) 100,00 %
25.08.2016 09:40 19,2 C 75 % 1020,1 hPa 0,0 l/m 17,1 km/h (3 Bft) NO 40 2 min 0,000 mm 2,2 UV-I 489 W/m 14,7 C 15,8 C 24,1 km/h (4 Bft) 100,00 %
25.08.2016 09:42 19,3 C 75 % 1020,1 hPa 0,0 l/m 16,9 km/h (3 Bft) O-NO 77 2 min 0,000 mm 2,2 UV-I 496 W/m 14,8 C 15,9 C 24,1 km/h (4 Bft) 100,00 %
25.08.2016 09:44 19,3 C 74 % 1020,1 hPa 0,0 l/m 18,1 km/h (3 Bft) O-NO 61 2 min 0,000 mm 2,3 UV-I 500 W/m 14,5 C 15,7 C 25,7 km/h (4 Bft) 100,00 %
25.08.2016 09:46 19,4 C 73 % 1020,1 hPa 0,0 l/m 19,2 km/h (3 Bft) NO 54 2 min 0,000 mm 2,3 UV-I 505 W/m 14,4 C 15,6 C 25,7 km/h (4 Bft) 97,87 %
25.08.2016 09:48 19,4 C 74 % 1020,1 hPa 0,0 l/m 20,0 km/h (4 Bft) O-NO 62 2 min 0,000 mm 2,4 UV-I 511 W/m 14,6 C 15,4 C 27,4 km/h (4 Bft) 100,00 %
25.08.2016 09:50 19,4 C 74 % 1020,0 hPa 0,0 l/m 19,9 km/h (4 Bft) O-NO 57 2 min 0,000 mm 2,4 UV-I 517 W/m 14,6 C 15,4 C 25,7 km/h (4 Bft) 97,87 %
25.08.2016 09:52 19,6 C 74 % 1020,0 hPa 0,0 l/m 18,5 km/h (3 Bft) O-NO 71 2 min 0,000 mm 2,5 UV-I 521 W/m 14,8 C 16,0 C 30,6 km/h (5 Bft) 100,00 %
25.08.2016 09:54 19,7 C 73 % 1020,0 hPa 0,0 l/m 22,1 km/h (4 Bft) NO 56 2 min 0,000 mm 2,5 UV-I 525 W/m 14,7 C 15,4 C 29,0 km/h (5 Bft) 97,87 %
25.08.2016 09:56 19,7 C 72 % 1020,0 hPa 0,0 l/m 20,5 km/h (4 Bft) O-NO 77 2 min 0,000 mm 2,6 UV-I 530 W/m 14,5 C 15,7 C 29,0 km/h (5 Bft) 95,74 %
25.08.2016 09:58 19,7 C 72 % 1020,0 hPa 0,0 l/m 23,8 km/h (4 Bft) O-NO 64 2 min 0,000 mm 2,6 UV-I 536 W/m 14,5 C 15,2 C 30,6 km/h (5 Bft) 86,84 %
25.08.2016 10:00 19,8 C 72 % 1020,0 hPa 0,0 l/m 23,4 km/h (4 Bft) NO 37 2 min 0,331 mm 2,7 UV-I 542 W/m 14,6 C 15,4 C 32,2 km/h (5 Bft) 95,74 %
25.08.2016 10:02 19,8 C 71 % 1020,0 hPa 0,0 l/m 20,9 km/h (4 Bft) O-NO 63 2 min 0,000 mm 2,7 UV-I 546 W/m 14,4 C 15,8 C 29,0 km/h (5 Bft) 97,92 %
25.08.2016 10:04 19,8 C 72 % 1020,0 hPa 0,0 l/m 19,6 km/h (3 Bft) NO 55 2 min 0,000 mm 2,8 UV-I 551 W/m 14,6 C 16,0 C 30,6 km/h (5 Bft) 95,74 %
25.08.2016 10:06 19,9 C 72 % 1020,0 hPa 0,0 l/m 22,6 km/h (4 Bft) NO 53 2 min 0,000 mm 2,8 UV-I 556 W/m 14,7 C 15,6 C 32,2 km/h (5 Bft) 97,87 %
25.08.2016 10:08 19,9 C 72 % 1020,0 hPa 0,0 l/m 18,7 km/h (3 Bft) O 81 2 min 0,000 mm 2,9 UV-I 562 W/m 14,7 C 16,3 C 27,4 km/h (4 Bft) 97,87 %
25.08.2016 10:10 19,9 C 71 % 1020,0 hPa 0,0 l/m 19,4 km/h (3 Bft) NO 42 2 min 0,000 mm 2,9 UV-I 565 W/m 14,5 C 16,2 C 30,6 km/h (5 Bft) 97,92 %
25.08.2016 10:12 20,0 C 71 % 1019,9 hPa 0,0 l/m 21,6 km/h (4 Bft) NO 48 2 min 0,000 mm 3,0 UV-I 571 W/m 14,6 C 15,9 C 27,4 km/h (4 Bft) 97,92 %
25.08.2016 10:14 20,1 C 71 % 1020,0 hPa 0,0 l/m 20,1 km/h (4 Bft) NO 54 2 min 0,000 mm 3,0 UV-I 575 W/m 14,7 C 16,3 C 29,0 km/h (5 Bft) 98,00 %
25.08.2016 10:16 20,2 C 71 % 1020,0 hPa 0,0 l/m 22,3 km/h (4 Bft) O-NO 59 2 min 0,000 mm 3,1 UV-I 579 W/m 14,8 C 16,1 C 29,0 km/h (5 Bft) 97,87 %
25.08.2016 10:18 20,3 C 71 % 1020,0 hPa 0,0 l/m 21,7 km/h (4 Bft) O-NO 59 2 min 0,000 mm 3,1 UV-I 583 W/m 14,9 C 16,3 C 33,8 km/h (5 Bft) 97,87 %
25.08.2016 10:20 20,3 C 68 % 1020,0 hPa 0,0 l/m 21,4 km/h (4 Bft) O-NO 64 2 min 0,000 mm 3,2 UV-I 587 W/m 14,2 C 16,3 C 32,2 km/h (5 Bft) 95,74 %
25.08.2016 10:22 20,4 C 70 % 1019,9 hPa 0,0 l/m 22,9 km/h (4 Bft) O-NO 67 2 min 0,000 mm 3,2 UV-I 592 W/m 14,7 C 16,2 C 30,6 km/h (5 Bft) 97,87 %
25.08.2016 10:24 20,5 C 69 % 1019,9 hPa 0,0 l/m 21,3 km/h (4 Bft) O-NO 59 2 min 0,000 mm 3,2 UV-I 595 W/m 14,6 C 16,6 C 30,6 km/h (5 Bft) 97,87 %
25.08.2016 10:26 20,6 C 68 % 1019,9 hPa 0,0 l/m 22,1 km/h (4 Bft) O-NO 57 2 min 0,000 mm 3,3 UV-I 601 W/m 14,5 C 16,6 C 30,6 km/h (5 Bft) 97,37 %
25.08.2016 10:28 20,6 C 69 % 1019,9 hPa 0,0 l/m 18,1 km/h (3 Bft) NO 49 2 min 0,000 mm 3,4 UV-I 605 W/m 14,7 C 17,3 C 27,4 km/h (4 Bft) 97,87 %
25.08.2016 10:30 20,7 C 69 % 1019,9 hPa 0,0 l/m 18,3 km/h (3 Bft) NO 56 2 min 0,000 mm 3,4 UV-I 609 W/m 14,8 C 17,4 C 30,6 km/h (5 Bft) 97,87 %
25.08.2016 10:32 20,8 C 68 % 1019,9 hPa 0,0 l/m 23,6 km/h (4 Bft) NO 55 2 min 0,000 mm 3,5 UV-I 613 W/m 14,7 C 16,7 C 29,0 km/h (5 Bft) 97,87 %
25.08.2016 10:34 20,8 C 68 % 1019,9 hPa 0,0 l/m 23,4 km/h (4 Bft) NO 41 2 min 0,000 mm 3,5 UV-I 617 W/m 14,7 C 16,7 C 30,6 km/h (5 Bft) 100,00 %
25.08.2016 10:36 20,9 C 67 % 1019,9 hPa 0,0 l/m 23,2 km/h (4 Bft) NO 50 2 min 0,000 mm 3,5 UV-I 623 W/m 14,5 C 16,9 C 32,2 km/h (5 Bft) 100,00 %
25.08.2016 10:38 20,8 C 67 % 1019,9 hPa 0,0 l/m 22,0 km/h (4 Bft) O-NO 65 2 min 0,000 mm 3,6 UV-I 627 W/m 14,4 C 16,9 C 27,4 km/h (4 Bft) 100,00 %
25.08.2016 10:40 20,9 C 68 % 1019,9 hPa 0,0 l/m 17,7 km/h (3 Bft) O-NO 67 2 min 0,000 mm 3,6 UV-I 630 W/m 14,8 C 17,8 C 27,4 km/h (4 Bft) 97,87 %
25.08.2016 10:42 20,9 C 68 % 1019,9 hPa 0,0 l/m 22,2 km/h (4 Bft) O-NO 67 2 min 0,000 mm 3,7 UV-I 635 W/m 14,8 C 17,0 C 29,0 km/h (5 Bft) 100,00 %
25.08.2016 10:44 21,0 C 68 % 1019,9 hPa 0,0 l/m 20,8 km/h (4 Bft) O-NO 71 2 min 0,000 mm 3,7 UV-I 639 W/m 14,9 C 17,4 C 32,2 km/h (5 Bft) 97,87 %
25.08.2016 10:46 21,1 C 68 % 1019,9 hPa 0,0 l/m 18,5 km/h (3 Bft) NO 46 2 min 0,000 mm 3,8 UV-I 642 W/m 15,0 C 17,9 C 25,7 km/h (4 Bft) 100,00 %
25.08.2016 10:48 21,2 C 68 % 1019,9 hPa 0,0 l/m 22,1 km/h (4 Bft) O-NO 57 2 min 0,000 mm 3,8 UV-I 648 W/m 15,1 C 17,4 C 33,8 km/h (5 Bft) 100,00 %
25.08.2016 10:50 21,2 C 67 % 1020,0 hPa 0,0 l/m 19,3 km/h (3 Bft) O-NO 61 2 min 0,000 mm 3,9 UV-I 651 W/m 14,8 C 17,9 C 29,0 km/h (5 Bft) 100,00 %
25.08.2016 10:52 21,2 C 68 % 1020,0 hPa 0,0 l/m 20,7 km/h (4 Bft) NO 44 2 min 0,000 mm 3,9 UV-I 652 W/m 15,1 C 17,6 C 30,6 km/h (5 Bft) 100,00 %
25.08.2016 10:54 21,3 C 66 % 1019,9 hPa 0,0 l/m 20,0 km/h (4 Bft) O-NO 63 2 min 0,000 mm 4,0 UV-I 658 W/m 14,7 C 17,9 C 29,0 km/h (5 Bft) 97,22 %
25.08.2016 10:56 21,3 C 66 % 1019,9 hPa 0,0 l/m 21,1 km/h (4 Bft) O-NO 58 2 min 0,000 mm 4,0 UV-I 662 W/m 14,7 C 17,7 C 29,0 km/h (5 Bft) 100,00 %
25.08.2016 10:58 21,5 C 67 % 1019,9 hPa 0,0 l/m 19,1 km/h (3 Bft) O-NO 65 2 min 0,000 mm 4,1 UV-I 667 W/m 15,1 C 18,3 C 25,7 km/h (4 Bft) 97,87 %
25.08.2016 11:00 21,6 C 65 % 1019,9 hPa 0,0 l/m 20,0 km/h (4 Bft) NO 40 2 min 0,431 mm 4,1 UV-I 670 W/m 14,7 C 18,3 C 27,4 km/h (4 Bft) 100,00 %
25.08.2016 11:02 21,6 C 65 % 1019,9 hPa 0,0 l/m 20,4 km/h (4 Bft) O-NO 70 2 min 0,000 mm 4,2 UV-I 674 W/m 14,7 C 18,2 C 27,4 km/h (4 Bft) 100,00 %
25.08.2016 11:04 21,6 C 65 % 1019,8 hPa 0,0 l/m 17,4 km/h (3 Bft) O-NO 64 2 min 0,000 mm 4,2 UV-I 676 W/m 14,7 C 18,7 C 27,4 km/h (4 Bft) 97,87 %
25.08.2016 11:06 21,7 C 67 % 1019,8 hPa 0,0 l/m 15,3 km/h (3 Bft) NO 51 2 min 0,000 mm 4,3 UV-I 681 W/m 15,3 C 19,2 C 22,5 km/h (4 Bft) 97,87 %
25.08.2016 11:08 21,8 C 64 % 1019,8 hPa 0,0 l/m 23,6 km/h (4 Bft) O-NO 57 2 min 0,000 mm 4,3 UV-I 684 W/m 14,7 C 18,0 C 40,2 km/h (6 Bft) 97,87 %
25.08.2016 11:10 21,8 C 65 % 1019,9 hPa 0,0 l/m 18,2 km/h (3 Bft) O 98 2 min 0,000 mm 4,4 UV-I 690 W/m 14,9 C 18,8 C 25,7 km/h (4 Bft) 100,00 %
25.08.2016 11:12 21,9 C 64 % 1019,8 hPa 0,0 l/m 21,6 km/h (4 Bft) NO 53 2 min 0,000 mm 4,4 UV-I 693 W/m 14,8 C 18,4 C 29,0 km/h (5 Bft) 95,74 %
25.08.2016 11:14 22,1 C 64 % 1019,8 hPa 0,0 l/m 16,7 km/h (3 Bft) NO 51 2 min 0,000 mm 4,5 UV-I 696 W/m 15,0 C 19,5 C 22,5 km/h (4 Bft) 100,00 %
25.08.2016 11:16 22,0 C 64 % 1019,8 hPa 0,0 l/m 20,2 km/h (4 Bft) NO 53 2 min 0,000 mm 4,5 UV-I 695 W/m 14,9 C 18,8 C 33,8 km/h (5 Bft) 97,87 %
25.08.2016 11:18 22,1 C 64 % 1019,7 hPa 0,0 l/m 22,2 km/h (4 Bft) O-NO 65 2 min 0,000 mm 4,5 UV-I 700 W/m 15,0 C 18,6 C 32,2 km/h (5 Bft) 100,00 %
25.08.2016 11:20 22,1 C 63 % 1019,8 hPa 0,0 l/m 25,7 km/h (4 Bft) O-NO 71 2 min 0,000 mm 4,6 UV-I 701 W/m 14,7 C 18,1 C 37,0 km/h (5 Bft) 100,00 %
25.08.2016 11:22 22,2 C 65 % 1019,8 hPa 0,0 l/m 16,6 km/h (3 Bft) O-NO 58 2 min 0,000 mm 4,6 UV-I 706 W/m 15,3 C 19,6 C 24,1 km/h (4 Bft) 100,00 %
25.08.2016 11:24 22,3 C 65 % 1019,7 hPa 0,0 l/m 17,7 km/h (3 Bft) O 85 2 min 0,000 mm 4,7 UV-I 710 W/m 15,4 C 19,5 C 25,7 km/h (4 Bft) 100,00 %
25.08.2016 11:26 22,4 C 64 % 1019,8 hPa 0,0 l/m 17,9 km/h (3 Bft) NO 55 2 min 0,000 mm 4,7 UV-I 713 W/m 15,2 C 19,6 C 27,4 km/h (4 Bft) 100,00 %
25.08.2016 11:28 22,4 C 62 % 1019,8 hPa 0,0 l/m 19,5 km/h (3 Bft) O-NO 59 2 min 0,000 mm 4,7 UV-I 712 W/m 14,8 C 19,4 C 29,0 km/h (5 Bft) 100,00 %
25.08.2016 11:30 22,4 C 61 % 1019,8 hPa 0,0 l/m 23,3 km/h (4 Bft) O-NO 59 2 min 0,000 mm 4,8 UV-I 716 W/m 14,5 C 18,8 C 33,8 km/h (5 Bft) 100,00 %
25.08.2016 11:32 22,4 C 62 % 1019,8 hPa 0,0 l/m 25,0 km/h (4 Bft) O-NO 69 2 min 0,000 mm 4,8 UV-I 722 W/m 14,8 C 18,6 C 33,8 km/h (5 Bft) 100,00 %
25.08.2016 11:34 22,4 C 62 % 1019,8 hPa 0,0 l/m 18,7 km/h (3 Bft) NO 45 2 min 0,000 mm 4,9 UV-I 725 W/m 14,8 C 19,5 C 25,7 km/h (4 Bft) 100,00 %
25.08.2016 11:36 22,4 C 62 % 1019,7 hPa 0,0 l/m 17,6 km/h (3 Bft) O-NO 63 2 min 0,000 mm 4,9 UV-I 728 W/m 14,8 C 19,7 C 24,1 km/h (4 Bft) 100,00 %
25.08.2016 11:38 22,4 C 64 % 1019,7 hPa 0,0 l/m 17,9 km/h (3 Bft) NO 44 2 min 0,000 mm 4,9 UV-I 729 W/m 15,2 C 19,6 C 29,0 km/h (5 Bft) 100,00 %
25.08.2016 11:40 22,6 C 64 % 1019,6 hPa 0,0 l/m 20,2 km/h (4 Bft) O 79 2 min 0,000 mm 4,9 UV-I 730 W/m 15,4 C 19,5 C 29,0 km/h (5 Bft) 100,00 %
25.08.2016 11:42 22,7 C 62 % 1019,7 hPa 0,0 l/m 21,0 km/h (4 Bft) O 81 2 min 0,000 mm 5,0 UV-I 734 W/m 15,0 C 19,6 C 30,6 km/h (5 Bft) 100,00 %
25.08.2016 11:44 22,8 C 61 % 1019,7 hPa 0,0 l/m 24,8 km/h (4 Bft) NO 51 2 min 0,000 mm 5,0 UV-I 734 W/m 14,9 C 19,2 C 33,8 km/h (5 Bft) 100,00 %
25.08.2016 11:46 22,7 C 60 % 1019,6 hPa 0,0 l/m 25,2 km/h (4 Bft) O-NO 57 2 min 0,000 mm 5,0 UV-I 736 W/m 14,5 C 19,0 C 32,2 km/h (5 Bft) 97,87 %
25.08.2016 11:48 22,7 C 61 % 1019,7 hPa 0,0 l/m 20,7 km/h (4 Bft) O-NO 67 2 min 0,000 mm 5,1 UV-I 742 W/m 14,8 C 19,6 C 32,2 km/h (5 Bft) 97,87 %
25.08.2016 11:50 22,8 C 60 % 1019,6 hPa 0,0 l/m 22,3 km/h (4 Bft) O-NO 76 2 min 0,000 mm 5,1 UV-I 745 W/m 14,6 C 19,5 C 37,0 km/h (5 Bft) 95,74 %
25.08.2016 11:52 22,9 C 60 % 1019,7 hPa 0,0 l/m 21,7 km/h (4 Bft) O-NO 65 2 min 0,000 mm 5,1 UV-I 742 W/m 14,7 C 19,7 C 29,0 km/h (5 Bft) 95,74 %
25.08.2016 11:54 22,9 C 60 % 1019,6 hPa 0,0 l/m 23,0 km/h (4 Bft) O-NO 73 2 min 0,000 mm 5,2 UV-I 748 W/m 14,7 C 19,6 C 33,8 km/h (5 Bft) 97,87 %
25.08.2016 11:56 22,9 C 60 % 1019,7 hPa 0,0 l/m 22,9 km/h (4 Bft) O-NO 76 2 min 0,000 mm 5,2 UV-I 750 W/m 14,7 C 19,6 C 32,2 km/h (5 Bft) 96,00 %
25.08.2016 11:58 22,9 C 60 % 1019,6 hPa 0,0 l/m 22,0 km/h (4 Bft) O-NO 74 2 min 0,000 mm 5,2 UV-I 753 W/m 14,7 C 19,7 C 32,2 km/h (5 Bft) 93,62 %
25.08.2016 12:00 22,9 C 60 % 1019,6 hPa 0,0 l/m 22,4 km/h (4 Bft) NO 52 2 min 0,534 mm 5,3 UV-I 752 W/m 14,7 C 19,6 C 33,8 km/h (5 Bft) 93,62 %
25.08.2016 12:02 23,0 C 61 % 1019,5 hPa 0,0 l/m 19,1 km/h (3 Bft) O-NO 58 2 min 0,000 mm 5,3 UV-I 754 W/m 15,1 C 20,2 C 27,4 km/h (4 Bft) 95,74 %
25.08.2016 12:04 23,0 C 60 % 1019,5 hPa 0,0 l/m 22,9 km/h (4 Bft) N-NO 32 2 min 0,000 mm 5,3 UV-I 754 W/m 14,8 C 19,7 C 30,6 km/h (5 Bft) 97,87 %
25.08.2016 12:06 23,1 C 61 % 1019,5 hPa 0,0 l/m 17,7 km/h (3 Bft) NO 55 2 min 0,000 mm 5,3 UV-I 755 W/m 15,2 C 20,6 C 27,4 km/h (4 Bft) 95,83 %
25.08.2016 12:08 23,1 C 60 % 1019,5 hPa 0,0 l/m 20,7 km/h (4 Bft) NO 53 2 min 0,000 mm 5,3 UV-I 756 W/m 14,9 C 20,1 C 29,0 km/h (5 Bft) 97,87 %
25.08.2016 12:10 23,2 C 61 % 1019,5 hPa 0,0 l/m 18,6 km/h (3 Bft) O-NO 61 2 min 0,000 mm 5,4 UV-I 763 W/m 15,3 C 20,5 C 35,4 km/h (5 Bft) 97,87 %
25.08.2016 12:12 23,2 C 60 % 1019,5 hPa 0,0 l/m 22,9 km/h (4 Bft) O-NO 78 2 min 0,000 mm 5,4 UV-I 765 W/m 15,0 C 20,0 C 32,2 km/h (5 Bft) 92,68 %
25.08.2016 12:14 23,2 C 59 % 1019,5 hPa 0,0 l/m 23,1 km/h (4 Bft) NO 55 2 min 0,000 mm 5,5 UV-I 768 W/m 14,7 C 19,9 C 33,8 km/h (5 Bft) 95,74 %
25.08.2016 12:16 23,2 C 59 % 1019,5 hPa 0,0 l/m 19,2 km/h (3 Bft) O-NO 61 2 min 0,000 mm 5,5 UV-I 769 W/m 14,7 C 20,5 C 30,6 km/h (5 Bft) 98,00 %
25.08.2016 12:18 23,3 C 61 % 1019,4 hPa 0,0 l/m 20,9 km/h (4 Bft) O-NO 69 2 min 0,000 mm 5,5 UV-I 769 W/m 15,3 C 20,3 C 33,8 km/h (5 Bft) 100,00 %
25.08.2016 12:20 23,4 C 60 % 1019,4 hPa 0,0 l/m 24,1 km/h (4 Bft) N-NO 30 2 min 0,000 mm 5,5 UV-I 770 W/m 15,2 C 20,1 C 37,0 km/h (5 Bft) 93,62 %
25.08.2016 12:22 23,6 C 59 % 1019,3 hPa 0,0 l/m 25,0 km/h (4 Bft) O-NO 73 2 min 0,000 mm 5,6 UV-I 776 W/m 15,1 C 20,3 C 35,4 km/h (5 Bft) 97,22 %
25.08.2016 12:24 23,6 C 58 % 1019,4 hPa 0,0 l/m 22,2 km/h (4 Bft) O 81 2 min 0,000 mm 5,6 UV-I 776 W/m 14,8 C 20,6 C 32,2 km/h (5 Bft) 100,00 %
25.08.2016 12:26 23,5 C 56 % 1019,4 hPa 0,0 l/m 25,1 km/h (4 Bft) NO 44 2 min 0,000 mm 5,6 UV-I 776 W/m 14,2 C 20,1 C 38,6 km/h (5 Bft) 100,00 %
25.08.2016 12:28 23,4 C 57 % 1019,3 hPa 0,0 l/m 26,3 km/h (4 Bft) NO 55 2 min 0,000 mm 5,6 UV-I 776 W/m 14,4 C 19,9 C 33,8 km/h (5 Bft) 97,87 %
25.08.2016 12:30 23,3 C 57 % 1019,3 hPa 0,0 l/m 24,0 km/h (4 Bft) O-NO 66 2 min 0,000 mm 5,6 UV-I 776 W/m 14,3 C 20,0 C 35,4 km/h (5 Bft) 100,00 %
25.08.2016 12:32 23,3 C 59 % 1019,3 hPa 0,0 l/m 22,6 km/h (4 Bft) NO 56 2 min 0,000 mm 5,6 UV-I 779 W/m 14,8 C 20,1 C 32,2 km/h (5 Bft) 100,00 %
25.08.2016 12:34 23,4 C 59 % 1019,3 hPa 0,0 l/m 22,5 km/h (4 Bft) O-NO 74 2 min 0,000 mm 5,6 UV-I 780 W/m 14,9 C 20,3 C 30,6 km/h (5 Bft) 100,00 %
25.08.2016 12:36 23,4 C 57 % 1019,3 hPa 0,0 l/m 26,3 km/h (4 Bft) NO 55 2 min 0,000 mm 5,7 UV-I 782 W/m 14,4 C 19,9 C 33,8 km/h (5 Bft) 100,00 %
25.08.2016 12:38 23,5 C 59 % 1019,2 hPa 0,0 l/m 19,1 km/h (3 Bft) NO 44 2 min 0,000 mm 5,7 UV-I 782 W/m 15,0 C 20,9 C 27,4 km/h (4 Bft) 95,74 %
25.08.2016 12:40 23,6 C 59 % 1019,1 hPa 0,0 l/m 21,8 km/h (4 Bft) N-NO 31 2 min 0,000 mm 5,7 UV-I 786 W/m 15,1 C 20,6 C 33,8 km/h (5 Bft) 100,00 %
25.08.2016 12:42 23,6 C 59 % 1019,1 hPa 0,0 l/m 23,5 km/h (4 Bft) O-NO 59 2 min 0,000 mm 5,7 UV-I 785 W/m 15,1 C 20,4 C 32,2 km/h (5 Bft) 100,00 %
25.08.2016 12:44 23,6 C 57 % 1019,1 hPa 0,0 l/m 21,8 km/h (4 Bft) O-NO 57 2 min 0,000 mm 5,7 UV-I 787 W/m 14,6 C 20,6 C 33,8 km/h (5 Bft) 96,77 %
25.08.2016 12:46 23,6 C 58 % 1019,2 hPa 0,0 l/m 24,2 km/h (4 Bft) O-NO 76 2 min 0,000 mm 5,7 UV-I 789 W/m 14,8 C 20,3 C 32,2 km/h (5 Bft) 100,00 %
25.08.2016 12:48 23,6 C 58 % 1019,2 hPa 0,0 l/m 23,2 km/h (4 Bft) O-NO 71 2 min 0,000 mm 5,7 UV-I 789 W/m 14,8 C 20,5 C 35,4 km/h (5 Bft) 97,87 %
25.08.2016 12:50 23,6 C 58 % 1019,2 hPa 0,0 l/m 24,0 km/h (4 Bft) NO 55 2 min 0,000 mm 5,7 UV-I 789 W/m 14,8 C 20,4 C 33,8 km/h (5 Bft) 100,00 %
25.08.2016 12:52 23,7 C 58 % 1019,2 hPa 0,0 l/m 20,6 km/h (4 Bft) NO 56 2 min 0,000 mm 5,7 UV-I 790 W/m 14,9 C 20,9 C 32,2 km/h (5 Bft) 100,00 %
25.08.2016 12:54 23,7 C 59 % 1019,2 hPa 0,0 l/m 20,4 km/h (4 Bft) O 82 2 min 0,000 mm 5,7 UV-I 790 W/m 15,2 C 20,9 C 29,0 km/h (5 Bft) 97,87 %
25.08.2016 12:56 23,8 C 58 % 1019,2 hPa 0,0 l/m 21,9 km/h (4 Bft) O 85 2 min 0,000 mm 5,7 UV-I 789 W/m 15,0 C 20,9 C 30,6 km/h (5 Bft) 100,00 %
25.08.2016 12:58 23,9 C 59 % 1019,2 hPa 0,0 l/m 17,1 km/h (3 Bft) O-NO 62 2 min 0,000 mm 5,8 UV-I 788 W/m 15,4 C 21,6 C 27,4 km/h (4 Bft) 97,14 %
25.08.2016 13:00 24,1 C 57 % 1019,2 hPa 0,0 l/m 20,7 km/h (4 Bft) O-NO 57 2 min 0,609 mm 5,8 UV-I 790 W/m 15,0 C 21,4 C 30,6 km/h (5 Bft) 100,00 %
25.08.2016 13:02 24,1 C 57 % 1019,1 hPa 0,0 l/m 18,3 km/h (3 Bft) NO 51 2 min 0,000 mm 5,7 UV-I 793 W/m 15,0 C 21,7 C 25,7 km/h (4 Bft) 97,87 %
25.08.2016 13:04 24,1 C 60 % 1019,1 hPa 0,0 l/m 15,3 km/h (3 Bft) O-NO 70 2 min 0,000 mm 5,8 UV-I 793 W/m 15,8 C 22,2 C 22,5 km/h (4 Bft) 100,00 %
25.08.2016 13:06 24,1 C 58 % 1019,1 hPa 0,0 l/m 20,9 km/h (4 Bft) O 79 2 min 0,000 mm 5,8 UV-I 791 W/m 15,3 C 21,4 C 30,6 km/h (5 Bft) 97,87 %
25.08.2016 13:08 24,2 C 59 % 1019,1 hPa 0,0 l/m 19,6 km/h (3 Bft) O-NO 75 2 min 0,000 mm 5,7 UV-I 791 W/m 15,7 C 21,7 C 30,6 km/h (5 Bft) 97,87 %
25.08.2016 13:10 24,2 C 59 % 1019,1 hPa 0,0 l/m 18,1 km/h (3 Bft) O-NO 66 2 min 0,000 mm 5,8 UV-I 790 W/m 15,7 C 21,9 C 25,7 km/h (4 Bft) 100,00 %
25.08.2016 13:12 24,3 C 59 % 1019,1 hPa 0,0 l/m 17,4 km/h (3 Bft) NO 52 2 min 0,000 mm 5,7 UV-I 789 W/m 15,8 C 22,1 C 27,4 km/h (4 Bft) 100,00 %
25.08.2016 13:14 24,3 C 57 % 1019,1 hPa 0,0 l/m 21,6 km/h (4 Bft) O-NO 73 2 min 0,000 mm 5,7 UV-I 786 W/m 15,2 C 21,6 C 33,8 km/h (5 Bft) 100,00 %
25.08.2016 13:16 24,3 C 58 % 1019,0 hPa 0,0 l/m 22,9 km/h (4 Bft) NO 47 2 min 0,000 mm 5,7 UV-I 787 W/m 15,5 C 21,4 C 33,8 km/h (5 Bft) 95,74 %
25.08.2016 13:18 24,3 C 56 % 1019,0 hPa 0,0 l/m 23,7 km/h (4 Bft) O-NO 63 2 min 0,000 mm 5,7 UV-I 788 W/m 14,9 C 21,3 C 32,2 km/h (5 Bft) 100,00 %
25.08.2016 13:20 24,3 C 56 % 1019,0 hPa 0,0 l/m 23,9 km/h (4 Bft) O-NO 64 2 min 0,000 mm 5,7 UV-I 789 W/m 14,9 C 21,3 C 30,6 km/h (5 Bft) 100,00 %
25.08.2016 13:22 24,3 C 58 % 1019,0 hPa 0,0 l/m 21,5 km/h (4 Bft) O-NO 71 2 min 0,000 mm 5,7 UV-I 788 W/m 15,5 C 21,6 C 32,2 km/h (5 Bft) 100,00 %
25.08.2016 13:24 24,4 C 57 % 1018,9 hPa 0,0 l/m 21,7 km/h (4 Bft) O-NO 74 2 min 0,000 mm 5,7 UV-I 788 W/m 15,3 C 21,7 C 30,6 km/h (5 Bft) 97,87 %
25.08.2016 13:26 24,4 C 56 % 1019,0 hPa 0,0 l/m 21,5 km/h (4 Bft) O-NO 63 2 min 0,000 mm 5,7 UV-I 784 W/m 15,0 C 21,7 C 32,2 km/h (5 Bft) 100,00 %
25.08.2016 13:28 24,5 C 57 % 1018,9 hPa 0,0 l/m 19,6 km/h (3 Bft) NO 52 2 min 0,000 mm 5,7 UV-I 787 W/m 15,4 C 22,1 C 27,4 km/h (4 Bft) 100,00 %
25.08.2016 13:30 24,4 C 57 % 1018,9 hPa 0,0 l/m 20,1 km/h (4 Bft) O-NO 57 2 min 0,000 mm 5,7 UV-I 784 W/m 15,3 C 21,9 C 29,0 km/h (5 Bft) 97,87 %
25.08.2016 13:32 24,6 C 58 % 1018,9 hPa 0,0 l/m 22,8 km/h (4 Bft) NO 51 2 min 0,000 mm 5,6 UV-I 783 W/m 15,8 C 21,8 C 32,2 km/h (5 Bft) 100,00 %
25.08.2016 13:34 24,6 C 57 % 1018,9 hPa 0,0 l/m 20,2 km/h (4 Bft) O-NO 59 2 min 0,000 mm 5,6 UV-I 780 W/m 15,5 C 22,1 C 30,6 km/h (5 Bft) 100,00 %
25.08.2016 13:36 24,6 C 56 % 1018,9 hPa 0,0 l/m 16,7 km/h (3 Bft) O-NO 61 2 min 0,000 mm 5,6 UV-I 782 W/m 15,2 C 22,6 C 30,6 km/h (5 Bft) 100,00 %
25.08.2016 13:38 24,7 C 56 % 1018,9 hPa 0,0 l/m 18,0 km/h (3 Bft) NO 45 2 min 0,000 mm 5,6 UV-I 782 W/m 15,3 C 22,5 C 22,5 km/h (4 Bft) 100,00 %
25.08.2016 13:40 24,9 C 55 % 1018,9 hPa 0,0 l/m 19,5 km/h (3 Bft) O-NO 65 2 min 0,000 mm 5,6 UV-I 784 W/m 15,2 C 22,6 C 29,0 km/h (5 Bft) 95,74 %
25.08.2016 13:42 24,9 C 54 % 1018,9 hPa 0,0 l/m 19,9 km/h (4 Bft) NO 43 2 min 0,000 mm 5,6 UV-I 782 W/m 14,9 C 22,5 C 27,4 km/h (4 Bft) 96,00 %
25.08.2016 13:44 25,0 C 53 % 1019,0 hPa 0,0 l/m 20,8 km/h (4 Bft) O-NO 58 2 min 0,000 mm 5,6 UV-I 780 W/m 14,7 C 22,6 C 27,4 km/h (4 Bft) 97,87 %
25.08.2016 13:46 25,0 C 51 % 1018,9 hPa 0,0 l/m 22,3 km/h (4 Bft) NO 53 2 min 0,000 mm 5,6 UV-I 780 W/m 14,1 C 22,4 C 30,6 km/h (5 Bft) 97,87 %
25.08.2016 13:48 24,9 C 52 % 1018,9 hPa 0,0 l/m 21,2 km/h (4 Bft) O-NO 65 2 min 0,000 mm 5,6 UV-I 782 W/m 14,4 C 22,4 C 30,6 km/h (5 Bft) 93,62 %
25.08.2016 13:50 24,9 C 51 % 1018,9 hPa 0,0 l/m 24,2 km/h (4 Bft) O-NO 59 2 min 0,000 mm 5,5 UV-I 780 W/m 14,1 C 22,1 C 30,6 km/h (5 Bft) 93,62 %
25.08.2016 13:52 24,9 C 51 % 1018,9 hPa 0,0 l/m 21,0 km/h (4 Bft) NO 52 2 min 0,000 mm 5,5 UV-I 783 W/m 14,1 C 22,4 C 30,6 km/h (5 Bft) 97,87 %
25.08.2016 13:54 24,9 C 50 % 1018,8 hPa 0,0 l/m 23,7 km/h (4 Bft) O 79 2 min 0,000 mm 5,5 UV-I 781 W/m 13,7 C 22,1 C 30,6 km/h (5 Bft) 93,62 %
25.08.2016 13:56 24,9 C 52 % 1018,8 hPa 0,0 l/m 25,1 km/h (4 Bft) O-NO 67 2 min 0,000 mm 5,5 UV-I 778 W/m 14,4 C 22,0 C 35,4 km/h (5 Bft) 94,00 %
25.08.2016 13:58 24,9 C 52 % 1018,8 hPa 0,0 l/m 22,4 km/h (4 Bft) O-NO 57 2 min 0,000 mm 5,4 UV-I 773 W/m 14,4 C 22,3 C 35,4 km/h (5 Bft) 97,22 %
25.08.2016 14:00 24,9 C 52 % 1018,8 hPa 0,0 l/m 23,3 km/h (4 Bft) O-NO 66 2 min 0,635 mm 5,4 UV-I 774 W/m 14,4 C 22,2 C 33,8 km/h (5 Bft) 98,04 %
25.08.2016 14:02 24,9 C 53 % 1018,8 hPa 0,0 l/m 19,1 km/h (3 Bft) O 84 2 min 0,000 mm 5,4 UV-I 774 W/m 14,6 C 22,6 C 32,2 km/h (5 Bft) 95,74 %
25.08.2016 14:04 24,9 C 55 % 1018,8 hPa 0,0 l/m 15,0 km/h (3 Bft) O-NO 61 2 min 0,000 mm 5,4 UV-I 774 W/m 15,2 C 23,2 C 22,5 km/h (4 Bft) 97,87 %
25.08.2016 14:06 25,1 C 52 % 1018,7 hPa 0,0 l/m 22,7 km/h (4 Bft) N-NO 29 2 min 0,000 mm 5,3 UV-I 772 W/m 14,5 C 22,5 C 35,4 km/h (5 Bft) 95,74 %
25.08.2016 14:08 25,1 C 53 % 1018,7 hPa 0,0 l/m 19,5 km/h (3 Bft) O-NO 61 2 min 0,000 mm 5,3 UV-I 769 W/m 14,8 C 22,9 C 29,0 km/h (5 Bft) 96,00 %
25.08.2016 14:10 25,2 C 53 % 1018,8 hPa 0,0 l/m 21,3 km/h (4 Bft) NO 46 2 min 0,000 mm 5,3 UV-I 766 W/m 14,9 C 22,8 C 32,2 km/h (5 Bft) 97,96 %
25.08.2016 14:12 25,1 C 53 % 1018,7 hPa 0,0 l/m 23,0 km/h (4 Bft) O-NO 67 2 min 0,000 mm 5,2 UV-I 762 W/m 14,8 C 22,5 C 30,6 km/h (5 Bft) 100,00 %
25.08.2016 14:14 25,1 C 53 % 1018,7 hPa 0,0 l/m 22,7 km/h (4 Bft) O 96 2 min 0,000 mm 5,2 UV-I 762 W/m 14,8 C 22,5 C 32,2 km/h (5 Bft) 97,87 %
25.08.2016 14:16 25,1 C 52 % 1018,7 hPa 0,0 l/m 24,3 km/h (4 Bft) O-NO 58 2 min 0,000 mm 5,2 UV-I 764 W/m 14,5 C 22,4 C 32,2 km/h (5 Bft) 97,87 %
25.08.2016 14:18 25,1 C 52 % 1018,7 hPa 0,0 l/m 22,9 km/h (4 Bft) O-NO 66 2 min 0,000 mm 5,2 UV-I 759 W/m 14,5 C 22,5 C 35,4 km/h (5 Bft) 100,00 %
25.08.2016 14:20 25,1 C 52 % 1018,6 hPa 0,0 l/m 24,6 km/h (4 Bft) O-NO 61 2 min 0,000 mm 5,1 UV-I 759 W/m 14,5 C 22,3 C 32,2 km/h (5 Bft) 100,00 %
25.08.2016 14:22 25,1 C 53 % 1018,6 hPa 0,0 l/m 23,5 km/h (4 Bft) O-NO 74 2 min 0,000 mm 5,1 UV-I 755 W/m 14,8 C 22,4 C 37,0 km/h (5 Bft) 100,00 %
25.08.2016 14:24 25,1 C 52 % 1018,6 hPa 0,0 l/m 20,0 km/h (4 Bft) O-NO 57 2 min 0,000 mm 5,1 UV-I 755 W/m 14,5 C 22,8 C 29,0 km/h (5 Bft) 100,00 %
25.08.2016 14:26 25,3 C 53 % 1018,5 hPa 0,0 l/m 25,5 km/h (4 Bft) NO 53 2 min 0,000 mm 5,0 UV-I 754 W/m 15,0 C 22,5 C 37,0 km/h (5 Bft) 98,00 %
25.08.2016 14:28 25,2 C 52 % 1018,5 hPa 0,0 l/m 23,1 km/h (4 Bft) NO 47 2 min 0,000 mm 5,0 UV-I 752 W/m 14,6 C 22,6 C 33,8 km/h (5 Bft) 100,00 %
25.08.2016 14:30 25,3 C 51 % 1018,5 hPa 0,0 l/m 24,0 km/h (4 Bft) O 81 2 min 0,000 mm 5,0 UV-I 749 W/m 14,4 C 22,7 C 37,0 km/h (5 Bft) 100,00 %
25.08.2016 14:32 25,3 C 50 % 1018,5 hPa 0,0 l/m 23,5 km/h (4 Bft) NO 49 2 min 0,000 mm 4,9 UV-I 747 W/m 14,1 C 22,7 C 35,4 km/h (5 Bft) 97,87 %
25.08.2016 14:34 25,3 C 51 % 1018,6 hPa 0,0 l/m 22,5 km/h (4 Bft) O-NO 66 2 min 0,000 mm 4,9 UV-I 746 W/m 14,4 C 22,8 C 35,4 km/h (5 Bft) 97,87 %
25.08.2016 14:36 25,2 C 52 % 1018,5 hPa 0,0 l/m 22,0 km/h (4 Bft) NO 53 2 min 0,000 mm 4,9 UV-I 745 W/m 14,6 C 22,7 C 33,8 km/h (5 Bft) 97,87 %
25.08.2016 14:38 25,3 C 54 % 1018,5 hPa 0,0 l/m 18,8 km/h (3 Bft) O 82 2 min 0,000 mm 4,8 UV-I 741 W/m 15,3 C 23,2 C 30,6 km/h (5 Bft) 100,00 %
25.08.2016 14:40 25,3 C 51 % 1018,5 hPa 0,0 l/m 24,1 km/h (4 Bft) O-NO 70 2 min 0,000 mm 4,8 UV-I 736 W/m 14,4 C 22,6 C 38,6 km/h (5 Bft) 100,00 %
25.08.2016 14:42 25,3 C 52 % 1018,5 hPa 0,0 l/m 21,6 km/h (4 Bft) O-NO 60 2 min 0,000 mm 4,8 UV-I 738 W/m 14,7 C 22,9 C 29,0 km/h (5 Bft) 97,87 %
25.08.2016 14:44 25,3 C 52 % 1018,5 hPa 0,0 l/m 19,7 km/h (3 Bft) O-NO 60 2 min 0,000 mm 4,7 UV-I 734 W/m 14,7 C 23,1 C 29,0 km/h (5 Bft) 100,00 %
25.08.2016 14:46 25,4 C 51 % 1018,5 hPa 0,0 l/m 20,2 km/h (4 Bft) O-NO 75 2 min 0,000 mm 4,7 UV-I 733 W/m 14,5 C 23,2 C 35,4 km/h (5 Bft) 100,00 %
25.08.2016 14:48 25,4 C 51 % 1018,5 hPa 0,0 l/m 24,2 km/h (4 Bft) O-NO 65 2 min 0,000 mm 4,7 UV-I 728 W/m 14,5 C 22,8 C 33,8 km/h (5 Bft) 100,00 %
25.08.2016 14:50 25,4 C 51 % 1018,5 hPa 0,0 l/m 23,8 km/h (4 Bft) O-NO 58 2 min 0,000 mm 4,6 UV-I 729 W/m 14,5 C 22,8 C 30,6 km/h (5 Bft) 100,00 %
25.08.2016 14:52 25,4 C 52 % 1018,4 hPa 0,0 l/m 19,6 km/h (3 Bft) O 80 2 min 0,000 mm 4,6 UV-I 723 W/m 14,8 C 23,2 C 25,7 km/h (4 Bft) 100,00 %
25.08.2016 14:54 25,4 C 52 % 1018,4 hPa 0,0 l/m 23,3 km/h (4 Bft) O 84 2 min 0,000 mm 4,5 UV-I 719 W/m 14,8 C 22,9 C 30,6 km/h (5 Bft) 100,00 %
25.08.2016 14:56 25,5 C 52 % 1018,5 hPa 0,0 l/m 22,8 km/h (4 Bft) O-NO 61 2 min 0,000 mm 4,5 UV-I 718 W/m 14,9 C 23,0 C 32,2 km/h (5 Bft) 100,00 %
25.08.2016 14:58 25,6 C 52 % 1018,4 hPa 0,0 l/m 25,6 km/h (4 Bft) O 82 2 min 0,000 mm 4,5 UV-I 717 W/m 15,0 C 22,9 C 35,4 km/h (5 Bft) 97,87 %
25.08.2016 15:00 25,5 C 50 % 1018,3 hPa 0,0 l/m 24,9 km/h (4 Bft) O 94 2 min 0,635 mm 4,4 UV-I 713 W/m 14,3 C 22,8 C 33,8 km/h (5 Bft) 97,87 %
25.08.2016 15:02 25,4 C 50 % 1018,4 hPa 0,0 l/m 21,2 km/h (4 Bft) NO 39 2 min 0,000 mm 4,4 UV-I 709 W/m 14,2 C 23,1 C 30,6 km/h (5 Bft) 100,00 %
25.08.2016 15:04 25,5 C 53 % 1018,3 hPa 0,0 l/m 20,8 km/h (4 Bft) O-NO 76 2 min 0,000 mm 4,3 UV-I 705 W/m 15,2 C 23,2 C 30,6 km/h (5 Bft) 100,00 %
25.08.2016 15:06 25,7 C 52 % 1018,3 hPa 0,0 l/m 23,2 km/h (4 Bft) O-NO 57 2 min 0,000 mm 4,3 UV-I 704 W/m 15,1 C 23,3 C 32,2 km/h (5 Bft) 100,00 %
25.08.2016 15:08 25,7 C 52 % 1018,4 hPa 0,0 l/m 23,6 km/h (4 Bft) O-NO 73 2 min 0,000 mm 4,2 UV-I 698 W/m 15,1 C 23,2 C 30,6 km/h (5 Bft) 100,00 %
25.08.2016 15:10 25,7 C 50 % 1018,3 hPa 0,0 l/m 22,4 km/h (4 Bft) O-NO 63 2 min 0,000 mm 4,2 UV-I 694 W/m 14,5 C 23,3 C 33,8 km/h (5 Bft) 100,00 %
25.08.2016 15:12 25,7 C 49 % 1018,3 hPa 0,0 l/m 26,6 km/h (4 Bft) O-NO 75 2 min 0,000 mm 4,2 UV-I 694 W/m 14,2 C 23,0 C 37,0 km/h (5 Bft) 100,00 %
25.08.2016 15:14 25,7 C 49 % 1018,3 hPa 0,0 l/m 23,3 km/h (4 Bft) O 80 2 min 0,000 mm 4,1 UV-I 693 W/m 14,2 C 23,3 C 30,6 km/h (5 Bft) 97,87 %
25.08.2016 15:16 25,7 C 52 % 1018,3 hPa 0,0 l/m 21,6 km/h (4 Bft) O-NO 71 2 min 0,000 mm 4,1 UV-I 687 W/m 15,1 C 23,4 C 33,8 km/h (5 Bft) 97,87 %
25.08.2016 15:18 25,8 C 51 % 1018,3 hPa 0,0 l/m 23,1 km/h (4 Bft) O-NO 75 2 min 0,000 mm 4,0 UV-I 684 W/m 14,9 C 23,4 C 35,4 km/h (5 Bft) 100,00 %
25.08.2016 15:20 25,8 C 52 % 1018,2 hPa 0,0 l/m 18,6 km/h (3 Bft) O-NO 71 2 min 0,000 mm 4,0 UV-I 678 W/m 15,2 C 23,8 C 32,2 km/h (5 Bft) 100,00 %
25.08.2016 15:22 25,8 C 50 % 1018,2 hPa 0,0 l/m 24,0 km/h (4 Bft) O-NO 60 2 min 0,000 mm 4,0 UV-I 678 W/m 14,6 C 23,3 C 32,2 km/h (5 Bft) 100,00 %
25.08.2016 15:24 25,8 C 48 % 1018,2 hPa 0,0 l/m 23,0 km/h (4 Bft) O 84 2 min 0,000 mm 3,9 UV-I 674 W/m 13,9 C 23,4 C 35,4 km/h (5 Bft) 100,00 %
25.08.2016 15:26 25,8 C 48 % 1018,2 hPa 0,0 l/m 21,6 km/h (4 Bft) O-NO 60 2 min 0,000 mm 3,9 UV-I 673 W/m 13,9 C 23,5 C 27,4 km/h (4 Bft) 100,00 %
25.08.2016 15:28 25,9 C 49 % 1018,1 hPa 0,0 l/m 18,3 km/h (3 Bft) NO 48 2 min 0,000 mm 3,8 UV-I 670 W/m 14,4 C 24,0 C 29,0 km/h (5 Bft) 100,00 %
25.08.2016 15:30 25,9 C 50 % 1018,2 hPa 0,0 l/m 20,6 km/h (4 Bft) O-NO 57 2 min 0,000 mm 3,8 UV-I 663 W/m 14,7 C 23,8 C 32,2 km/h (5 Bft) 95,74 %
25.08.2016 15:32 26,0 C 51 % 1018,2 hPa 0,0 l/m 20,6 km/h (4 Bft) NO 46 2 min 0,000 mm 3,7 UV-I 655 W/m 15,1 C 23,9 C 32,2 km/h (5 Bft) 100,00 %
25.08.2016 15:34 25,9 C 52 % 1018,2 hPa 0,0 l/m 23,7 km/h (4 Bft) NO 49 2 min 0,000 mm 3,7 UV-I 651 W/m 15,3 C 23,5 C 32,2 km/h (5 Bft) 97,87 %
25.08.2016 15:36 25,9 C 54 % 1018,2 hPa 0,0 l/m 17,7 km/h (3 Bft) O-NO 57 2 min 0,000 mm 3,6 UV-I 647 W/m 15,9 C 24,1 C 27,4 km/h (4 Bft) 96,00 %
25.08.2016 15:38 25,9 C 54 % 1018,2 hPa 0,0 l/m 17,4 km/h (3 Bft) O 90 2 min 0,000 mm 3,5 UV-I 642 W/m 15,9 C 24,1 C 24,1 km/h (4 Bft) 97,87 %
25.08.2016 15:40 25,9 C 53 % 1018,2 hPa 0,0 l/m 17,7 km/h (3 Bft) O 82 2 min 0,000 mm 3,5 UV-I 637 W/m 15,6 C 24,1 C 25,7 km/h (4 Bft) 97,87 %
25.08.2016 15:42 25,9 C 53 % 1018,2 hPa 0,0 l/m 20,9 km/h (4 Bft) O-NO 58 2 min 0,000 mm 3,4 UV-I 633 W/m 15,6 C 23,7 C 30,6 km/h (5 Bft) 97,87 %
25.08.2016 15:44 25,9 C 54 % 1018,1 hPa 0,0 l/m 22,5 km/h (4 Bft) NO 34 2 min 0,000 mm 3,4 UV-I 630 W/m 15,9 C 23,6 C 33,8 km/h (5 Bft) 97,87 %
25.08.2016 15:46 25,9 C 53 % 1018,2 hPa 0,0 l/m 18,9 km/h (3 Bft) O 88 2 min 0,000 mm 3,4 UV-I 626 W/m 15,6 C 23,9 C 32,2 km/h (5 Bft) 97,87 %
25.08.2016 15:48 26,0 C 55 % 1018,1 hPa 0,0 l/m 17,4 km/h (3 Bft) O-NO 66 2 min 0,000 mm 3,3 UV-I 622 W/m 16,2 C 24,2 C 29,0 km/h (5 Bft) 95,74 %
25.08.2016 15:50 26,1 C 54 % 1018,2 hPa 0,0 l/m 22,3 km/h (4 Bft) NO 48 2 min 0,000 mm 3,3 UV-I 620 W/m 16,0 C 23,9 C 32,2 km/h (5 Bft) 95,74 %
25.08.2016 15:52 26,1 C 52 % 1018,1 hPa 0,0 l/m 19,9 km/h (4 Bft) N-NO 29 2 min 0,000 mm 3,2 UV-I 617 W/m 15,5 C 24,1 C 27,4 km/h (4 Bft) 98,00 %
25.08.2016 15:54 26,1 C 53 % 1018,1 hPa 0,0 l/m 19,5 km/h (3 Bft) N-NO 26 2 min 0,000 mm 3,2 UV-I 611 W/m 15,8 C 24,1 C 32,2 km/h (5 Bft) 97,87 %
25.08.2016 15:56 26,0 C 53 % 1018,1 hPa 0,0 l/m 23,5 km/h (4 Bft) NO 44 2 min 0,000 mm 3,1 UV-I 608 W/m 15,7 C 23,6 C 32,2 km/h (5 Bft) 97,92 %
25.08.2016 15:58 25,9 C 54 % 1018,1 hPa 0,0 l/m 19,1 km/h (3 Bft) NO 56 2 min 0,000 mm 3,1 UV-I 602 W/m 15,9 C 23,9 C 27,4 km/h (4 Bft) 95,74 %
25.08.2016 16:00 26,0 C 54 % 1018,1 hPa 0,0 l/m 18,3 km/h (3 Bft) O-NO 61 2 min 0,585 mm 3,0 UV-I 596 W/m 16,0 C 24,1 C 24,1 km/h (4 Bft) 97,87 %
25.08.2016 16:02 26,1 C 54 % 1018,0 hPa 0,0 l/m 22,5 km/h (4 Bft) O-NO 57 2 min 0,000 mm 3,0 UV-I 592 W/m 16,0 C 23,9 C 30,6 km/h (5 Bft) 97,87 %
25.08.2016 16:04 26,0 C 54 % 1018,1 hPa 0,0 l/m 22,6 km/h (4 Bft) O-NO 73 2 min 0,000 mm 3,0 UV-I 589 W/m 16,0 C 23,7 C 29,0 km/h (5 Bft) 97,14 %
25.08.2016 16:06 26,0 C 55 % 1018,0 hPa 0,0 l/m 20,0 km/h (4 Bft) O-NO 57 2 min 0,000 mm 2,9 UV-I 582 W/m 16,2 C 24,0 C 27,4 km/h (4 Bft) 98,00 %
25.08.2016 16:08 26,1 C 55 % 1018,0 hPa 0,0 l/m 18,0 km/h (3 Bft) O-NO 64 2 min 0,000 mm 2,8 UV-I 579 W/m 16,3 C 24,3 C 24,1 km/h (4 Bft) 95,74 %
25.08.2016 16:10 26,2 C 56 % 1018,0 hPa 0,0 l/m 16,9 km/h (3 Bft) O 82 2 min 0,000 mm 2,8 UV-I 575 W/m 16,7 C 24,5 C 25,7 km/h (4 Bft) 100,00 %
25.08.2016 16:12 26,2 C 53 % 1018,0 hPa 0,0 l/m 27,9 km/h (4 Bft) O-NO 57 2 min 0,000 mm 2,7 UV-I 567 W/m 15,8 C 23,6 C 38,6 km/h (5 Bft) 97,96 %
25.08.2016 16:14 26,1 C 55 % 1018,0 hPa 0,0 l/m 22,6 km/h (4 Bft) O-NO 71 2 min 0,000 mm 2,7 UV-I 562 W/m 16,3 C 23,8 C 30,6 km/h (5 Bft) 97,87 %
25.08.2016 16:16 26,1 C 55 % 1018,0 hPa 0,0 l/m 22,0 km/h (4 Bft) NO 40 2 min 0,000 mm 2,6 UV-I 556 W/m 16,3 C 23,9 C 29,0 km/h (5 Bft) 100,00 %
25.08.2016 16:18 26,1 C 55 % 1018,0 hPa 0,0 l/m 22,8 km/h (4 Bft) N-NO 29 2 min 0,000 mm 2,6 UV-I 550 W/m 16,3 C 23,8 C 32,2 km/h (5 Bft) 100,00 %
25.08.2016 16:20 26,0 C 55 % 1017,9 hPa 0,0 l/m 21,0 km/h (4 Bft) O-NO 63 2 min 0,000 mm 2,5 UV-I 547 W/m 16,2 C 23,9 C 29,0 km/h (5 Bft) 100,00 %
25.08.2016 16:22 26,1 C 56 % 1017,8 hPa 0,0 l/m 20,7 km/h (4 Bft) O 90 2 min 0,000 mm 2,5 UV-I 543 W/m 16,6 C 24,0 C 29,0 km/h (5 Bft) 97,44 %
25.08.2016 16:24 26,1 C 56 % 1017,9 hPa 0,0 l/m 19,5 km/h (3 Bft) O-NO 65 2 min 0,000 mm 2,4 UV-I 537 W/m 16,6 C 24,1 C 27,4 km/h (4 Bft) 100,00 %
25.08.2016 16:26 26,1 C 56 % 1017,9 hPa 0,0 l/m 21,0 km/h (4 Bft) NO 40 2 min 0,000 mm 2,4 UV-I 532 W/m 16,6 C 24,0 C 29,0 km/h (5 Bft) 97,87 %
25.08.2016 16:28 26,1 C 56 % 1017,8 hPa 0,0 l/m 20,4 km/h (4 Bft) O-NO 59 2 min 0,000 mm 2,4 UV-I 525 W/m 16,6 C 24,0 C 30,6 km/h (5 Bft) 100,00 %
25.08.2016 16:30 26,1 C 57 % 1017,9 hPa 0,0 l/m 18,1 km/h (3 Bft) O-NO 67 2 min 0,000 mm 2,3 UV-I 521 W/m 16,9 C 24,3 C 25,7 km/h (4 Bft) 100,00 %
25.08.2016 16:32 26,0 C 56 % 1017,9 hPa 0,0 l/m 22,0 km/h (4 Bft) O-NO 61 2 min 0,000 mm 2,3 UV-I 518 W/m 16,5 C 23,8 C 29,0 km/h (5 Bft) 97,92 %
25.08.2016 16:34 26,0 C 56 % 1017,9 hPa 0,0 l/m 22,1 km/h (4 Bft) O-NO 67 2 min 0,000 mm 2,2 UV-I 513 W/m 16,5 C 23,8 C 32,2 km/h (5 Bft) 97,87 %
25.08.2016 16:36 26,0 C 57 % 1017,9 hPa 0,0 l/m 21,9 km/h (4 Bft) O-NO 65 2 min 0,000 mm 2,2 UV-I 508 W/m 16,8 C 23,8 C 30,6 km/h (5 Bft) 100,00 %
25.08.2016 16:38 26,0 C 57 % 1017,9 hPa 0,0 l/m 19,8 km/h (3 Bft) O 81 2 min 0,000 mm 2,2 UV-I 503 W/m 16,8 C 24,0 C 27,4 km/h (4 Bft) 100,00 %
25.08.2016 16:40 25,9 C 56 % 1017,8 hPa 0,0 l/m 22,4 km/h (4 Bft) O-NO 78 2 min 0,000 mm 2,1 UV-I 497 W/m 16,4 C 23,6 C 29,0 km/h (5 Bft) 100,00 %
25.08.2016 16:42 25,9 C 57 % 1017,8 hPa 0,0 l/m 21,5 km/h (4 Bft) O 80 2 min 0,000 mm 2,1 UV-I 492 W/m 16,7 C 23,7 C 30,6 km/h (5 Bft) 100,00 %
25.08.2016 16:44 25,9 C 56 % 1017,8 hPa 0,0 l/m 23,5 km/h (4 Bft) O-NO 75 2 min 0,000 mm 2,0 UV-I 485 W/m 16,4 C 23,5 C 30,6 km/h (5 Bft) 97,14 %
25.08.2016 16:46 25,9 C 58 % 1017,8 hPa 0,0 l/m 18,5 km/h (3 Bft) O-NO 59 2 min 0,000 mm 1,9 UV-I 480 W/m 17,0 C 24,0 C 32,2 km/h (5 Bft) 97,87 %
25.08.2016 16:48 25,9 C 57 % 1017,8 hPa 0,0 l/m 18,8 km/h (3 Bft) NO 53 2 min 0,000 mm 1,9 UV-I 473 W/m 16,7 C 24,0 C 29,0 km/h (5 Bft) 100,00 %
25.08.2016 16:50 25,9 C 58 % 1017,8 hPa 0,0 l/m 17,4 km/h (3 Bft) O-NO 67 2 min 0,000 mm 1,9 UV-I 468 W/m 17,0 C 24,1 C 25,7 km/h (4 Bft) 98,00 %
25.08.2016 16:52 25,9 C 58 % 1017,7 hPa 0,0 l/m 22,1 km/h (4 Bft) O-NO 65 2 min 0,000 mm 1,8 UV-I 462 W/m 17,0 C 23,6 C 30,6 km/h (5 Bft) 100,00 %
25.08.2016 16:54 25,9 C 57 % 1017,7 hPa 0,0 l/m 21,8 km/h (4 Bft) O-NO 65 2 min 0,000 mm 1,8 UV-I 456 W/m 16,7 C 23,7 C 30,6 km/h (5 Bft) 100,00 %
25.08.2016 16:56 25,9 C 57 % 1017,7 hPa 0,0 l/m 15,2 km/h (3 Bft) O-NO 59 2 min 0,000 mm 1,7 UV-I 452 W/m 16,7 C 24,4 C 22,5 km/h (4 Bft) 95,74 %
25.08.2016 16:58 25,9 C 58 % 1017,7 hPa 0,0 l/m 17,1 km/h (3 Bft) O-NO 57 2 min 0,000 mm 1,7 UV-I 448 W/m 17,0 C 24,1 C 24,1 km/h (4 Bft) 97,87 %
25.08.2016 17:00 25,9 C 57 % 1017,7 hPa 0,0 l/m 23,6 km/h (4 Bft) O-NO 59 2 min 0,482 mm 1,6 UV-I 439 W/m 16,7 C 23,5 C 30,6 km/h (5 Bft) 100,00 %
25.08.2016 17:02 25,9 C 58 % 1017,7 hPa 0,0 l/m 17,8 km/h (3 Bft) O-NO 61 2 min 0,000 mm 1,6 UV-I 436 W/m 17,0 C 24,1 C 27,4 km/h (4 Bft) 98,00 %
25.08.2016 17:04 25,9 C 57 % 1017,6 hPa 0,0 l/m 22,5 km/h (4 Bft) O-NO 63 2 min 0,000 mm 1,6 UV-I 430 W/m 16,7 C 23,6 C 30,6 km/h (5 Bft) 98,00 %
25.08.2016 17:06 25,9 C 58 % 1017,7 hPa 0,0 l/m 15,3 km/h (3 Bft) O-NO 60 2 min 0,000 mm 1,5 UV-I 423 W/m 17,0 C 24,4 C 22,5 km/h (4 Bft) 97,37 %
25.08.2016 17:08 25,9 C 57 % 1017,6 hPa 0,0 l/m 22,2 km/h (4 Bft) NO 48 2 min 0,000 mm 1,5 UV-I 416 W/m 16,7 C 23,6 C 33,8 km/h (5 Bft) 100,00 %
25.08.2016 17:10 25,8 C 57 % 1017,6 hPa 0,0 l/m 25,8 km/h (4 Bft) O-NO 61 2 min 0,000 mm 1,5 UV-I 411 W/m 16,6 C 23,2 C 35,4 km/h (5 Bft) 100,00 %
25.08.2016 17:12 25,8 C 57 % 1017,6 hPa 0,0 l/m 22,9 km/h (4 Bft) O-NO 58 2 min 0,000 mm 1,4 UV-I 407 W/m 16,6 C 23,4 C 32,2 km/h (5 Bft) 100,00 %
25.08.2016 17:14 25,8 C 58 % 1017,6 hPa 0,0 l/m 19,4 km/h (3 Bft) NO 46 2 min 0,000 mm 1,4 UV-I 402 W/m 16,9 C 23,8 C 27,4 km/h (4 Bft) 97,87 %
25.08.2016 17:16 25,7 C 58 % 1017,6 hPa 0,0 l/m 21,9 km/h (4 Bft) NO 39 2 min 0,000 mm 1,3 UV-I 397 W/m 16,8 C 23,4 C 29,0 km/h (5 Bft) 100,00 %
25.08.2016 17:18 25,8 C 57 % 1017,6 hPa 0,0 l/m 22,6 km/h (4 Bft) O-NO 75 2 min 0,000 mm 1,3 UV-I 391 W/m 16,6 C 23,4 C 30,6 km/h (5 Bft) 100,00 %
25.08.2016 17:20 25,7 C 58 % 1017,5 hPa 0,0 l/m 22,1 km/h (4 Bft) O-NO 65 2 min 0,000 mm 1,3 UV-I 386 W/m 16,8 C 23,4 C 32,2 km/h (5 Bft) 100,00 %
25.08.2016 17:22 25,7 C 58 % 1017,5 hPa 0,0 l/m 22,3 km/h (4 Bft) NO 46 2 min 0,000 mm 1,2 UV-I 380 W/m 16,8 C 23,3 C 30,6 km/h (5 Bft) 100,00 %
25.08.2016 17:24 25,7 C 58 % 1017,5 hPa 0,0 l/m 21,4 km/h (4 Bft) NO 53 2 min 0,000 mm 1,2 UV-I 374 W/m 16,8 C 23,4 C 29,0 km/h (5 Bft) 100,00 %
25.08.2016 17:26 25,7 C 58 % 1017,5 hPa 0,0 l/m 16,6 km/h (3 Bft) NO 51 2 min 0,000 mm 1,2 UV-I 368 W/m 16,8 C 24,0 C 25,7 km/h (4 Bft) 97,87 %
25.08.2016 17:28 25,7 C 58 % 1017,5 hPa 0,0 l/m 17,6 km/h (3 Bft) NO 56 2 min 0,000 mm 1,1 UV-I 361 W/m 16,8 C 23,8 C 27,4 km/h (4 Bft) 100,00 %
25.08.2016 17:30 25,7 C 58 % 1017,5 hPa 0,0 l/m 16,8 km/h (3 Bft) O-NO 69 2 min 0,000 mm 1,1 UV-I 357 W/m 16,8 C 23,9 C 25,7 km/h (4 Bft) 97,87 %
25.08.2016 17:32 25,8 C 59 % 1017,5 hPa 0,0 l/m 16,2 km/h (3 Bft) O-NO 76 2 min 0,000 mm 1,1 UV-I 349 W/m 17,2 C 24,1 C 22,5 km/h (4 Bft) 91,49 %
25.08.2016 17:34 25,8 C 59 % 1017,4 hPa 0,0 l/m 14,9 km/h (3 Bft) NO 45 2 min 0,000 mm 1,0 UV-I 343 W/m 17,2 C 24,3 C 20,9 km/h (4 Bft) 100,00 %
25.08.2016 17:36 25,8 C 58 % 1017,4 hPa 0,0 l/m 17,6 km/h (3 Bft) O-NO 73 2 min 0,000 mm 1,0 UV-I 339 W/m 16,9 C 24,0 C 27,4 km/h (4 Bft) 91,49 %
25.08.2016 17:38 25,8 C 58 % 1017,4 hPa 0,0 l/m 21,9 km/h (4 Bft) NO 53 2 min 0,000 mm 1,0 UV-I 333 W/m 16,9 C 23,5 C 29,0 km/h (5 Bft) 97,87 %
25.08.2016 17:40 25,7 C 58 % 1017,3 hPa 0,0 l/m 21,2 km/h (4 Bft) O-NO 57 2 min 0,000 mm 0,9 UV-I 327 W/m 16,8 C 23,4 C 27,4 km/h (4 Bft) 93,62 %
25.08.2016 17:42 25,7 C 58 % 1017,4 hPa 0,0 l/m 18,2 km/h (3 Bft) O-NO 67 2 min 0,000 mm 0,9 UV-I 320 W/m 16,8 C 23,8 C 25,7 km/h (4 Bft) 95,74 %
25.08.2016 17:44 25,7 C 58 % 1017,3 hPa 0,0 l/m 17,4 km/h (3 Bft) O-NO 63 2 min 0,000 mm 0,9 UV-I 315 W/m 16,8 C 23,9 C 24,1 km/h (4 Bft) 97,87 %
25.08.2016 17:46 25,7 C 58 % 1017,3 hPa 0,0 l/m 17,2 km/h (3 Bft) NO 36 2 min 0,000 mm 0,9 UV-I 308 W/m 16,8 C 23,9 C 25,7 km/h (4 Bft) 96,00 %
25.08.2016 17:48 25,7 C 58 % 1017,3 hPa 0,0 l/m 19,6 km/h (3 Bft) NO 56 2 min 0,000 mm 0,8 UV-I 303 W/m 16,8 C 23,6 C 27,4 km/h (4 Bft) 98,00 %
25.08.2016 17:50 25,6 C 58 % 1017,3 hPa 0,0 l/m 22,5 km/h (4 Bft) O-NO 76 2 min 0,000 mm 0,8 UV-I 296 W/m 16,7 C 23,2 C 30,6 km/h (5 Bft) 95,74 %
25.08.2016 17:52 25,6 C 58 % 1017,3 hPa 0,0 l/m 22,4 km/h (4 Bft) O-NO 58 2 min 0,000 mm 0,8 UV-I 291 W/m 16,7 C 23,2 C 30,6 km/h (5 Bft) 97,92 %
25.08.2016 17:54 25,6 C 58 % 1017,3 hPa 0,0 l/m 20,1 km/h (4 Bft) O-NO 76 2 min 0,000 mm 0,7 UV-I 285 W/m 16,7 C 23,4 C 25,7 km/h (4 Bft) 97,87 %
25.08.2016 17:56 25,5 C 58 % 1017,3 hPa 0,0 l/m 20,9 km/h (4 Bft) N-NO 20 2 min 0,000 mm 0,7 UV-I 279 W/m 16,6 C 23,2 C 29,0 km/h (5 Bft) 97,30 %
25.08.2016 17:58 25,4 C 58 % 1017,2 hPa 0,0 l/m 20,3 km/h (4 Bft) O-NO 63 2 min 0,000 mm 0,7 UV-I 273 W/m 16,5 C 23,1 C 30,6 km/h (5 Bft) 97,87 %
25.08.2016 18:00 25,4 C 58 % 1017,2 hPa 0,0 l/m 19,0 km/h (3 Bft) NO 55 2 min 0,356 mm 0,7 UV-I 266 W/m 16,5 C 23,3 C 29,0 km/h (5 Bft) 97,87 %
25.08.2016 18:02 25,3 C 58 % 1017,2 hPa 0,0 l/m 19,3 km/h (3 Bft) O-NO 76 2 min 0,000 mm 0,6 UV-I 261 W/m 16,4 C 23,1 C 27,4 km/h (4 Bft) 98,00 %
25.08.2016 18:04 25,3 C 58 % 1017,1 hPa 0,0 l/m 17,0 km/h (3 Bft) NO 55 2 min 0,000 mm 0,6 UV-I 256 W/m 16,4 C 23,4 C 22,5 km/h (4 Bft) 98,11 %
25.08.2016 18:06 25,3 C 58 % 1017,2 hPa 0,0 l/m 23,6 km/h (4 Bft) NO 43 2 min 0,000 mm 0,6 UV-I 251 W/m 16,4 C 22,7 C 30,6 km/h (5 Bft) 100,00 %
25.08.2016 18:08 25,2 C 58 % 1017,2 hPa 0,0 l/m 17,9 km/h (3 Bft) NO 56 2 min 0,000 mm 0,6 UV-I 244 W/m 16,3 C 23,2 C 27,4 km/h (4 Bft) 97,87 %
25.08.2016 18:10 25,2 C 58 % 1017,2 hPa 0,0 l/m 20,6 km/h (4 Bft) O-NO 62 2 min 0,000 mm 0,5 UV-I 238 W/m 16,3 C 22,9 C 30,6 km/h (5 Bft) 97,87 %
25.08.2016 18:12 25,2 C 59 % 1017,2 hPa 0,0 l/m 18,3 km/h (3 Bft) O-NO 71 2 min 0,000 mm 0,5 UV-I 232 W/m 16,6 C 23,1 C 25,7 km/h (4 Bft) 97,14 %
25.08.2016 18:14 25,1 C 59 % 1017,2 hPa 0,0 l/m 17,2 km/h (3 Bft) NO 38 2 min 0,000 mm 0,5 UV-I 226 W/m 16,5 C 23,1 C 27,4 km/h (4 Bft) 100,00 %
25.08.2016 18:16 25,1 C 59 % 1017,2 hPa 0,0 l/m 18,7 km/h (3 Bft) O-NO 65 2 min 0,000 mm 0,5 UV-I 219 W/m 16,5 C 22,9 C 27,4 km/h (4 Bft) 97,87 %
25.08.2016 18:18 25,1 C 59 % 1017,2 hPa 0,0 l/m 20,0 km/h (4 Bft) O-NO 60 2 min 0,000 mm 0,5 UV-I 213 W/m 16,5 C 22,8 C 33,8 km/h (5 Bft) 97,87 %
25.08.2016 18:20 25,1 C 59 % 1017,1 hPa 0,0 l/m 17,4 km/h (3 Bft) NO 47 2 min 0,000 mm 0,0 UV-I 206 W/m 16,5 C 23,1 C 24,1 km/h (4 Bft) 97,87 %
25.08.2016 18:22 25,0 C 60 % 1017,2 hPa 0,0 l/m 16,6 km/h (3 Bft) O-NO 59 2 min 0,000 mm 0,0 UV-I 200 W/m 16,7 C 23,1 C 24,1 km/h (4 Bft) 100,00 %
25.08.2016 18:24 24,9 C 59 % 1017,2 hPa 0,0 l/m 18,3 km/h (3 Bft) NO 54 2 min 0,000 mm 0,0 UV-I 193 W/m 16,3 C 22,7 C 25,7 km/h (4 Bft) 100,00 %
25.08.2016 18:26 24,9 C 59 % 1017,1 hPa 0,0 l/m 18,0 km/h (3 Bft) NO 52 2 min 0,000 mm 0,0 UV-I 187 W/m 16,3 C 22,8 C 22,5 km/h (4 Bft) 100,00 %
25.08.2016 18:28 24,9 C 59 % 1017,1 hPa 0,0 l/m 17,8 km/h (3 Bft) O 85 2 min 0,000 mm 0,0 UV-I 181 W/m 16,3 C 22,8 C 24,1 km/h (4 Bft) 97,87 %
25.08.2016 18:30 24,9 C 59 % 1017,1 hPa 0,0 l/m 21,7 km/h (4 Bft) NO 38 2 min 0,000 mm 0,0 UV-I 175 W/m 16,3 C 22,3 C 29,0 km/h (5 Bft) 100,00 %
25.08.2016 18:32 24,8 C 59 % 1017,1 hPa 0,0 l/m 19,5 km/h (3 Bft) O-NO 71 2 min 0,000 mm 0,0 UV-I 168 W/m 16,2 C 22,5 C 25,7 km/h (4 Bft) 100,00 %
25.08.2016 18:34 24,8 C 60 % 1017,1 hPa 0,0 l/m 18,2 km/h (3 Bft) O 84 2 min 0,000 mm 0,0 UV-I 161 W/m 16,5 C 22,6 C 24,1 km/h (4 Bft) 100,00 %
25.08.2016 18:36 24,8 C 59 % 1017,1 hPa 0,0 l/m 19,2 km/h (3 Bft) NO 53 2 min 0,000 mm 0,0 UV-I 154 W/m 16,2 C 22,5 C 29,0 km/h (5 Bft) 100,00 %
25.08.2016 18:38 24,7 C 60 % 1017,1 hPa 0,0 l/m 17,3 km/h (3 Bft) O-NO 64 2 min 0,000 mm 0,0 UV-I 149 W/m 16,4 C 22,6 C 22,5 km/h (4 Bft) 100,00 %
25.08.2016 18:40 24,7 C 60 % 1017,1 hPa 0,0 l/m 15,4 km/h (3 Bft) NO 44 2 min 0,000 mm 0,0 UV-I 142 W/m 16,4 C 22,9 C 22,5 km/h (4 Bft) 100,00 %
25.08.2016 18:42 24,7 C 60 % 1017,1 hPa 0,0 l/m 17,4 km/h (3 Bft) NO 53 2 min 0,000 mm 0,0 UV-I 135 W/m 16,4 C 22,6 C 25,7 km/h (4 Bft) 100,00 %
25.08.2016 18:44 24,6 C 59 % 1017,1 hPa 0,0 l/m 22,1 km/h (4 Bft) O-NO 76 2 min 0,000 mm 0,0 UV-I 129 W/m 16,0 C 21,9 C 29,0 km/h (5 Bft) 100,00 %
25.08.2016 18:46 24,6 C 59 % 1017,1 hPa 0,0 l/m 16,0 km/h (3 Bft) NO 51 2 min 0,000 mm 0,0 UV-I 123 W/m 16,0 C 22,7 C 20,9 km/h (4 Bft) 100,00 %
25.08.2016 18:48 24,6 C 59 % 1017,1 hPa 0,0 l/m 18,0 km/h (3 Bft) O-NO 67 2 min 0,000 mm 0,0 UV-I 117 W/m 16,0 C 22,4 C 30,6 km/h (5 Bft) 100,00 %
25.08.2016 18:50 24,5 C 60 % 1017,1 hPa 0,0 l/m 18,5 km/h (3 Bft) NO 52 2 min 0,000 mm 0,0 UV-I 111 W/m 16,2 C 22,2 C 24,1 km/h (4 Bft) 100,00 %
25.08.2016 18:52 24,5 C 60 % 1017,1 hPa 0,0 l/m 17,5 km/h (3 Bft) O-NO 61 2 min 0,000 mm 0,0 UV-I 105 W/m 16,2 C 22,3 C 25,7 km/h (4 Bft) 95,74 %
25.08.2016 18:54 24,4 C 60 % 1017,1 hPa 0,0 l/m 17,6 km/h (3 Bft) NO 52 2 min 0,000 mm 0,0 UV-I 99 W/m 16,1 C 22,2 C 22,5 km/h (4 Bft) 97,87 %
25.08.2016 18:56 24,4 C 60 % 1017,1 hPa 0,0 l/m 17,7 km/h (3 Bft) O-NO 61 2 min 0,000 mm 0,0 UV-I 94 W/m 16,1 C 22,2 C 25,7 km/h (4 Bft) 100,00 %
25.08.2016 18:58 24,3 C 60 % 1017,2 hPa 0,0 l/m 16,1 km/h (3 Bft) O-NO 64 2 min 0,000 mm 0,0 UV-I 88 W/m 16,0 C 22,3 C 22,5 km/h (4 Bft) 100,00 %
25.08.2016 19:00 24,3 C 60 % 1017,1 hPa 0,0 l/m 20,9 km/h (4 Bft) NO 50 0 min 0,228 mm 0,0 UV-I 82 W/m 16,0 C 21,7 C 29,0 km/h (5 Bft) 97,37 %
25.08.2016 19:02 24,3 C 60 % 1017,2 hPa 0,0 l/m 20,0 km/h (4 Bft) NO 52 0 min 0,000 mm 0,0 UV-I 77 W/m 16,0 C 21,8 C 27,4 km/h (4 Bft) 100,00 %
25.08.2016 19:04 24,2 C 60 % 1017,1 hPa 0,0 l/m 15,7 km/h (3 Bft) NO 49 0 min 0,000 mm 0,0 UV-I 73 W/m 15,9 C 22,2 C 22,5 km/h (4 Bft) 100,00 %
25.08.2016 19:06 24,2 C 60 % 1017,2 hPa 0,0 l/m 19,0 km/h (3 Bft) NO 46 0 min 0,000 mm 0,0 UV-I 68 W/m 15,9 C 21,8 C 25,7 km/h (4 Bft) 100,00 %
25.08.2016 19:08 24,2 C 60 % 1017,2 hPa 0,0 l/m 17,1 km/h (3 Bft) O-NO 68 0 min 0,000 mm 0,0 UV-I 63 W/m 15,9 C 22,0 C 30,6 km/h (5 Bft) 100,00 %
25.08.2016 19:10 24,1 C 60 % 1017,2 hPa 0,0 l/m 13,7 km/h (3 Bft) NO 46 0 min 0,000 mm 0,0 UV-I 59 W/m 15,8 C 22,4 C 22,5 km/h (4 Bft) 100,00 %
25.08.2016 19:12 24,1 C 61 % 1017,2 hPa 0,0 l/m 17,0 km/h (3 Bft) O-NO 74 0 min 0,000 mm 0,0 UV-I 56 W/m 16,1 C 21,9 C 24,1 km/h (4 Bft) 97,87 %
25.08.2016 19:14 24,0 C 61 % 1017,2 hPa 0,0 l/m 15,9 km/h (3 Bft) NO 42 0 min 0,000 mm 0,0 UV-I 51 W/m 16,0 C 22,0 C 20,9 km/h (4 Bft) 97,87 %
25.08.2016 19:16 23,9 C 61 % 1017,2 hPa 0,0 l/m 16,5 km/h (3 Bft) NO 55 0 min 0,000 mm 0,0 UV-I 47 W/m 15,9 C 21,7 C 22,5 km/h (4 Bft) 100,00 %
25.08.2016 19:18 23,8 C 61 % 1017,2 hPa 0,0 l/m 15,8 km/h (3 Bft) O-NO 58 0 min 0,000 mm 0,0 UV-I 42 W/m 15,8 C 21,7 C 20,9 km/h (4 Bft) 100,00 %
25.08.2016 19:20 23,8 C 61 % 1017,2 hPa 0,0 l/m 16,2 km/h (3 Bft) NO 48 0 min 0,000 mm 0,0 UV-I 39 W/m 15,8 C 21,7 C 22,5 km/h (4 Bft) 100,00 %
25.08.2016 19:22 23,8 C 61 % 1017,3 hPa 0,0 l/m 15,9 km/h (3 Bft) O-NO 66 0 min 0,000 mm 0,0 UV-I 34 W/m 15,8 C 21,7 C 25,7 km/h (4 Bft) 97,87 %
25.08.2016 19:24 23,7 C 61 % 1017,3 hPa 0,0 l/m 20,1 km/h (4 Bft) O-NO 69 0 min 0,000 mm 0,0 UV-I 31 W/m 15,7 C 21,0 C 27,4 km/h (4 Bft) 96,00 %
25.08.2016 19:26 23,7 C 60 % 1017,3 hPa 0,0 l/m 20,5 km/h (4 Bft) O-NO 66 0 min 0,000 mm 0,0 UV-I 27 W/m 15,5 C 20,9 C 29,0 km/h (5 Bft) 98,11 %
25.08.2016 19:28 23,7 C 60 % 1017,3 hPa 0,0 l/m 20,0 km/h (4 Bft) O-NO 60 0 min 0,000 mm 0,0 UV-I 25 W/m 15,5 C 21,0 C 29,0 km/h (5 Bft) 95,74 %
25.08.2016 19:30 23,7 C 60 % 1017,3 hPa 0,0 l/m 23,0 km/h (4 Bft) O-NO 71 0 min 0,000 mm 0,0 UV-I 22 W/m 15,5 C 20,6 C 32,2 km/h (5 Bft) 97,87 %
25.08.2016 19:32 23,6 C 60 % 1017,3 hPa 0,0 l/m 18,9 km/h (3 Bft) O-NO 59 0 min 0,000 mm 0,0 UV-I 20 W/m 15,4 C 21,0 C 32,2 km/h (5 Bft) 92,11 %
25.08.2016 19:34 23,6 C 60 % 1017,3 hPa 0,0 l/m 15,8 km/h (3 Bft) O 81 0 min 0,000 mm 0,0 UV-I 18 W/m 15,4 C 21,5 C 20,9 km/h (4 Bft) 97,87 %
25.08.2016 19:36 23,5 C 60 % 1017,3 hPa 0,0 l/m 15,5 km/h (3 Bft) O-NO 63 0 min 0,000 mm 0,0 UV-I 17 W/m 15,3 C 21,4 C 24,1 km/h (4 Bft) 95,74 %
25.08.2016 19:38 23,4 C 61 % 1017,4 hPa 0,0 l/m 15,1 km/h (3 Bft) NO 50 0 min 0,000 mm 0,0 UV-I 16 W/m 15,4 C 21,4 C 20,9 km/h (4 Bft) 94,00 %
25.08.2016 19:40 23,4 C 61 % 1017,4 hPa 0,0 l/m 15,6 km/h (3 Bft) O-NO 68 0 min 0,000 mm 0,0 UV-I 15 W/m 15,4 C 21,3 C 22,5 km/h (4 Bft) 97,87 %
25.08.2016 19:42 23,3 C 61 % 1017,4 hPa 0,0 l/m 15,3 km/h (3 Bft) O-NO 68 0 min 0,000 mm 0,0 UV-I 14 W/m 15,3 C 21,2 C 20,9 km/h (4 Bft) 97,87 %
25.08.2016 19:44 23,2 C 62 % 1017,4 hPa 0,0 l/m 13,7 km/h (3 Bft) NO 48 0 min 0,000 mm 0,0 UV-I 12 W/m 15,5 C 21,4 C 16,1 km/h (3 Bft) 97,87 %
25.08.2016 19:46 23,1 C 62 % 1017,3 hPa 0,0 l/m 13,9 km/h (3 Bft) NO 48 2 min 0,000 mm 0,0 UV-I 12 W/m 15,4 C 21,2 C 22,5 km/h (4 Bft) 97,92 %
25.08.2016 19:48 23,1 C 63 % 1017,3 hPa 0,0 l/m 12,9 km/h (3 Bft) O-NO 64 0 min 0,000 mm 0,0 UV-I 11 W/m 15,7 C 21,4 C 20,9 km/h (4 Bft) 98,00 %
25.08.2016 19:50 23,0 C 63 % 1017,3 hPa 0,0 l/m 17,4 km/h (3 Bft) O-NO 65 0 min 0,000 mm 0,0 UV-I 10 W/m 15,6 C 20,5 C 25,7 km/h (4 Bft) 95,74 %
25.08.2016 19:52 22,9 C 63 % 1017,3 hPa 0,0 l/m 16,4 km/h (3 Bft) O 84 0 min 0,000 mm 0,0 UV-I 9 W/m 15,5 C 20,5 C 25,7 km/h (4 Bft) 93,62 %
25.08.2016 19:54 22,9 C 63 % 1017,3 hPa 0,0 l/m 16,5 km/h (3 Bft) NO 49 0 min 0,000 mm 0,0 UV-I 9 W/m 15,5 C 20,5 C 22,5 km/h (4 Bft) 95,74 %
25.08.2016 19:56 22,8 C 63 % 1017,3 hPa 0,0 l/m 18,8 km/h (3 Bft) O-NO 73 0 min 0,000 mm 0,0 UV-I 7 W/m 15,4 C 20,0 C 24,1 km/h (4 Bft) 97,37 %
25.08.2016 19:58 22,7 C 63 % 1017,4 hPa 0,0 l/m 16,4 km/h (3 Bft) O-NO 69 0 min 0,000 mm 0,0 UV-I 7 W/m 15,3 C 20,3 C 24,1 km/h (4 Bft) 95,74 %
25.08.2016 20:00 22,7 C 63 % 1017,4 hPa 0,0 l/m 15,8 km/h (3 Bft) O-NO 66 0 min 0,000 mm 0,0 UV-I 5 W/m 15,3 C 20,4 C 27,4 km/h (4 Bft) 97,87 %
25.08.2016 20:02 22,7 C 63 % 1017,5 hPa 0,0 l/m 17,9 km/h (3 Bft) O-NO 59 0 min 0,127 mm 0,0 UV-I 5 W/m 15,3 C 20,0 C 24,1 km/h (4 Bft) 96,00 %
25.08.2016 20:04 22,6 C 63 % 1017,5 hPa 0,0 l/m 17,2 km/h (3 Bft) NO 56 0 min 0,000 mm 0,0 UV-I 4 W/m 15,2 C 20,0 C 24,1 km/h (4 Bft) 100,00 %
25.08.2016 20:06 22,6 C 63 % 1017,5 hPa 0,0 l/m 16,8 km/h (3 Bft) NO 53 0 min 0,000 mm 0,0 UV-I 0 W/m 15,2 C 20,1 C 27,4 km/h (4 Bft) 95,74 %
25.08.2016 20:08 22,6 C 63 % 1017,5 hPa 0,0 l/m 18,2 km/h (3 Bft) O-NO 57 0 min 0,000 mm 0,0 UV-I 0 W/m 15,2 C 19,8 C 24,1 km/h (4 Bft) 100,00 %
25.08.2016 20:10 22,6 C 63 % 1017,5 hPa 0,0 l/m 17,0 km/h (3 Bft) N-NO 28 0 min 0,000 mm 0,0 UV-I 0 W/m 15,2 C 20,0 C 20,9 km/h (4 Bft) 97,87 %
25.08.2016 20:12 22,5 C 63 % 1017,5 hPa 0,0 l/m 17,3 km/h (3 Bft) NO 40 0 min 0,000 mm 0,0 UV-I 0 W/m 15,1 C 19,9 C 24,1 km/h (4 Bft) 100,00 %
25.08.2016 20:14 22,4 C 63 % 1017,5 hPa 0,0 l/m 16,0 km/h (3 Bft) NO 50 0 min 0,000 mm 0,0 UV-I 0 W/m 15,0 C 20,0 C 24,1 km/h (4 Bft) 100,00 %
25.08.2016 20:16 22,4 C 63 % 1017,6 hPa 0,0 l/m 17,7 km/h (3 Bft) NO 55 0 min 0,000 mm 0,0 UV-I 0 W/m 15,0 C 19,7 C 25,7 km/h (4 Bft) 100,00 %
25.08.2016 20:18 22,3 C 63 % 1017,6 hPa 0,0 l/m 16,6 km/h (3 Bft) O-NO 64 0 min 0,000 mm 0,0 UV-I 0 W/m 14,9 C 19,7 C 20,9 km/h (4 Bft) 97,87 %
25.08.2016 20:20 22,3 C 64 % 1017,6 hPa 0,0 l/m 14,7 km/h (3 Bft) O-NO 57 0 min 0,000 mm 0,0 UV-I 0 W/m 15,2 C 20,1 C 24,1 km/h (4 Bft) 100,00 %
25.08.2016 20:22 22,3 C 64 % 1017,6 hPa 0,0 l/m 14,5 km/h (3 Bft) NO 41 0 min 0,000 mm 0,0 UV-I 0 W/m 15,2 C 20,1 C 24,1 km/h (4 Bft) 100,00 %
25.08.2016 20:24 22,2 C 64 % 1017,6 hPa 0,0 l/m 15,8 km/h (3 Bft) NO 53 0 min 0,000 mm 0,0 UV-I 0 W/m 15,1 C 19,8 C 27,4 km/h (4 Bft) 100,00 %
25.08.2016 20:26 22,2 C 64 % 1017,6 hPa 0,0 l/m 17,1 km/h (3 Bft) NO 51 0 min 0,000 mm 0,0 UV-I 0 W/m 15,1 C 19,5 C 22,5 km/h (4 Bft) 100,00 %
25.08.2016 20:28 22,2 C 64 % 1017,6 hPa 0,0 l/m 15,7 km/h (3 Bft) O-NO 71 0 min 0,000 mm 0,0 UV-I 0 W/m 15,1 C 19,8 C 20,9 km/h (4 Bft) 100,00 %
25.08.2016 20:30 22,1 C 64 % 1017,6 hPa 0,0 l/m 17,5 km/h (3 Bft) NO 45 0 min 0,000 mm 0,0 UV-I 0 W/m 15,0 C 19,3 C 25,7 km/h (4 Bft) 97,87 %
25.08.2016 20:32 22,1 C 64 % 1017,7 hPa 0,0 l/m 16,8 km/h (3 Bft) O-NO 57 0 min 0,000 mm 0,0 UV-I 0 W/m 15,0 C 19,5 C 24,1 km/h (4 Bft) 100,00 %
25.08.2016 20:34 22,1 C 64 % 1017,7 hPa 0,0 l/m 19,0 km/h (3 Bft) O-NO 65 0 min 0,000 mm 0,0 UV-I 0 W/m 15,0 C 19,1 C 30,6 km/h (5 Bft) 100,00 %
25.08.2016 20:36 22,1 C 64 % 1017,6 hPa 0,0 l/m 17,8 km/h (3 Bft) NO 36 0 min 0,000 mm 0,0 UV-I 0 W/m 15,0 C 19,3 C 24,1 km/h (4 Bft) 95,74 %
25.08.2016 20:38 22,0 C 64 % 1017,7 hPa 0,0 l/m 17,6 km/h (3 Bft) NO 44 0 min 0,000 mm 0,0 UV-I 0 W/m 14,9 C 19,2 C 25,7 km/h (4 Bft) 97,87 %
25.08.2016 20:40 21,9 C 64 % 1017,7 hPa 0,0 l/m 18,3 km/h (3 Bft) NO 56 0 min 0,000 mm 0,0 UV-I 0 W/m 14,8 C 18,9 C 25,7 km/h (4 Bft) 100,00 %
25.08.2016 20:42 21,9 C 64 % 1017,8 hPa 0,0 l/m 18,0 km/h (3 Bft) NO 53 0 min 0,000 mm 0,0 UV-I 0 W/m 14,8 C 19,0 C 25,7 km/h (4 Bft) 97,87 %
25.08.2016 20:44 21,9 C 65 % 1017,8 hPa 0,0 l/m 18,8 km/h (3 Bft) NO 54 0 min 0,000 mm 0,0 UV-I 0 W/m 15,0 C 18,9 C 24,1 km/h (4 Bft) 97,87 %
25.08.2016 20:46 21,8 C 65 % 1017,8 hPa 0,0 l/m 18,3 km/h (3 Bft) O-NO 57 0 min 0,000 mm 0,0 UV-I 0 W/m 14,9 C 18,8 C 24,1 km/h (4 Bft) 100,00 %
25.08.2016 20:48 21,8 C 64 % 1017,8 hPa 0,0 l/m 18,8 km/h (3 Bft) O-NO 69 0 min 0,000 mm 0,0 UV-I 0 W/m 14,7 C 18,7 C 25,7 km/h (4 Bft) 97,87 %
25.08.2016 20:50 21,8 C 65 % 1017,8 hPa 0,0 l/m 19,9 km/h (4 Bft) NO 53 0 min 0,000 mm 0,0 UV-I 0 W/m 14,9 C 18,5 C 24,1 km/h (4 Bft) 100,00 %
25.08.2016 20:52 21,8 C 65 % 1017,8 hPa 0,0 l/m 16,2 km/h (3 Bft) NO 56 0 min 0,000 mm 0,0 UV-I 0 W/m 14,9 C 19,2 C 20,9 km/h (4 Bft) 100,00 %
25.08.2016 20:54 21,7 C 65 % 1017,8 hPa 0,0 l/m 14,2 km/h (3 Bft) NO 50 0 min 0,000 mm 0,0 UV-I 0 W/m 14,8 C 19,5 C 19,3 km/h (3 Bft) 95,74 %
25.08.2016 20:56 21,6 C 65 % 1017,9 hPa 0,0 l/m 16,0 km/h (3 Bft) NO 49 0 min 0,000 mm 0,0 UV-I 0 W/m 14,7 C 19,0 C 22,5 km/h (4 Bft) 100,00 %
25.08.2016 20:58 21,6 C 66 % 1017,9 hPa 0,0 l/m 13,8 km/h (3 Bft) NO 49 0 min 0,000 mm 0,0 UV-I 0 W/m 15,0 C 19,4 C 17,7 km/h (3 Bft) 100,00 %
25.08.2016 21:00 21,5 C 66 % 1017,9 hPa 0,0 l/m 11,0 km/h (2 Bft) N-NO 26 0 min 0,102 mm 0,0 UV-I 0 W/m 14,9 C 20,0 C 16,1 km/h (3 Bft) 100,00 %
25.08.2016 21:02 21,4 C 66 % 1017,9 hPa 0,0 l/m 12,1 km/h (2 Bft) O-NO 69 0 min 0,000 mm 0,0 UV-I 0 W/m 14,8 C 19,6 C 17,7 km/h (3 Bft) 100,00 %
25.08.2016 21:04 21,3 C 67 % 1017,9 hPa 0,0 l/m 12,2 km/h (2 Bft) NO 43 0 min 0,000 mm 0,0 UV-I 0 W/m 14,9 C 19,5 C 17,7 km/h (3 Bft) 100,00 %
25.08.2016 21:06 21,2 C 67 % 1017,9 hPa 0,0 l/m 11,9 km/h (2 Bft) NO 53 0 min 0,000 mm 0,0 UV-I 0 W/m 14,8 C 19,4 C 19,3 km/h (3 Bft) 100,00 %
25.08.2016 21:08 21,1 C 67 % 1017,9 hPa 0,0 l/m 9,5 km/h (2 Bft) O-NO 66 0 min 0,000 mm 0,0 UV-I 0 W/m 14,7 C 20,0 C 14,5 km/h (3 Bft) 100,00 %
25.08.2016 21:10 21,0 C 68 % 1017,9 hPa 0,0 l/m 10,4 km/h (2 Bft) NO 55 0 min 0,000 mm 0,0 UV-I 0 W/m 14,9 C 19,6 C 17,7 km/h (3 Bft) 100,00 %
25.08.2016 21:12 20,9 C 68 % 1017,8 hPa 0,0 l/m 10,4 km/h (2 Bft) NO 56 0 min 0,000 mm 0,0 UV-I 0 W/m 14,8 C 19,5 C 19,3 km/h (3 Bft) 98,00 %
25.08.2016 21:14 20,8 C 68 % 1017,9 hPa 0,0 l/m 12,4 km/h (3 Bft) O-NO 58 0 min 0,000 mm 0,0 UV-I 0 W/m 14,7 C 18,8 C 17,7 km/h (3 Bft) 100,00 %
25.08.2016 21:16 20,8 C 68 % 1017,8 hPa 0,0 l/m 11,5 km/h (2 Bft) NO 39 0 min 0,000 mm 0,0 UV-I 0 W/m 14,7 C 19,1 C 17,7 km/h (3 Bft) 100,00 %
25.08.2016 21:18 20,8 C 69 % 1017,9 hPa 0,0 l/m 12,3 km/h (3 Bft) O-NO 63 0 min 0,000 mm 0,0 UV-I 0 W/m 14,9 C 18,9 C 16,1 km/h (3 Bft) 100,00 %
25.08.2016 21:20 20,7 C 69 % 1017,8 hPa 0,0 l/m 14,0 km/h (3 Bft) O-NO 62 0 min 0,000 mm 0,0 UV-I 0 W/m 14,8 C 18,3 C 20,9 km/h (4 Bft) 100,00 %
25.08.2016 21:22 20,8 C 69 % 1017,8 hPa 0,0 l/m 12,9 km/h (3 Bft) O-NO 67 0 min 0,000 mm 0,0 UV-I 0 W/m 14,9 C 18,7 C 19,3 km/h (3 Bft) 97,87 %
25.08.2016 21:24 20,7 C 69 % 1017,8 hPa 0,0 l/m 14,7 km/h (3 Bft) O-NO 68 0 min 0,000 mm 0,0 UV-I 0 W/m 14,8 C 18,2 C 22,5 km/h (4 Bft) 97,37 %
25.08.2016 21:26 20,7 C 69 % 1017,8 hPa 0,0 l/m 13,9 km/h (3 Bft) O-NO 70 0 min 0,000 mm 0,0 UV-I 0 W/m 14,8 C 18,4 C 20,9 km/h (4 Bft) 96,00 %
25.08.2016 21:28 20,7 C 69 % 1017,7 hPa 0,0 l/m 13,1 km/h (3 Bft) O-NO 67 0 min 0,000 mm 0,0 UV-I 0 W/m 14,8 C 18,5 C 17,7 km/h (3 Bft) 97,87 %
25.08.2016 21:30 20,7 C 69 % 1017,7 hPa 0,0 l/m 11,6 km/h (2 Bft) O-NO 57 0 min 0,000 mm 0,0 UV-I 0 W/m 14,8 C 18,9 C 17,7 km/h (3 Bft) 97,87 %
25.08.2016 21:32 20,6 C 69 % 1017,7 hPa 0,0 l/m 13,8 km/h (3 Bft) O-NO 65 0 min 0,000 mm 0,0 UV-I 0 W/m 14,7 C 18,3 C 20,9 km/h (4 Bft) 97,87 %
25.08.2016 21:34 20,6 C 69 % 1017,7 hPa 0,0 l/m 13,5 km/h (3 Bft) O-NO 69 0 min 0,000 mm 0,0 UV-I 0 W/m 14,7 C 18,3 C 17,7 km/h (3 Bft) 97,87 %
25.08.2016 21:36 20,5 C 69 % 1017,7 hPa 0,0 l/m 13,0 km/h (3 Bft) O-NO 67 0 min 0,000 mm 0,0 UV-I 0 W/m 14,6 C 18,3 C 17,7 km/h (3 Bft) 97,87 %
25.08.2016 21:38 20,5 C 70 % 1017,6 hPa 0,0 l/m 13,6 km/h (3 Bft) O-NO 74 0 min 0,000 mm 0,0 UV-I 0 W/m 14,8 C 18,2 C 17,7 km/h (3 Bft) 95,74 %
25.08.2016 21:40 20,4 C 70 % 1017,6 hPa 0,0 l/m 15,6 km/h (3 Bft) O-NO 59 0 min 0,000 mm 0,0 UV-I 0 W/m 14,7 C 17,6 C 20,9 km/h (4 Bft) 98,00 %
25.08.2016 21:42 20,4 C 70 % 1017,6 hPa 0,0 l/m 14,8 km/h (3 Bft) O-NO 69 0 min 0,000 mm 0,0 UV-I 0 W/m 14,7 C 17,8 C 17,7 km/h (3 Bft) 98,00 %
25.08.2016 21:44 20,3 C 70 % 1017,6 hPa 0,0 l/m 14,3 km/h (3 Bft) O-NO 61 0 min 0,000 mm 0,0 UV-I 0 W/m 14,6 C 17,8 C 19,3 km/h (3 Bft) 97,87 %
25.08.2016 21:46 20,3 C 70 % 1017,6 hPa 0,0 l/m 14,2 km/h (3 Bft) O-NO 60 0 min 0,000 mm 0,0 UV-I 0 W/m 14,6 C 17,8 C 17,7 km/h (3 Bft) 97,92 %
25.08.2016 21:48 20,2 C 71 % 1017,6 hPa 0,0 l/m 12,9 km/h (3 Bft) NO 49 0 min 0,000 mm 0,0 UV-I 0 W/m 14,8 C 18,0 C 16,1 km/h (3 Bft) 97,14 %
25.08.2016 21:50 20,2 C 71 % 1017,6 hPa 0,0 l/m 13,7 km/h (3 Bft) NO 46 0 min 0,000 mm 0,0 UV-I 0 W/m 14,8 C 17,8 C 17,7 km/h (3 Bft) 97,87 %
25.08.2016 21:52 20,2 C 71 % 1017,6 hPa 0,0 l/m 13,5 km/h (3 Bft) NO 54 0 min 0,000 mm 0,0 UV-I 0 W/m 14,8 C 17,9 C 17,7 km/h (3 Bft) 95,74 %
25.08.2016 21:54 20,1 C 71 % 1017,6 hPa 0,0 l/m 12,4 km/h (3 Bft) NO 56 0 min 0,000 mm 0,0 UV-I 0 W/m 14,7 C 18,0 C 16,1 km/h (3 Bft) 97,87 %
25.08.2016 21:56 20,1 C 71 % 1017,6 hPa 0,0 l/m 11,3 km/h (2 Bft) NO 56 0 min 0,000 mm 0,0 UV-I 0 W/m 14,7 C 18,3 C 16,1 km/h (3 Bft) 95,74 %
25.08.2016 21:58 20,1 C 71 % 1017,6 hPa 0,0 l/m 10,5 km/h (2 Bft) NO 47 0 min 0,000 mm 0,0 UV-I 0 W/m 14,7 C 18,6 C 16,1 km/h (3 Bft) 98,11 %
25.08.2016 22:00 19,9 C 72 % 1017,7 hPa 0,0 l/m 9,9 km/h (2 Bft) O-NO 61 0 min 0,051 mm 0,0 UV-I 0 W/m 14,7 C 18,6 C 16,1 km/h (3 Bft) 100,00 %
25.08.2016 22:02 19,8 C 72 % 1017,7 hPa 0,0 l/m 10,0 km/h (2 Bft) O-NO 71 0 min 0,000 mm 0,0 UV-I 0 W/m 14,6 C 18,4 C 14,5 km/h (3 Bft) 97,87 %
25.08.2016 22:04 19,8 C 72 % 1017,6 hPa 0,0 l/m 8,8 km/h (2 Bft) O-NO 59 0 min 0,000 mm 0,0 UV-I 0 W/m 14,6 C 18,8 C 12,9 km/h (3 Bft) 100,00 %
25.08.2016 22:06 19,8 C 72 % 1017,6 hPa 0,0 l/m 7,5 km/h (2 Bft) O-NO 59 0 min 0,000 mm 0,0 UV-I 0 W/m 14,6 C 19,3 C 11,3 km/h (2 Bft) 100,00 %
25.08.2016 22:08 19,7 C 73 % 1017,6 hPa 0,0 l/m 8,2 km/h (2 Bft) NO 50 0 min 0,000 mm 0,0 UV-I 0 W/m 14,7 C 19,0 C 11,3 km/h (2 Bft) 98,00 %
25.08.2016 22:10 19,6 C 73 % 1017,6 hPa 0,0 l/m 7,1 km/h (2 Bft) O-NO 69 0 min 0,000 mm 0,0 UV-I 0 W/m 14,6 C 19,3 C 9,7 km/h (2 Bft) 97,87 %
25.08.2016 22:12 19,5 C 73 % 1017,6 hPa 0,0 l/m 6,4 km/h (2 Bft) O-NO 63 0 min 0,000 mm 0,0 UV-I 0 W/m 14,5 C 19,5 C 9,7 km/h (2 Bft) 97,37 %
25.08.2016 22:14 19,4 C 74 % 1017,6 hPa 0,0 l/m 5,5 km/h (1 Bft) NO 47 0 min 0,000 mm 0,0 UV-I 0 W/m 14,6 C 19,4 C 8,0 km/h (2 Bft) 100,00 %
25.08.2016 22:16 19,3 C 74 % 1017,6 hPa 0,0 l/m 6,4 km/h (2 Bft) O-NO 59 0 min 0,000 mm 0,0 UV-I 0 W/m 14,5 C 19,3 C 9,7 km/h (2 Bft) 100,00 %
25.08.2016 22:18 19,1 C 75 % 1017,6 hPa 0,0 l/m 6,6 km/h (2 Bft) NO 42 0 min 0,000 mm 0,0 UV-I 0 W/m 14,6 C 19,0 C 9,7 km/h (2 Bft) 100,00 %
25.08.2016 22:20 18,9 C 75 % 1017,6 hPa 0,0 l/m 5,2 km/h (1 Bft) NO 38 0 min 0,000 mm 0,0 UV-I 0 W/m 14,4 C 18,9 C 6,4 km/h (2 Bft) 97,44 %
25.08.2016 22:22 18,8 C 76 % 1017,6 hPa 0,0 l/m 4,9 km/h (1 Bft) NO 44 0 min 0,000 mm 0,0 UV-I 0 W/m 14,5 C 18,8 C 8,0 km/h (2 Bft) 100,00 %
25.08.2016 22:24 18,8 C 76 % 1017,5 hPa 0,0 l/m 4,8 km/h (1 Bft) NO 46 0 min 0,000 mm 0,0 UV-I 0 W/m 14,5 C 18,8 C 6,4 km/h (2 Bft) 100,00 %
25.08.2016 22:26 18,7 C 76 % 1017,6 hPa 0,0 l/m 4,1 km/h (1 Bft) NO 46 0 min 0,000 mm 0,0 UV-I 0 W/m 14,4 C 18,7 C 6,4 km/h (2 Bft) 100,00 %
25.08.2016 22:28 18,7 C 77 % 1017,6 hPa 0,0 l/m 4,6 km/h (1 Bft) NO 46 0 min 0,000 mm 0,0 UV-I 0 W/m 14,6 C 18,7 C 6,4 km/h (2 Bft) 100,00 %
25.08.2016 22:30 18,6 C 77 % 1017,6 hPa 0,0 l/m 3,0 km/h (1 Bft) NO 46 0 min 0,000 mm 0,0 UV-I 0 W/m 14,5 C 18,6 C 4,8 km/h (1 Bft) 100,00 %
25.08.2016 22:32 18,6 C 77 % 1017,6 hPa 0,0 l/m 3,7 km/h (1 Bft) NO 46 0 min 0,000 mm 0,0 UV-I 0 W/m 14,5 C 18,6 C 6,4 km/h (2 Bft) 100,00 %
25.08.2016 22:34 18,5 C 78 % 1017,6 hPa 0,0 l/m 2,9 km/h (1 Bft) NO 46 0 min 0,000 mm 0,0 UV-I 0 W/m 14,6 C 18,5 C 4,8 km/h (1 Bft) 100,00 %
25.08.2016 22:36 18,4 C 78 % 1017,6 hPa 0,0 l/m 3,1 km/h (1 Bft) O-NO 59 0 min 0,000 mm 0,0 UV-I 0 W/m 14,5 C 18,4 C 4,8 km/h (1 Bft) 100,00 %
25.08.2016 22:38 18,4 C 78 % 1017,6 hPa 0,0 l/m 3,9 km/h (1 Bft) O-NO 59 0 min 0,000 mm 0,0 UV-I 0 W/m 14,5 C 18,4 C 6,4 km/h (2 Bft) 97,87 %
25.08.2016 22:40 18,4 C 78 % 1017,6 hPa 0,0 l/m 3,6 km/h (1 Bft) O-NO 59 0 min 0,000 mm 0,0 UV-I 0 W/m 14,5 C 18,4 C 4,8 km/h (1 Bft) 100,00 %
25.08.2016 22:42 18,4 C 78 % 1017,6 hPa 0,0 l/m 5,2 km/h (1 Bft) O-NO 60 0 min 0,000 mm 0,0 UV-I 0 W/m 14,5 C 18,4 C 8,0 km/h (2 Bft) 100,00 %
25.08.2016 22:44 18,4 C 78 % 1017,5 hPa 0,0 l/m 5,0 km/h (1 Bft) O-NO 63 0 min 0,000 mm 0,0 UV-I 0 W/m 14,5 C 18,4 C 8,0 km/h (2 Bft) 100,00 %
25.08.2016 22:46 18,4 C 78 % 1017,6 hPa 0,0 l/m 4,3 km/h (1 Bft) O-NO 63 0 min 0,000 mm 0,0 UV-I 0 W/m 14,5 C 18,4 C 8,0 km/h (2 Bft) 100,00 %
25.08.2016 22:48 18,5 C 77 % 1017,5 hPa 0,0 l/m 6,2 km/h (2 Bft) O-NO 76 0 min 0,000 mm 0,0 UV-I 0 W/m 14,4 C 18,5 C 11,3 km/h (2 Bft) 97,87 %
25.08.2016 22:50 18,6 C 77 % 1017,6 hPa 0,0 l/m 5,7 km/h (1 Bft) NO 49 0 min 0,000 mm 0,0 UV-I 0 W/m 14,5 C 18,6 C 8,0 km/h (2 Bft) 97,87 %
25.08.2016 22:52 18,6 C 77 % 1017,6 hPa 0,0 l/m 5,6 km/h (1 Bft) NO 52 0 min 0,000 mm 0,0 UV-I 0 W/m 14,5 C 18,6 C 9,7 km/h (2 Bft) 95,74 %
25.08.2016 22:54 18,6 C 77 % 1017,6 hPa 0,0 l/m 5,0 km/h (1 Bft) NO 38 0 min 0,000 mm 0,0 UV-I 0 W/m 14,5 C 18,6 C 8,0 km/h (2 Bft) 97,87 %
25.08.2016 22:56 18,6 C 77 % 1017,7 hPa 0,0 l/m 7,3 km/h (2 Bft) NO 50 0 min 0,000 mm 0,0 UV-I 0 W/m 14,5 C 18,2 C 16,1 km/h (3 Bft) 97,87 %
25.08.2016 22:58 18,6 C 77 % 1017,7 hPa 0,0 l/m 7,1 km/h (2 Bft) O-NO 59 0 min 0,000 mm 0,0 UV-I 0 W/m 14,5 C 18,3 C 9,7 km/h (2 Bft) 97,87 %
25.08.2016 23:00 18,6 C 77 % 1017,7 hPa 0,0 l/m 6,5 km/h (2 Bft) O-NO 61 0 min 0,000 mm 0,0 UV-I 0 W/m 14,5 C 18,6 C 8,0 km/h (2 Bft) 97,92 %
25.08.2016 23:02 18,6 C 77 % 1017,7 hPa 0,0 l/m 7,1 km/h (2 Bft) O-NO 57 0 min 0,025 mm 0,0 UV-I 0 W/m 14,5 C 18,3 C 14,5 km/h (3 Bft) 97,87 %
25.08.2016 23:04 18,6 C 77 % 1017,7 hPa 0,0 l/m 6,0 km/h (2 Bft) O-NO 67 0 min 0,000 mm 0,0 UV-I 0 W/m 14,5 C 18,6 C 8,0 km/h (2 Bft) 100,00 %
25.08.2016 23:06 18,5 C 77 % 1017,7 hPa 0,0 l/m 4,4 km/h (1 Bft) NO 46 0 min 0,000 mm 0,0 UV-I 0 W/m 14,4 C 18,5 C 8,0 km/h (2 Bft) 100,00 %
25.08.2016 23:08 18,4 C 77 % 1017,7 hPa 0,0 l/m 5,9 km/h (2 Bft) NO 56 0 min 0,000 mm 0,0 UV-I 0 W/m 14,3 C 18,4 C 8,0 km/h (2 Bft) 95,74 %
25.08.2016 23:10 18,4 C 77 % 1017,7 hPa 0,0 l/m 5,6 km/h (1 Bft) NO 49 0 min 0,000 mm 0,0 UV-I 0 W/m 14,3 C 18,4 C 9,7 km/h (2 Bft) 97,87 %
25.08.2016 23:12 18,4 C 77 % 1017,7 hPa 0,0 l/m 5,2 km/h (1 Bft) NO 47 0 min 0,000 mm 0,0 UV-I 0 W/m 14,3 C 18,4 C 11,3 km/h (2 Bft) 97,87 %
25.08.2016 23:14 18,3 C 78 % 1017,7 hPa 0,0 l/m 5,4 km/h (1 Bft) O-NO 59 0 min 0,000 mm 0,0 UV-I 0 W/m 14,4 C 18,3 C 6,4 km/h (2 Bft) 97,87 %
25.08.2016 23:16 18,3 C 78 % 1017,7 hPa 0,0 l/m 5,2 km/h (1 Bft) NO 52 0 min 0,000 mm 0,0 UV-I 0 W/m 14,4 C 18,3 C 8,0 km/h (2 Bft) 95,74 %
25.08.2016 23:18 18,3 C 78 % 1017,7 hPa 0,0 l/m 5,6 km/h (1 Bft) N-NO 29 0 min 0,000 mm 0,0 UV-I 0 W/m 14,4 C 18,3 C 8,0 km/h (2 Bft) 100,00 %
25.08.2016 23:20 18,2 C 78 % 1017,7 hPa 0,0 l/m 6,1 km/h (2 Bft) NO 37 0 min 0,000 mm 0,0 UV-I 0 W/m 14,3 C 18,2 C 11,3 km/h (2 Bft) 97,87 %
25.08.2016 23:22 18,2 C 78 % 1017,7 hPa 0,0 l/m 6,2 km/h (2 Bft) O-NO 60 0 min 0,000 mm 0,0 UV-I 0 W/m 14,3 C 18,2 C 9,7 km/h (2 Bft) 98,04 %
25.08.2016 23:24 18,2 C 78 % 1017,7 hPa 0,0 l/m 9,0 km/h (2 Bft) NO 51 0 min 0,000 mm 0,0 UV-I 0 W/m 14,3 C 17,0 C 14,5 km/h (3 Bft) 97,37 %
25.08.2016 23:26 18,2 C 78 % 1017,7 hPa 0,0 l/m 6,7 km/h (2 Bft) O-NO 68 0 min 0,000 mm 0,0 UV-I 0 W/m 14,3 C 18,1 C 11,3 km/h (2 Bft) 97,87 %
25.08.2016 23:28 18,2 C 78 % 1017,7 hPa 0,0 l/m 9,4 km/h (2 Bft) NO 48 0 min 0,000 mm 0,0 UV-I 0 W/m 14,3 C 16,9 C 16,1 km/h (3 Bft) 93,62 %
25.08.2016 23:30 18,3 C 78 % 1017,6 hPa 0,0 l/m 8,5 km/h (2 Bft) O-NO 64 0 min 0,000 mm 0,0 UV-I 0 W/m 14,4 C 17,4 C 14,5 km/h (3 Bft) 95,74 %
25.08.2016 23:32 18,3 C 78 % 1017,6 hPa 0,0 l/m 9,0 km/h (2 Bft) O-NO 60 0 min 0,000 mm 0,0 UV-I 0 W/m 14,4 C 17,1 C 14,5 km/h (3 Bft) 97,96 %
25.08.2016 23:34 18,3 C 78 % 1017,7 hPa 0,0 l/m 9,6 km/h (2 Bft) O-NO 60 0 min 0,000 mm 0,0 UV-I 0 W/m 14,4 C 16,9 C 16,1 km/h (3 Bft) 96,00 %
25.08.2016 23:36 18,3 C 77 % 1017,7 hPa 0,0 l/m 12,7 km/h (3 Bft) O-NO 69 0 min 0,000 mm 0,0 UV-I 0 W/m 14,2 C 15,9 C 17,7 km/h (3 Bft) 95,74 %
25.08.2016 23:38 18,4 C 77 % 1017,6 hPa 0,0 l/m 11,5 km/h (2 Bft) O-NO 76 0 min 0,000 mm 0,0 UV-I 0 W/m 14,3 C 16,4 C 16,1 km/h (3 Bft) 93,62 %
25.08.2016 23:40 18,4 C 77 % 1017,6 hPa 0,0 l/m 11,9 km/h (2 Bft) O-NO 65 0 min 0,000 mm 0,0 UV-I 0 W/m 14,3 C 16,2 C 16,1 km/h (3 Bft) 97,87 %
25.08.2016 23:42 18,4 C 77 % 1017,6 hPa 0,0 l/m 11,5 km/h (2 Bft) O-NO 59 0 min 0,000 mm 0,0 UV-I 0 W/m 14,3 C 16,4 C 19,3 km/h (3 Bft) 97,44 %
25.08.2016 23:44 18,4 C 76 % 1017,6 hPa 0,0 l/m 12,7 km/h (3 Bft) O-NO 59 0 min 0,000 mm 0,0 UV-I 0 W/m 14,1 C 16,0 C 19,3 km/h (3 Bft) 97,87 %
25.08.2016 23:46 18,5 C 76 % 1017,5 hPa 0,0 l/m 13,5 km/h (3 Bft) NO 50 0 min 0,000 mm 0,0 UV-I 0 W/m 14,2 C 15,8 C 19,3 km/h (3 Bft) 95,74 %
25.08.2016 23:48 18,6 C 76 % 1017,5 hPa 0,0 l/m 12,2 km/h (2 Bft) NO 44 0 min 0,000 mm 0,0 UV-I 0 W/m 14,3 C 16,4 C 19,3 km/h (3 Bft) 95,74 %
25.08.2016 23:50 18,6 C 76 % 1017,5 hPa 0,0 l/m 10,6 km/h (2 Bft) NO 53 0 min 0,000 mm 0,0 UV-I 0 W/m 14,3 C 16,9 C 14,5 km/h (3 Bft) 97,87 %
25.08.2016 23:52 18,5 C 76 % 1017,5 hPa 0,0 l/m 9,7 km/h (2 Bft) NO 47 0 min 0,000 mm 0,0 UV-I 0 W/m 14,2 C 17,1 C 16,1 km/h (3 Bft) 97,87 %
25.08.2016 23:54 18,4 C 76 % 1017,5 hPa 0,0 l/m 10,1 km/h (2 Bft) O-NO 68 0 min 0,000 mm 0,0 UV-I 0 W/m 14,1 C 16,8 C 17,7 km/h (3 Bft) 96,00 %
25.08.2016 23:56 18,4 C 76 % 1017,5 hPa 0,0 l/m 9,9 km/h (2 Bft) NO 51 0 min 0,000 mm 0,0 UV-I 0 W/m 14,1 C 16,9 C 16,1 km/h (3 Bft) 95,74 %
25.08.2016 23:58 18,4 C 77 % 1017,5 hPa 0,0 l/m 11,5 km/h (2 Bft) O-NO 73 0 min 0,000 mm 0,0 UV-I 0 W/m 14,3 C 16,4 C 20,9 km/h (4 Bft) 97,87 %
_ Min-Zeit 06:22 15:24 18:04 - 22:34 - - - - - - 06:22 05:16 22:30 09:58
Minimum _ 14,2 C 48 % 1017,1 hPa - 2,9 km/h (1 Bft) - - - - - - 12,9 C 11,1 C 4,8 km/h (1 Bft) 86,84 %
_ Max-Zeit 16:10 04:44 00:02 00:00 16:12 - - 07:16 14:00 12:58 13:02 17:32 16:10 11:08 00:02
Maximum _ 26,2 C 92 % 1021,6 hPa 0,0 l/m 27,9 km/h
O-NO (4 Bft)
- - 2 min 0,635 mm 5,8 UV-I 793 W/m 17,2 C 24,5 C 40,2 km/h
N-NO (6 Bft)
100,00 %
Durchschnitt _ 20,1 C 73 % 1019,2 hPa #0,0 l/m 14,6 km/h (3 Bft) O-NO - #11:46 h #5,537 mm 3,3 UV-I 446 W/m 14,7 C 18,1 C 21,3 km/h (4 Bft) 98,39 %